[[{"header":{"parameterUnit":"m.s-1","parameterCategory":1,"la1":31.0,"la2":29.5877,"lo1":-88.7671,"lo2":-86.6584,"dy":0.0162,"dx":0.0185,"nx":115,"ny":88,"refTime":"2024-09-24T06:00:00:Z","depth":0,"parameterNumber":2,"parameterNumberName":"U-component_of_WINDS"},"data":[0.0,0.0,0.0,0.0,0.0,0.0,0.0,0.0,0.0,0.0,0.0,0.0,0.0,0.0,0.0,0.0,0.0,0.0,0.0,0.0,0.0,0.0,0.0,0.0,0.0,0.0,0.0,0.0,0.0,0.0,0.0,0.0,0.0,0.0,0.0,0.0,0.0,0.0,0.0,0.0,0.0,0.0,0.0,0.0,0.0,0.0,0.0,0.0,0.0,0.0,0.0,0.0,0.0,0.0,0.0,0.0,0.0,0.0,0.0,0.0,0.0,0.0,0.0,0.0,0.0,0.0,0.0,0.0,0.0,0.0,0.0,0.0,0.0,0.0,0.0,0.0,0.0,0.0,0.0,0.0,0.0,0.0,0.0,0.0,0.0,0.0,0.0,0.0,0.0,0.0,0.0,0.0,0.0,0.0,0.0,0.0,0.0,0.0,0.0,0.0,0.0,0.0,0.0,0.0,0.0,0.0,0.0,0.0,0.0,0.0,0.0,0.0,0.0,0.0,0.0,0.0,0.0,0.0,0.0,0.0,0.0,0.0,0.0,0.0,0.0,0.0,0.0,0.0,0.0,0.0,0.0,0.0,0.0,0.0,0.0,0.0,0.0,0.0,0.0,0.0,0.0,0.0,0.0,0.0,0.0,0.0,0.0,0.0,0.0,0.0,0.0,0.0,0.0,0.0,0.0,0.0,0.0,0.0,0.0,0.0,0.0,0.0,0.0,0.0,0.0,0.0,0.0,0.0,0.0,0.0,0.0,0.0,0.0,0.0,0.0,0.0,0.0,0.0,0.0,0.0,0.0,0.0,0.0,0.0,0.0,0.0,0.0,0.0,0.0,0.0,0.0,0.0,0.0,0.0,0.0,0.0,0.0,0.0,0.0,0.0,0.0,0.0,0.0,0.0,0.0,0.0,0.0,0.0,0.0,0.0,0.0,0.0,0.0,0.0,0.0,0.0,0.0,0.0,0.0,0.0,0.0,0.0,0.0,0.0,0.0,0.0,0.0,0.0,0.0,0.0,0.0,0.0,0.0,0.0,0.0,0.0,0.0,0.0,0.0,0.0,0.0,0.0,0.0,0.0,0.0,0.0,0.0,0.0,0.0,0.0,0.0,0.0,0.0,0.0,0.0,0.0,0.0,0.0,0.0,0.0,0.0,0.0,0.0,0.0,0.0,0.0,0.0,0.0,0.0,0.0,0.0,0.0,0.0,0.0,0.0,0.0,0.0,0.0,0.0,0.0,0.0,0.0,0.0,0.0,0.0,0.0,0.0,0.0,0.0,0.0,0.0,0.0,0.0,0.0,0.0,0.0,0.0,0.0,0.0,0.0,0.0,0.0,0.0,0.0,0.0,0.0,0.0,0.0,0.0,0.0,0.0,0.0,0.0,0.0,0.0,0.0,0.0,0.0,0.0,0.0,0.0,0.0,0.0,0.0,0.0,0.0,0.0,0.0,0.0,0.0,0.0,0.0,0.0,0.0,0.0,0.0,0.0,0.0,0.0,0.0,0.0,0.0,0.0,0.0,0.0,0.0,0.0,0.0,0.0,0.0,0.0,0.0,0.0,0.0,0.0,0.0,0.0,0.0,0.0,0.0,0.0,0.0,0.0,0.0,0.0,0.0,0.0,0.0,0.0,0.0,0.0,0.0,0.0,0.0,0.0,0.0,0.0,0.0,0.0,0.0,0.0,0.0,0.0,0.0,0.0,0.0,0.0,0.0,0.0,0.0,0.0,0.0,0.0,0.0,0.0,0.0,0.0,0.0,0.0,0.0,0.0,0.0,0.0,0.0,0.0,0.0,0.0,0.0,0.0,0.0,0.0,0.0,0.0,0.0,0.0,0.0,0.0,0.0,0.0,0.0,0.0,0.0,0.0,0.0,0.0,0.0,0.0,0.0,0.0,0.0,0.0,0.0,0.0,0.0,0.0,0.0,0.0,0.0,0.0,0.0,0.0,0.0,0.0,0.0,0.0,0.0,0.0,0.0,0.0,0.0,0.0,0.0,0.0,0.0,0.0,0.0,0.0,0.0,0.0,0.0,0.0,0.0,0.0,0.0,0.0,0.0,0.0,0.0,0.0,0.0,0.0,0.0,0.0,0.0,0.0,0.0,0.0,0.0,0.0,0.0,0.0,0.0,0.0,0.0,0.0,0.0,0.0,0.0,0.0,0.0,0.0,0.0,0.0,0.0,0.0,0.0,0.0,0.0,0.0,0.0,0.0,0.0,0.0,0.0,0.0,0.0,0.0,0.0,0.0,0.0,0.0,0.0,0.0,0.0,0.0,0.0,0.0,0.0,0.0,0.0,0.0,0.0,0.0,0.0,0.0,0.0,0.0,0.0,0.0,0.0,0.0,0.0,0.0,0.0,0.0,0.0,0.0,0.0,0.0,0.0,0.0,0.0,0.0,0.0,0.0,0.0,0.0,0.0,0.0,0.0,0.0,0.0,0.0,0.0,0.0,0.0,0.0,0.0,0.0,0.0,0.0,0.0,0.0,0.0,0.0,0.0,0.0,0.0,0.0,0.0,0.0,0.0,0.0,0.0,0.0,0.0,0.0,0.0,0.0,0.0,0.0,0.0,0.0,0.0,0.0,0.0,0.0,0.0,0.0,0.0,0.0,0.0,0.0,0.0,0.0,0.0,0.0,0.0,0.0,0.0,0.0,0.0,0.0,0.0,0.0,0.0,0.0,0.0,0.0,0.0,0.0,0.0,0.0,0.0,0.0,0.0,0.0,0.0,0.0,0.0,0.0,0.0,0.0,0.0,0.0,0.0,0.0,0.0,0.0,0.0,0.0,0.0,0.0,0.0,0.0,0.0,0.0,0.0,0.0,0.0,0.0,0.0,0.0,0.0,0.0,0.0,0.0,0.0,0.0,0.0,0.0,0.0,0.0,0.0,0.0,0.0,0.0,0.0,0.0,0.0,0.0,0.0,0.0,0.0,0.0,0.0,0.0,0.0,0.0,0.0,0.0,0.0,0.0,0.0,0.0,0.0,0.0,0.0,0.0,0.0,0.0,0.0,0.0,0.0,0.0,0.0,0.0,0.0,0.0,0.0,0.0,0.0,0.0,0.0,0.0,0.0,0.0,0.0,0.0,0.0,0.0,0.0,0.0,0.0,0.0,0.0,0.0,0.0,0.0,0.0,0.0,0.0,0.0,0.0,0.0,0.0,0.0,0.0,0.0,0.0,0.0,0.0,0.0,0.0,0.0,0.0,0.0,0.0,0.0,0.0,0.0,0.0,0.0,0.0,0.0,0.0,0.0,0.0,0.0,0.0,0.0,0.0,0.0,0.0,0.0,0.0,0.0,0.0,0.0,0.0,0.0,0.0,0.0,0.0,0.0,0.0,0.0,0.0,0.0,0.0,0.0,0.0,0.0,0.0,0.0,0.0,0.0,0.0,0.0,0.0,0.0,0.0,0.0,0.0,0.0,0.0,0.0,0.0,0.0,0.0,0.0,0.0,0.0,0.0,0.0,0.0,0.0,0.0,0.0,0.0,0.0,0.0,0.0,0.0,0.0,0.0,0.0,0.0,0.0,0.0,0.0,0.0,0.0,0.0,0.0,0.0,0.0,0.0,0.0,0.0,0.0,0.0,0.0,0.0,0.0,0.0,0.0,0.0,0.0,0.0,0.0,0.0,0.0,0.0,0.0,0.0,0.0,0.0,0.0,0.0,0.0,0.0,0.0,0.0,0.0,0.0,0.0,0.0,0.0,0.0,0.0,0.0,0.0,0.0,0.0,0.0,0.0,0.0,0.0,0.0,0.0,0.0,0.0,0.0,0.0,0.0,0.0,0.0,0.0,0.0,0.0,0.0,0.0,0.0,0.0,0.0,0.0,0.0,0.0,0.0,0.0,0.0,0.0,0.0,0.0,0.0,0.0,0.0,0.0,0.0,0.0,0.0,0.0,0.0,0.0,0.0,0.0,0.0,0.0,0.0,0.0,0.0,0.0,0.0,0.0,0.0,0.0,0.0,0.0,0.0,0.0,0.0,0.0,0.0,0.0,0.0,0.0,0.0,0.0,0.0,0.0,0.0,0.0,0.0,0.0,0.0,0.0,0.0,0.0,0.0,0.0,0.0,0.0,0.0,0.0,0.0,0.0,0.0,0.0,0.0,0.0,0.0,0.0,0.0,0.0,0.0,0.0,0.0,0.0,0.0,0.0,0.0,0.0,0.0,0.0,0.0,0.0,0.0,0.0,0.0,0.0,0.0,0.0,0.0,0.0,0.0,0.0,0.0,0.0,0.0,0.0,0.0,0.0,0.0,0.0,0.0,-1.3548,0.0,0.0,0.0,0.0,0.0,0.0,0.0,0.0,0.0,0.0,0.0,0.0,0.0,0.0,0.0,0.0,0.0,0.0,0.0,0.0,0.0,0.0,0.0,0.0,0.0,0.0,0.0,0.0,0.0,0.0,0.0,0.0,0.0,0.0,0.0,0.0,0.0,0.0,0.0,0.0,0.0,0.0,0.0,0.0,0.0,0.0,0.0,0.0,0.0,0.0,0.0,0.0,0.0,0.0,0.0,0.0,0.0,0.0,0.0,0.0,0.0,0.0,0.0,0.0,0.0,0.0,0.0,0.0,0.0,0.0,0.0,0.0,0.0,0.0,0.0,0.0,0.0,0.0,0.0,0.0,0.0,0.0,0.0,0.0,0.0,0.0,0.0,0.0,0.0,0.0,0.0,0.0,0.0,0.0,0.0,0.0,0.0,0.0,0.0,0.0,0.0,0.0,0.0,0.0,0.0,0.0,0.0,0.0,0.0,0.0,-1.2873,-1.3012,-1.3025,-1.2962,-1.2814,0.0,0.0,0.0,0.0,0.0,0.0,0.0,0.0,0.0,0.0,0.0,0.0,0.0,0.0,0.0,0.0,0.0,0.0,0.0,0.0,0.0,0.0,0.0,0.0,0.0,0.0,0.0,0.0,0.0,0.0,0.0,0.0,0.0,0.0,0.0,0.0,0.0,0.0,0.0,0.0,0.0,0.0,0.0,0.0,0.0,0.0,0.0,0.0,0.0,0.0,0.0,0.0,0.0,0.0,0.0,0.0,0.0,0.0,0.0,0.0,0.0,0.0,0.0,0.0,0.0,0.0,0.0,0.0,0.0,0.0,0.0,0.0,0.0,0.0,0.0,0.0,0.0,0.0,0.0,0.0,0.0,0.0,0.0,0.0,0.0,0.0,0.0,0.0,0.0,0.0,0.0,0.0,0.0,0.0,0.0,0.0,0.0,0.0,0.0,0.0,0.0,0.0,0.0,0.0,0.0,0.0,0.0,0.0,0.0,0.0,0.0,0.0,-1.2835,-1.2717,-1.2423,0.0,0.0,0.0,0.0,0.0,0.0,0.0,0.0,0.0,0.0,0.0,0.0,0.0,0.0,0.0,0.0,0.0,0.0,0.0,0.0,0.0,0.0,0.0,0.0,0.0,0.0,0.0,0.0,0.0,0.0,0.0,0.0,0.0,0.0,0.0,0.0,0.0,0.0,0.0,0.0,0.0,0.0,0.0,0.0,0.0,0.0,0.0,0.0,0.0,0.0,0.0,0.0,0.0,0.0,0.0,0.0,0.0,0.0,0.0,0.0,0.0,0.0,0.0,0.0,0.0,0.0,0.0,0.0,0.0,0.0,0.0,0.0,0.0,0.0,0.0,0.0,0.0,0.0,0.0,0.0,0.0,0.0,0.0,0.0,0.0,0.0,0.0,0.0,0.0,0.0,0.0,0.0,0.0,0.0,0.0,0.0,0.0,0.0,0.0,0.0,0.0,0.0,0.0,0.0,0.0,0.0,0.0,0.0,0.0,0.0,-1.2485,-1.2777,-1.3194,0.0,-1.3267,0.0,0.0,0.0,0.0,0.0,0.0,0.0,0.0,0.0,0.0,0.0,0.0,0.0,0.0,0.0,0.0,0.0,0.0,0.0,0.0,0.0,0.0,0.0,0.0,0.0,0.0,0.0,0.0,0.0,0.0,0.0,0.0,0.0,0.0,0.0,0.0,0.0,0.0,0.0,0.0,0.0,0.0,0.0,0.0,0.0,0.0,0.0,0.0,0.0,0.0,0.0,0.0,0.0,0.0,0.0,0.0,0.0,0.0,0.0,0.0,0.0,0.0,0.0,0.0,0.0,0.0,0.0,0.0,0.0,0.0,0.0,0.0,0.0,0.0,0.0,0.0,0.0,0.0,0.0,0.0,0.0,0.0,0.0,0.0,0.0,0.0,0.0,0.0,0.0,0.0,0.0,0.0,0.0,0.0,0.0,0.0,0.0,0.0,0.0,0.0,0.0,0.0,0.0,0.0,0.0,0.0,0.0,0.0,0.0,0.0,-1.1686,-1.2605,-1.2344,-1.2443,0.0,0.0,0.0,0.0,0.0,0.0,0.0,0.0,0.0,0.0,0.0,0.0,0.0,0.0,0.0,0.0,0.0,0.0,0.0,0.0,0.0,0.0,0.0,0.0,0.0,0.0,0.0,0.0,0.0,0.0,0.0,0.0,0.0,0.0,0.0,0.0,0.0,0.0,0.0,0.0,0.0,0.0,0.0,0.0,0.0,0.0,0.0,0.0,0.0,0.0,0.0,0.0,0.0,0.0,0.0,0.0,0.0,0.0,0.0,0.0,0.0,0.0,0.0,0.0,0.0,0.0,0.0,0.0,0.0,0.0,0.0,0.0,0.0,0.0,0.0,0.0,0.0,0.0,0.0,0.0,0.0,0.0,0.0,0.0,0.0,0.0,0.0,0.0,0.0,0.0,0.0,0.0,0.0,0.0,0.0,0.0,0.0,0.0,0.0,0.0,0.0,0.0,0.0,0.0,0.0,0.0,0.0,0.0,0.0,0.0,-1.0975,-1.1312,-1.237,-1.1781,-1.1678,-1.2205,0.0,0.0,0.0,0.0,0.0,0.0,0.0,0.0,0.0,0.0,0.0,0.0,0.0,0.0,0.0,0.0,0.0,0.0,0.0,0.0,0.0,0.0,0.0,0.0,0.0,0.0,0.0,0.0,0.0,0.0,0.0,0.0,0.0,0.0,0.0,0.0,0.0,0.0,0.0,0.0,0.0,0.0,0.0,0.0,0.0,0.0,0.0,0.0,0.0,0.0,0.0,0.0,0.0,0.0,0.0,0.0,0.0,0.0,0.0,0.0,0.0,0.0,0.0,0.0,0.0,0.0,0.0,0.0,0.0,0.0,0.0,0.0,0.0,0.0,0.0,0.0,0.0,0.0,0.0,0.0,0.0,0.0,0.0,0.0,0.0,0.0,0.0,0.0,0.0,0.0,0.0,0.0,0.0,0.0,0.0,0.0,0.0,0.0,0.0,0.0,0.0,0.0,0.0,0.0,0.0,0.0,0.0,0.0,-1.0764,-1.1142,-1.168,-1.2327,-1.1943,-1.155,0.0,0.0,0.0,0.0,0.0,0.0,0.0,0.0,0.0,0.0,0.0,0.0,0.0,0.0,0.0,0.0,0.0,0.0,0.0,0.0,0.0,0.0,0.0,0.0,0.0,0.0,0.0,0.0,0.0,0.0,0.0,0.0,0.0,0.0,0.0,0.0,0.0,0.0,0.0,0.0,0.0,0.0,0.0,0.0,0.0,0.0,0.0,0.0,0.0,0.0,0.0,0.0,0.0,0.0,0.0,0.0,0.0,0.0,0.0,0.0,0.0,0.0,0.0,0.0,0.0,0.0,0.0,0.0,0.0,0.0,0.0,0.0,0.0,0.0,0.0,0.0,0.0,0.0,0.0,0.0,0.0,0.0,0.0,0.0,0.0,0.0,0.0,0.0,0.0,0.0,0.0,0.0,0.0,0.0,0.0,0.0,0.0,0.0,0.0,0.0,0.0,0.0,0.0,0.0,0.0,0.0,0.0,0.0,0.0,-1.0786,-1.1495,-1.1681,-1.1327,-1.1348,-1.1192,0.0,0.0,0.0,0.0,0.0,0.0,0.0,0.0,0.0,0.0,0.0,0.0,0.0,0.0,0.0,0.0,0.0,0.0,0.0,0.0,0.0,0.0,0.0,0.0,0.0,0.0,0.0,0.0,0.0,0.0,0.0,0.0,0.0,0.0,0.0,0.0,0.0,0.0,0.0,0.0,0.0,0.0,0.0,0.0,0.0,0.0,0.0,0.0,0.0,0.0,0.0,0.0,0.0,0.0,0.0,0.0,0.0,0.0,0.0,0.0,0.0,0.0,0.0,0.0,0.0,0.0,0.0,0.0,0.0,0.0,0.0,0.0,0.0,0.0,0.0,0.0,0.0,0.0,0.0,0.0,0.0,0.0,0.0,0.0,0.0,0.0,0.0,0.0,0.0,0.0,0.0,0.0,0.0,0.0,0.0,0.0,0.0,0.0,0.0,0.0,0.0,0.0,0.0,0.0,0.0,0.0,0.0,0.0,0.0,-1.022,0.0,-1.1219,-1.0539,-1.0579,-1.045,0.0,0.0,0.0,0.0,0.0,0.0,0.0,0.0,0.0,0.0,0.0,0.0,0.0,0.0,0.0,0.0,0.0,0.0,0.0,0.0,0.0,0.0,0.0,0.0,0.0,0.0,0.0,0.0,0.0,0.0,0.0,0.0,0.0,0.0,0.0,0.0,0.0,0.0,0.0,0.0,0.0,0.0,0.0,0.0,0.0,0.0,0.0,0.0,0.0,0.0,0.0,0.0,0.0,0.0,0.0,0.0,0.0,0.0,0.0,0.0,0.0,0.0,0.0,0.0,0.0,0.0,0.0,0.0,0.0,0.0,0.0,0.0,0.0,0.0,0.0,0.0,0.0,0.0,0.0,0.0,0.0,0.0,0.0,0.0,0.0,0.0,0.0,0.0,0.0,0.0,0.0,0.0,0.0,0.0,0.0,0.0,0.0,0.0,0.0,0.0,0.0,0.0,0.0,0.0,0.0,0.0,0.0,0.0,-0.8723,-0.8969,-1.0018,-1.0439,-1.0106,-0.9702,-0.9322,0.0,0.0,0.0,0.0,0.0,0.0,0.0,0.0,0.0,0.0,0.0,0.0,0.0,0.0,0.0,0.0,0.0,0.0,0.0,0.0,0.0,0.0,0.0,0.0,0.0,0.0,0.0,0.0,0.0,0.0,0.0,0.0,0.0,0.0,0.0,0.0,0.0,0.0,0.0,0.0,0.0,0.0,0.0,0.0,0.0,0.0,0.0,0.0,0.0,0.0,0.0,0.0,0.0,0.0,0.0,0.0,0.0,0.0,0.0,0.0,0.0,0.0,0.0,0.0,0.0,0.0,0.0,0.0,0.0,0.0,0.0,0.0,0.0,0.0,0.0,0.0,0.0,0.0,0.0,0.0,0.0,0.0,0.0,0.0,0.0,0.0,0.0,0.0,0.0,0.0,0.0,0.0,0.0,0.0,0.0,0.0,0.0,0.0,0.0,0.0,0.0,0.0,0.0,0.0,0.0,0.0,0.0,0.0,0.0,-0.9459,-1.0401,-1.0548,-0.9868,-0.9866,-0.9481,0.0,0.0,0.0,0.0,0.0,0.0,0.0,0.0,0.0,0.0,0.0,0.0,0.0,0.0,0.0,0.0,0.0,0.0,0.0,0.0,0.0,0.0,0.0,0.0,0.0,0.0,0.0,0.0,0.0,0.0,0.0,0.0,0.0,0.0,0.0,0.0,0.0,0.0,0.0,0.0,0.0,0.0,0.0,0.0,0.0,0.0,0.0,0.0,0.0,0.0,0.0,0.0,0.0,0.0,0.0,0.0,0.0,0.0,0.0,0.0,0.0,0.0,0.0,0.0,0.0,0.0,0.0,0.0,0.0,0.0,0.0,0.0,0.0,0.0,0.0,0.0,0.0,0.0,0.0,0.0,0.0,0.0,0.0,0.0,0.0,0.0,0.0,0.0,0.0,0.0,0.0,0.0,0.0,0.0,0.0,0.0,0.0,0.0,0.0,0.0,0.0,0.0,0.0,0.0,0.0,0.0,0.0,0.0,0.0,-1.0711,-1.0953,-1.0724,-1.0017,-1.0081,-0.9674,-0.8807,0.0,0.0,0.0,0.0,0.0,0.0,0.0,0.0,0.0,0.0,0.0,0.0,0.0,0.0,0.0,0.0,0.0,0.0,0.0,0.0,0.0,0.0,0.0,0.0,0.0,0.0,0.0,0.0,0.0,0.0,0.0,0.0,0.0,0.0,0.0,0.0,0.0,0.0,0.0,0.0,0.0,0.0,0.0,0.0,0.0,0.0,0.0,0.0,0.0,0.0,0.0,0.0,0.0,0.0,0.0,0.0,0.0,0.0,0.0,0.0,0.0,0.0,0.0,0.0,0.0,0.0,0.0,0.0,0.0,0.0,0.0,0.0,0.0,0.0,0.0,0.0,0.0,0.0,0.0,0.0,0.0,0.0,0.0,0.0,0.0,0.0,0.0,0.0,0.0,0.0,0.0,0.0,0.0,0.0,0.0,0.0,0.0,0.0,0.0,0.0,0.0,0.0,0.0,0.0,0.0,0.0,0.0,0.0,-1.2434,-1.1616,-1.1003,-1.0629,-1.0325,-0.9917,0.0,0.0,0.0,0.0,0.0,0.0,0.0,0.0,0.0,0.0,0.0,0.0,0.0,0.0,0.0,0.0,0.0,0.0,0.0,0.0,0.0,0.0,0.0,0.0,0.0,0.0,0.0,0.0,0.0,0.0,0.0,0.0,0.0,0.0,0.0,0.0,0.0,0.0,0.0,0.0,0.0,0.0,0.0,0.0,0.0,0.0,0.0,0.0,0.0,0.0,0.0,0.0,0.0,0.0,0.0,0.0,0.0,0.0,0.0,0.0,0.0,0.0,0.0,0.0,0.0,0.0,0.0,0.0,0.0,0.0,0.0,0.0,0.0,0.0,0.0,0.0,0.0,0.0,0.0,0.0,0.0,0.0,0.0,0.0,0.0,0.0,0.0,0.0,0.0,0.0,0.0,0.0,0.0,0.0,0.0,0.0,0.0,0.0,0.0,0.0,0.0,0.0,0.0,0.0,0.0,0.0,0.0,0.0,0.0,-1.2111,-1.2826,-1.2776,-1.1863,-1.1204,-1.0474,0.0,0.0,0.0,0.0,0.0,0.0,0.0,0.0,0.0,0.0,0.0,0.0,0.0,0.0,0.0,0.0,0.0,0.0,0.0,0.0,0.0,0.0,0.0,0.0,0.0,0.0,0.0,0.0,0.0,0.0,0.0,0.0,0.0,0.0,0.0,0.0,0.0,0.0,0.0,0.0,0.0,0.0,0.0,0.0,0.0,0.0,0.0,0.0,0.0,0.0,0.0,0.0,0.0,0.0,0.0,0.0,0.0,0.0,0.0,0.0,0.0,0.0,0.0,0.0,0.0,0.0,0.0,0.0,0.0,0.0,0.0,0.0,0.0,0.0,0.0,0.0,0.0,0.0,0.0,0.0,0.0,0.0,0.0,0.0,0.0,0.0,0.0,0.0,0.0,0.0,0.0,0.0,0.0,0.0,0.0,0.0,0.0,0.0,0.0,0.0,0.0,0.0,0.0,0.0,0.0,0.0,0.0,0.0,-1.1967,-1.2806,-1.3726,-1.3962,-1.3387,-1.2266,-1.1225,0.0,0.0,0.0,0.0,0.0,0.0,0.0,0.0,0.0,0.0,0.0,0.0,0.0,0.0,0.0,0.0,0.0,0.0,0.0,0.0,0.0,0.0,0.0,0.0,0.0,0.0,0.0,0.0,0.0,0.0,0.0,0.0,0.0,0.0,0.0,0.0,0.0,0.0,0.0,0.0,0.0,0.0,0.0,0.0,0.0,0.0,0.0,0.0,0.0,0.0,0.0,0.0,0.0,0.0,0.0,0.0,0.0,0.0,0.0,0.0,0.0,0.0,0.0,0.0,0.0,0.0,0.0,0.0,0.0,0.0,0.0,0.0,0.0,0.0,0.0,0.0,0.0,0.0,0.0,0.0,0.0,0.0,0.0,0.0,0.0,0.0,0.0,0.0,0.0,0.0,0.0,0.0,0.0,0.0,0.0,0.0,0.0,0.0,0.0,0.0,0.0,0.0,0.0,0.0,0.0,0.0,0.0,0.0,-1.301,-1.4042,-1.4416,-1.4692,-1.4849,-1.3404,-1.2075,0.0,0.0,0.0,0.0,0.0,0.0,0.0,0.0,0.0,0.0,0.0,0.0,0.0,0.0,0.0,0.0,0.0,0.0,0.0,0.0,0.0,0.0,0.0,0.0,0.0,0.0,0.0,0.0,0.0,0.0,0.0,0.0,0.0,0.0,0.0,0.0,0.0,0.0,0.0,0.0,0.0,0.0,0.0,0.0,0.0,0.0,0.0,0.0,0.0,0.0,0.0,0.0,0.0,0.0,0.0,0.0,0.0,0.0,0.0,0.0,0.0,0.0,0.0,0.0,0.0,0.0,0.0,0.0,0.0,0.0,0.0,0.0,0.0,0.0,0.0,0.0,0.0,0.0,0.0,0.0,0.0,0.0,0.0,0.0,0.0,0.0,0.0,0.0,0.0,0.0,0.0,0.0,0.0,0.0,0.0,0.0,0.0,0.0,0.0,0.0,0.0,0.0,0.0,0.0,0.0,0.0,0.0,0.0,-1.3281,-1.4379,-1.4933,-1.5097,-1.49,-1.3865,-1.2797,0.0,0.0,0.0,0.0,0.0,0.0,0.0,0.0,0.0,0.0,0.0,0.0,0.0,0.0,0.0,0.0,0.0,0.0,0.0,0.0,0.0,0.0,0.0,0.0,0.0,0.0,0.0,0.0,0.0,0.0,0.0,0.0,0.0,0.0,0.0,0.0,0.0,0.0,0.0,0.0,0.0,0.0,0.0,0.0,0.0,0.0,0.0,0.0,-0.9682,0.0,0.0,0.0,0.0,0.0,0.0,0.0,0.0,0.0,0.0,0.0,0.0,0.0,0.0,0.0,0.0,0.0,0.0,0.0,0.0,0.0,0.0,0.0,0.0,0.0,0.0,0.0,0.0,0.0,0.0,0.0,0.0,0.0,0.0,0.0,0.0,0.0,0.0,0.0,0.0,0.0,0.0,0.0,0.0,0.0,0.0,0.0,0.0,0.0,0.0,0.0,0.0,0.0,0.0,0.0,0.0,0.0,0.0,0.0,-1.3677,-1.467,-1.5133,-1.5309,-1.5112,-1.4377,-1.3345,0.0,0.0,0.0,0.0,0.0,0.0,0.0,0.0,0.0,0.0,0.0,0.0,0.0,0.0,0.0,0.0,0.0,0.0,0.0,0.0,0.0,0.0,0.0,0.0,0.0,0.0,0.0,0.0,0.0,0.0,0.0,0.0,0.0,0.0,0.0,0.0,0.0,0.0,0.0,0.0,0.0,0.0,0.0,0.0,0.0,0.0,0.0,0.0,0.0,0.0,0.0,0.0,0.0,0.0,0.0,0.0,0.0,0.0,0.0,0.0,0.0,0.0,0.0,0.0,0.0,0.0,0.0,0.0,0.0,0.0,0.0,0.0,0.0,0.0,0.0,0.0,0.0,0.0,0.0,0.0,0.0,0.0,0.0,0.0,0.0,0.0,0.0,0.0,0.0,0.0,0.0,0.0,0.0,0.0,0.0,0.0,0.0,0.0,0.0,0.0,0.0,0.0,0.0,0.0,0.0,0.0,0.0,-1.2891,-1.4067,-1.4951,-1.525,-1.5389,-1.5374,-1.4757,-1.3719,-1.2127,0.0,0.0,0.0,0.0,0.0,0.0,0.0,0.0,0.0,0.0,0.0,0.0,0.0,0.0,0.0,0.0,0.0,0.0,0.0,0.0,0.0,0.0,0.0,0.0,0.0,0.0,0.0,0.0,0.0,0.0,0.0,0.0,0.0,0.0,0.0,0.0,0.0,0.0,-0.8466,-0.9063,0.0,0.0,0.0,0.0,0.0,0.0,0.0,0.0,-1.0308,0.0,0.0,0.0,0.0,0.0,0.0,0.0,0.0,0.0,0.0,0.0,0.0,0.0,0.0,0.0,0.0,0.0,0.0,0.0,0.0,0.0,0.0,0.0,0.0,0.0,0.0,0.0,0.0,0.0,0.0,0.0,0.0,0.0,0.0,0.0,0.0,0.0,0.0,0.0,0.0,0.0,0.0,0.0,0.0,0.0,0.0,0.0,0.0,0.0,0.0,0.0,0.0,0.0,0.0,0.0,0.0,-1.1796,-1.2785,-1.3952,-1.5272,-1.5352,-1.5389,-1.5409,-1.4538,-1.355,-1.2434,0.0,0.0,0.0,0.0,0.0,0.0,0.0,0.0,0.0,0.0,0.0,0.0,0.0,0.0,0.0,0.0,0.0,0.0,0.0,0.0,0.0,0.0,0.0,0.0,0.0,0.0,0.0,0.0,0.0,0.0,0.0,0.0,0.0,0.0,0.0,0.0,0.0,0.0,0.0,-0.9639,-0.9883,0.0,0.0,0.0,0.0,0.0,0.0,0.0,0.0,-1.0006,0.0,0.0,0.0,0.0,0.0,0.0,0.0,0.0,0.0,0.0,0.0,0.0,0.0,0.0,0.0,0.0,0.0,0.0,0.0,0.0,0.0,0.0,0.0,0.0,0.0,0.0,0.0,0.0,0.0,0.0,0.0,0.0,0.0,0.0,0.0,0.0,0.0,0.0,0.0,0.0,0.0,0.0,0.0,0.0,0.0,0.0,0.0,0.0,0.0,0.0,0.0,0.0,0.0,0.0,0.0,-1.1866,-1.3083,-1.4262,-1.5352,-1.5389,-1.5389,-1.5367,-1.4487,-1.3521,0.0,0.0,0.0,0.0,0.0,0.0,0.0,0.0,0.0,0.0,0.0,0.0,0.0,0.0,0.0,0.0,0.0,0.0,0.0,0.0,0.0,0.0,0.0,0.0,0.0,0.0,0.0,0.0,0.0,0.0,0.0,0.0,0.0,0.0,0.0,0.0,0.0,0.0,0.0,0.0,-0.9829,-1.0131,-1.0268,0.0,0.0,0.0,0.0,0.0,0.0,-1.058,-1.0433,0.0,0.0,0.0,0.0,0.0,0.0,0.0,0.0,0.0,0.0,0.0,0.0,0.0,0.0,0.0,0.0,0.0,0.0,0.0,0.0,0.0,0.0,0.0,0.0,0.0,0.0,0.0,0.0,0.0,0.0,0.0,0.0,0.0,0.0,0.0,0.0,0.0,0.0,0.0,0.0,0.0,0.0,0.0,0.0,0.0,0.0,0.0,0.0,0.0,0.0,0.0,0.0,0.0,0.0,0.0,-1.2012,-1.339,-1.4507,-1.5352,-1.5389,-1.5389,-1.5374,-1.4428,-1.3455,0.0,0.0,0.0,0.0,0.0,0.0,0.0,0.0,0.0,0.0,0.0,0.0,0.0,0.0,0.0,0.0,0.0,0.0,0.0,0.0,0.0,0.0,0.0,0.0,0.0,0.0,0.0,0.0,0.0,0.0,0.0,0.0,0.0,0.0,0.0,0.0,0.0,0.0,0.0,0.0,0.0,-1.0316,-1.0638,-1.0357,0.0,0.0,0.0,0.0,-1.0864,-1.0992,0.0,0.0,0.0,0.0,0.0,0.0,0.0,0.0,0.0,0.0,0.0,0.0,0.0,0.0,0.0,0.0,0.0,0.0,0.0,0.0,0.0,0.0,0.0,0.0,0.0,0.0,0.0,0.0,0.0,0.0,0.0,0.0,0.0,0.0,0.0,0.0,0.0,0.0,0.0,0.0,0.0,0.0,0.0,0.0,0.0,0.0,0.0,0.0,0.0,0.0,0.0,0.0,0.0,0.0,0.0,0.0,-1.2459,-1.332,-1.4298,-1.5338,-1.5389,-1.5389,-1.5374,-1.4209,-1.3228,0.0,0.0,0.0,0.0,0.0,0.0,0.0,0.0,0.0,0.0,0.0,0.0,0.0,0.0,0.0,0.0,0.0,0.0,0.0,0.0,0.0,0.0,0.0,0.0,0.0,0.0,0.0,0.0,0.0,0.0,0.0,0.0,0.0,0.0,0.0,0.0,0.0,0.0,0.0,0.0,0.0,-1.0674,-1.1004,-1.09,-1.0819,0.0,0.0,-1.0835,-1.1497,-1.1398,0.0,0.0,0.0,0.0,0.0,0.0,0.0,0.0,0.0,0.0,0.0,0.0,0.0,0.0,0.0,0.0,0.0,0.0,0.0,0.0,0.0,0.0,0.0,0.0,0.0,0.0,0.0,0.0,0.0,0.0,0.0,0.0,0.0,0.0,0.0,0.0,0.0,0.0,0.0,0.0,0.0,0.0,0.0,0.0,0.0,0.0,0.0,0.0,0.0,0.0,0.0,0.0,0.0,0.0,0.0,-1.0833,-1.2684,-1.3679,-1.4554,-1.5352,-1.5389,-1.5389,-1.5389,-1.4348,-1.3382,0.0,0.0,0.0,0.0,0.0,0.0,0.0,0.0,0.0,0.0,0.0,0.0,0.0,0.0,0.0,0.0,0.0,0.0,0.0,0.0,0.0,0.0,0.0,0.0,0.0,0.0,0.0,0.0,0.0,0.0,0.0,0.0,0.0,0.0,0.0,0.0,0.0,0.0,0.0,0.0,0.0,0.0,-1.1545,-1.1652,0.0,0.0,0.0,-1.1711,-1.1986,0.0,0.0,0.0,0.0,0.0,0.0,0.0,0.0,0.0,0.0,0.0,0.0,0.0,0.0,0.0,0.0,0.0,0.0,0.0,0.0,0.0,0.0,0.0,0.0,0.0,0.0,0.0,0.0,0.0,0.0,0.0,0.0,0.0,0.0,0.0,0.0,0.0,0.0,0.0,0.0,0.0,0.0,0.0,0.0,0.0,0.0,0.0,0.0,0.0,0.0,0.0,0.0,0.0,0.0,0.0,0.0,0.0,-1.2934,-1.4054,-1.486,-1.5409,-1.5389,-1.5389,-1.5374,-1.4487,0.0,0.0,0.0,0.0,0.0,0.0,0.0,0.0,0.0,0.0,0.0,0.0,0.0,0.0,0.0,0.0,0.0,0.0,0.0,0.0,0.0,0.0,0.0,0.0,0.0,0.0,0.0,-0.5579,0.0,0.0,0.0,0.0,0.0,0.0,0.0,0.0,0.0,0.0,0.0,0.0,0.0,0.0,-1.1553,-1.2156,-1.2461,-1.2537,0.0,0.0,-1.2689,-1.2609,-1.2655,-1.2597,0.0,0.0,0.0,0.0,0.0,0.0,0.0,0.0,0.0,0.0,0.0,0.0,0.0,0.0,0.0,0.0,0.0,0.0,0.0,0.0,0.0,0.0,0.0,0.0,0.0,0.0,0.0,0.0,0.0,0.0,0.0,0.0,0.0,0.0,0.0,0.0,0.0,0.0,0.0,0.0,0.0,0.0,0.0,0.0,0.0,0.0,0.0,0.0,0.0,0.0,0.0,0.0,0.0,0.0,-1.171,-1.339,-1.4382,-1.5039,-1.5374,-1.5389,-1.5389,-1.5416,-1.4487,-1.3528,0.0,0.0,0.0,0.0,0.0,0.0,0.0,0.0,0.0,0.0,0.0,0.0,0.0,0.0,0.0,0.0,0.0,0.0,0.0,0.0,0.0,0.0,0.0,0.0,0.0,0.0,0.0,0.0,0.0,0.0,0.0,0.0,0.0,0.0,0.0,0.0,0.0,0.0,0.0,0.0,0.0,-1.2171,-1.2855,-1.3221,-1.3528,0.0,-1.3872,-1.3784,-1.347,-1.4079,-1.4115,-1.2688,0.0,0.0,0.0,0.0,0.0,0.0,0.0,0.0,0.0,0.0,0.0,0.0,0.0,0.0,0.0,0.0,0.0,0.0,0.0,0.0,0.0,0.0,0.0,0.0,0.0,0.0,0.0,0.0,0.0,0.0,0.0,0.0,0.0,0.0,0.0,0.0,0.0,0.0,0.0,0.0,0.0,0.0,0.0,0.0,0.0,0.0,0.0,0.0,0.0,0.0,0.0,0.0,0.0,-1.1945,-1.3777,-1.471,-1.5489,-1.5972,-1.5826,-1.5688,-1.5688,-1.4787,-1.3821,0.0,0.0,0.0,0.0,0.0,0.0,0.0,0.0,0.0,0.0,0.0,0.0,0.0,0.0,0.0,0.0,0.0,0.0,0.0,0.0,0.0,0.0,0.0,0.0,0.0,0.0,0.0,0.0,-0.8282,-0.8714,-0.8535,0.0,0.0,0.0,0.0,0.0,0.0,0.0,0.0,0.0,0.0,-1.3097,-1.355,-1.4055,0.0,0.0,-1.4318,-1.4496,-1.4319,-1.4486,-1.4512,-1.4205,-1.4023,0.0,0.0,0.0,0.0,0.0,0.0,0.0,0.0,0.0,0.0,0.0,0.0,0.0,0.0,0.0,0.0,0.0,0.0,0.0,0.0,0.0,0.0,0.0,0.0,0.0,0.0,0.0,0.0,0.0,0.0,0.0,0.0,0.0,0.0,0.0,0.0,0.0,0.0,0.0,0.0,0.0,0.0,0.0,0.0,0.0,0.0,0.0,0.0,0.0,0.0,0.0,0.0,-1.2226,-1.4005,-1.5028,-1.5833,-1.6397,-1.6162,-1.6001,-1.5906,-1.516,-1.4253,0.0,0.0,0.0,0.0,0.0,0.0,0.0,0.0,0.0,0.0,0.0,0.0,0.0,0.0,0.0,0.0,0.0,0.0,0.0,0.0,0.0,0.0,0.0,0.0,0.0,0.0,0.0,0.0,-0.8913,-0.8982,-0.8845,0.0,0.0,0.0,0.0,0.0,0.0,0.0,0.0,0.0,0.0,-1.4084,-1.4619,-1.5021,-1.5194,-1.4823,-1.5053,-1.5212,-1.5145,-1.5204,-1.5383,-1.5616,0.0,0.0,0.0,0.0,0.0,0.0,0.0,0.0,0.0,0.0,0.0,0.0,0.0,0.0,0.0,0.0,0.0,0.0,0.0,0.0,0.0,0.0,0.0,0.0,0.0,0.0,0.0,-0.8732,0.0,0.0,-0.7663,0.0,0.0,0.0,0.0,0.0,0.0,0.0,0.0,0.0,0.0,0.0,0.0,0.0,0.0,0.0,0.0,0.0,0.0,0.0,0.0,0.0,0.0,-1.2665,-1.3975,-1.5262,-1.606,-1.6419,-1.6411,-1.6228,-1.5943,-1.5542,-1.4754,-1.3499,0.0,0.0,0.0,0.0,0.0,0.0,0.0,0.0,0.0,0.0,0.0,0.0,0.0,0.0,0.0,0.0,0.0,0.0,0.0,0.0,0.0,0.0,0.0,0.0,0.0,0.0,-0.8773,-0.8936,-0.8921,0.0,0.0,0.0,0.0,0.0,0.0,0.0,0.0,0.0,-1.3323,-1.4304,-1.5186,-1.6092,-1.6204,-1.6239,-1.6487,-1.6286,-1.6047,-1.591,-1.6507,-1.6961,0.0,0.0,0.0,0.0,0.0,0.0,0.0,0.0,0.0,0.0,0.0,0.0,0.0,0.0,0.0,0.0,0.0,0.0,0.0,0.0,0.0,0.0,0.0,0.0,0.0,0.0,0.0,-1.1589,-1.1521,0.0,0.0,0.0,0.0,0.0,0.0,0.0,0.0,0.0,0.0,0.0,-1.5428,-1.5471,0.0,0.0,0.0,0.0,0.0,0.0,0.0,0.0,0.0,0.0,0.0,0.0,-1.3281,-1.4771,-1.5749,-1.6477,-1.6982,-1.6844,-1.669,-1.658,-1.5939,-1.4801,-1.3165,0.0,0.0,0.0,0.0,0.0,0.0,0.0,0.0,0.0,0.0,0.0,0.0,0.0,0.0,0.0,0.0,0.0,0.0,0.0,0.0,0.0,0.0,0.0,0.0,0.0,-0.9322,0.0,0.0,0.0,0.0,0.0,0.0,0.0,0.0,0.0,0.0,-1.2241,-1.3323,-1.4611,-1.5597,-1.6324,-1.6751,-1.7138,-1.7288,0.0,0.0,0.0,0.0,0.0,0.0,0.0,0.0,0.0,0.0,0.0,0.0,0.0,0.0,-1.8261,-1.716,-1.6637,-1.6298,-1.6134,0.0,0.0,0.0,0.0,0.0,0.0,0.0,0.0,0.0,0.0,0.0,0.0,0.0,0.0,-1.4057,-1.3975,-1.3448,0.0,0.0,0.0,0.0,0.0,0.0,0.0,0.0,-1.6759,-1.7544,-1.7981,-1.8068,-1.8106,-1.8071,-1.7599,-1.6156,0.0,0.0,0.0,0.0,0.0,0.0,0.0,0.0,-1.4081,-1.5471,-1.6218,-1.6973,-1.7794,-1.762,-1.769,-1.786,-1.712,-1.5991,-1.4547,-1.3965,-1.2985,0.0,0.0,0.0,0.0,0.0,0.0,0.0,0.0,0.0,0.0,0.0,0.0,0.0,0.0,0.0,0.0,0.0,0.0,0.0,0.0,0.0,0.0,0.0,-1.0054,0.0,0.0,0.0,0.0,0.0,0.0,0.0,0.0,0.0,-1.2562,-1.3557,-1.4678,-1.5613,-1.6396,-1.7033,-1.7497,0.0,0.0,0.0,0.0,0.0,0.0,0.0,-1.9486,-1.9988,-2.0439,-2.0959,-2.1662,-2.1939,-2.2069,-2.2155,0.0,0.0,-1.9411,-1.8716,-1.8447,-1.8411,-1.8421,-1.8497,-1.8764,-1.904,-1.925,0.0,0.0,0.0,0.0,-1.4879,0.0,0.0,0.0,-1.6572,-1.6316,0.0,-1.5576,0.0,0.0,0.0,0.0,-1.4192,-1.6332,0.0,0.0,-1.9756,-2.018,-1.9348,-1.9513,-1.9555,-1.956,-1.9617,-1.939,-1.8795,-1.5776,0.0,0.0,0.0,0.0,0.0,0.0,-1.5157,-1.6275,-1.6815,-1.7637,-1.8818,-1.8872,-1.9159,-1.9763,-1.8996,-1.825,-1.7585,-1.6982,-1.6018,-1.4454,-1.3283,0.0,0.0,0.0,0.0,0.0,0.0,0.0,0.0,0.0,0.0,0.0,0.0,0.0,0.0,0.0,0.0,0.0,0.0,0.0,0.0,-0.9998,0.0,0.0,0.0,0.0,0.0,0.0,0.0,0.0,0.0,-1.4516,-1.3896,-1.4976,-1.5998,-1.6441,0.0,0.0,0.0,0.0,-1.8831,-1.9894,-1.9964,-2.0008,-2.0228,-2.0838,-2.1355,-2.1541,0.0,0.0,-2.3773,-2.3712,-2.3622,-2.3793,-2.4102,-2.3635,-2.1174,-2.0459,-2.0173,-2.0154,-2.0173,-2.0154,-2.0173,-2.0346,-2.0402,-2.0231,0.0,0.0,0.0,0.0,-1.8403,-1.9335,-2.0685,-2.0625,-2.037,-2.0024,-1.9448,0.0,0.0,0.0,0.0,0.0,0.0,-1.9791,-2.0973,-2.1973,-2.2602,-2.2898,-2.2961,-2.2961,-2.2977,-2.2419,-2.1893,-2.139,-1.9899,-1.7827,-1.5382,0.0,0.0,0.0,0.0,-1.7821,-1.901,-1.9332,-1.9713,-2.0305,-2.0305,-2.0365,-2.0525,-2.0272,-1.985,-1.9176,-1.8586,-1.7787,-1.6686,-1.5263,0.0,0.0,0.0,0.0,0.0,0.0,0.0,0.0,0.0,0.0,0.0,0.0,0.0,0.0,0.0,0.0,0.0,0.0,0.0,-1.0229,-1.0859,-1.1193,0.0,0.0,0.0,0.0,0.0,0.0,0.0,0.0,0.0,-1.7615,-1.7303,-1.7401,0.0,0.0,-1.9495,-1.9972,-2.0712,-2.1202,-2.1336,-2.1779,0.0,-2.1746,-2.2308,-2.2824,-2.3024,-2.3911,-2.4614,-2.4697,-2.4923,-2.4983,-2.4756,-2.4795,-2.4524,-2.3596,-2.2979,-2.2698,-2.2679,-2.2679,-2.2795,-2.3057,-2.3124,-2.3134,-2.3633,-2.2353,-2.095,-2.062,-2.1074,-2.1065,-2.1889,-2.313,-2.2958,-2.2713,-2.2387,-2.2155,-2.1047,-1.9313,-1.8802,0.0,0.0,0.0,-2.1772,-2.3149,-2.3499,-2.3932,-2.4414,-2.4424,-2.4424,-2.4394,-2.3896,-2.358,-2.3403,-2.2631,-2.1387,-1.96,0.0,-1.7815,-1.8388,-1.8951,-1.9661,-2.055,-2.0621,-2.0926,-2.148,-2.1845,-2.2042,-2.1991,-2.1916,-2.1669,-2.1288,-2.0836,-2.0158,-1.9194,-1.7837,-1.6225,0.0,0.0,0.0,0.0,0.0,0.0,0.0,0.0,0.0,0.0,0.0,-0.8318,-0.8459,0.0,0.0,0.0,-0.9936,-1.0783,-1.1676,-1.1966,0.0,0.0,0.0,0.0,0.0,0.0,0.0,-1.6511,-1.7453,-1.8669,-2.0176,-1.9672,-1.9438,-2.0119,-2.0184,-2.0474,-2.1388,0.0,-2.2506,-2.2697,-2.3171,-2.3418,-2.3171,-2.369,-2.4241,-2.4469,-2.4956,-2.5322,-2.5342,-2.5566,-2.5577,-2.541,-2.5332,-2.5254,-2.499,-2.4727,-2.4424,-2.4111,-2.4043,-2.4131,-2.4375,-2.4424,-2.4424,-2.6074,-2.621,-2.3679,-2.2943,-2.3429,-2.34,-2.383,-2.4436,-2.4111,-2.3845,-2.3635,-2.3796,-2.3127,-2.1819,-2.1324,0.0,-2.2805,-2.277,-2.3416,-2.4512,-2.4521,-2.4512,-2.4512,-2.4531,-2.4521,-2.4485,-2.4482,-2.4565,-2.4776,-2.4234,-2.4073,-2.4207,-2.1979,-2.0712,-2.0535,-2.0727,-2.0996,-2.1376,-2.1245,-2.1658,-2.258,-2.343,-2.3884,-2.3831,-2.3661,-2.3563,-2.3512,-2.3299,-2.2701,-2.1632,-2.0575,-1.8942,-1.6695,0.0,0.0,0.0,0.0,0.0,0.0,0.0,0.0,0.0,0.0,0.0,0.0,0.0,0.0,-1.1077,-1.1514,0.0,-1.3204,-1.3315,0.0,0.0,0.0,-1.5397,-1.6681,-1.7207,-1.7826,-1.8796,0.0,0.0,-2.1861,-2.1848,-2.181,-2.2256,-2.1151,-2.0878,-2.2618,-2.2892,-2.3134,-2.3962,-2.4268,-2.443,-2.4382,-2.4841,-2.5305,-2.5557,-2.5684,-2.5664,-2.5664,-2.5664,-2.5684,-2.5654,-2.5674,-2.5664,-2.5674,-2.5606,-2.543,-2.4668,-2.4495,-2.4531,-2.459,-2.459,-2.4609,-2.6768,-2.6826,-2.615,-2.577,-2.5596,-2.5266,-2.5236,-2.5372,-2.5274,-2.504,-2.4719,-2.4766,-2.4417,-2.3728,-2.3586,-2.3873,-2.4516,-2.4516,-2.4808,-2.5362,-2.5372,-2.5372,-2.5372,-2.5372,-2.5382,-2.5352,-2.5068,-2.4959,-2.4987,-2.4723,-2.4744,-2.4942,-2.4583,-2.3934,-2.3038,-2.2866,-2.31,-2.366,-2.3674,-2.3777,-2.4013,-2.4229,-2.4325,-2.4315,-2.4308,-2.4134,-2.3794,-2.3432,-2.2925,-2.2267,-2.1241,-2.0078,-1.889,-1.698,0.0,0.0,0.0,0.0,0.0,0.0,0.0,0.0,0.0,-1.1147,-1.1378,0.0,-1.3018,0.0,-1.3235,-1.3716,-1.408,-1.4917,0.0,0.0,-1.6911,-1.7556,-1.789,-1.8494,-1.9066,-1.9558,-1.9875,-2.0884,-2.3058,-2.2505,-2.2927,-2.5295,-2.4339,-2.3608,-2.4057,-2.4416,-2.4715,-2.4946,-2.5169,-2.5392,-2.5334,-2.547,-2.5586,-2.5684,-2.5684,-2.5684,-2.5684,-2.5684,-2.5684,-2.5684,-2.5684,-2.5684,-2.5684,-2.5684,-2.5625,-2.5421,-2.5372,-2.5382,-2.5372,-2.5362,-2.5362,-2.7129,-2.7285,-2.71,-2.6992,-2.6975,-2.6494,-2.6259,-2.6259,-2.6259,-2.6162,-2.5937,-2.5977,-2.5801,-2.5576,-2.5576,-2.5605,-2.5703,-2.5654,-2.5684,-2.5684,-2.5684,-2.5684,-2.5684,-2.5684,-2.5684,-2.5674,-2.5488,-2.5409,-2.5523,-2.5449,-2.5518,-2.5762,-2.571,-2.5447,-2.495,-2.4679,-2.4751,-2.513,-2.49,-2.4704,-2.4507,-2.4507,-2.4507,-2.4497,-2.4311,-2.4136,-2.3919,-2.3443,-2.2977,-2.2511,-2.1937,-2.1116,-1.9994,-1.8744,-1.741,0.0,0.0,0.0,0.0,0.0,0.0,0.0,0.0,0.0,0.0,0.0,-1.4996,-1.5092,-1.532,-1.5681,-1.6246,-1.7237,-1.7884,-1.7902,-1.8811,-1.9366,-1.924,-2.0005,-2.0678,-2.1024,-2.1528,-2.2568,-2.4307,-2.398,-2.4365,-2.6774,-2.6197,-2.5548,-2.5596,-2.5761,-2.5771,-2.5674,-2.5771,-2.583,-2.5732,-2.5684,-2.5684,-2.5684,-2.5684,-2.5684,-2.5684,-2.5684,-2.5684,-2.5684,-2.5684,-2.5684,-2.5684,-2.5684,-2.5684,-2.5684,-2.5684,-2.5684,-2.5684,-2.5684,-2.5684,-2.7402,-2.7705,-2.7334,-2.7393,-2.7767,-2.7334,-2.7119,-2.7012,-2.7012,-2.7012,-2.7012,-2.7012,-2.7012,-2.7012,-2.7012,-2.6816,-2.6475,-2.6475,-2.6269,-2.5859,-2.5849,-2.5849,-2.5849,-2.5801,-2.5771,-2.5771,-2.5723,-2.583,-2.61,-2.6149,-2.6294,-2.6534,-2.6151,-2.6101,-2.6335,-2.6166,-2.5999,-2.592,-2.5451,-2.4993,-2.459,-2.4528,-2.4507,-2.4487,-2.4167,-2.3898,-2.3826,-2.3391,-2.2946,-2.2439,-2.2418,-2.1859,-2.0633,-2.012,-1.9145,0.0,-1.7195,0.0,0.0,0.0,0.0,0.0,0.0,0.0,0.0,-1.7264,-1.7291,-1.781,-1.7781,-1.8136,-1.899,-1.9896,-2.0257,-2.0023,-2.0826,-2.1266,-2.1023,-2.1844,-2.2544,-2.2831,-2.3503,-2.4442,-2.5634,-2.5683,-2.6025,-2.7239,-2.727,-2.7097,-2.7074,-2.6742,-2.6352,-2.6197,-2.6189,-2.6122,-2.582,-2.5742,-2.581,-2.5762,-2.5781,-2.5781,-2.583,-2.583,-2.5781,-2.5781,-2.5771,-2.5732,-2.5684,-2.5684,-2.5684,-2.5684,-2.5684,-2.5684,-2.5684,-2.5684,-2.5684,-2.8105,-2.8164,-2.8086,-2.8096,-2.8174,-2.8086,-2.7656,-2.7012,-2.7012,-2.7012,-2.7012,-2.7012,-2.7012,-2.7012,-2.7012,-2.6973,-2.6894,-2.6894,-2.6855,-2.6777,-2.6768,-2.6777,-2.6748,-2.6416,-2.626,-2.624,-2.5908,-2.582,-2.61,-2.6294,-2.6544,-2.6794,-2.6952,-2.7032,-2.709,0.0,0.0,0.0,-2.5451,-2.5137,-2.5044,-2.4693,-2.4507,-2.4497,-2.4414,0.0,-2.336,-2.3236,-2.2801,-2.1994,-2.1932,0.0,0.0,0.0,0.0,0.0,0.0,0.0,0.0,0.0,0.0,0.0,-2.1253,-2.0994,-1.985,-2.0504,-2.0974,-2.0963,-2.1385,-2.1713,-2.1762,-2.2462,-2.2899,-2.288,-2.3546,-2.4049,-2.402,-2.4503,-2.4851,-2.4905,-2.5078,-2.5582,-2.6538,-2.6728,-2.7112,-2.8099,-2.8309,-2.827,-2.8239,-2.7301,-2.6526,-2.642,-2.6623,-2.6448,-2.5791,-2.6055,-2.6291,-2.6074,-2.6014,-2.613,-2.6354,-2.6344,-2.6265,-2.614,-2.6004,-2.5985,-2.5752,-2.5684,-2.5781,-2.5693,-2.5703,-2.5684,-2.5684,-2.5684,-2.5684,-2.8926,-2.8926,-2.8926,-2.8926,0.0,-2.8691,-2.835,-2.7949,-2.7734,-2.7646,-2.7646,-2.7646,-2.7646,-2.7646,-2.7646,-2.7529,-2.7334,-2.7334,-2.7226,-2.7012,-2.7012,-2.7012,-2.7002,-2.6797,-2.6699,-2.668,-2.626,-2.6104,-2.6232,-2.6171,-2.6207,-2.6506,-2.663,-2.6822,-2.7129,-2.7214,-2.6957,-2.6227,-2.5999,-2.5678,-2.5199,-2.4952,-2.4735,-2.4507,-2.429,0.0,0.0,0.0,0.0,0.0,0.0,0.0,0.0,0.0,0.0,-2.2118,-2.1845,-2.1786,-2.2033,-2.2581,-2.3033,-2.3398,-2.4242,-2.3924,-2.1899,-2.2689,-2.3115,-2.2728,-2.3196,-2.3587,-2.3666,-2.4613,-2.5088,-2.4659,-2.5355,-2.572,-2.5331,-2.5797,-2.6237,-2.6298,-2.6708,-2.7227,-2.7693,-2.7794,-2.7995,-2.8507,-2.8618,-2.8628,-2.8526,-2.7988,-2.7494,-2.7386,-2.7321,-2.7212,-2.6894,-2.6933,-2.7092,-2.7013,-2.7002,-2.7051,-2.716,-2.7209,-2.716,-2.7002,-2.7002,-2.6913,-2.6606,-2.6546,-2.6497,-2.6367,-2.6317,-2.6377,-2.6348,-2.5996,-2.5684,-2.958,-2.958,-2.958,-2.958,-2.9541,-2.9189,-2.9043,-2.8994,-2.8506,0.0,0.0,-2.8301,-2.8301,-2.8301,-2.8301,-2.8105,-2.7836,-2.7826,-2.7578,-2.7236,-2.7246,-2.7236,-2.7236,-2.7168,-2.7129,-2.7109,-2.6699,-2.6544,-2.6584,-2.6182,-2.6104,-2.6268,-2.6307,-2.6567,-2.6938,-2.7177,-2.7123,-2.675,-2.6656,-2.6206,-2.5447,-2.5344,-2.5086,-2.4631,-2.4312,-2.4043,-2.3877,-2.3556,-2.3318,-2.3308,-2.3349,-2.335,-2.3422,-2.3422,-2.3463,-2.3557,-2.3908,-2.4146,-2.424,-2.4654,-2.5055,-2.5564,-2.6279,-2.5915,-2.3962,-2.4523,-2.4842,-2.4391,-2.4692,-2.5109,-2.5424,-2.6536,-2.6963,-2.6144,-2.6878,-2.708,-2.6361,-2.6953,-2.7564,-2.7617,-2.8279,-2.8856,-2.8847,-2.8857,-2.8866,-2.8866,-2.8938,-2.8856,-2.8835,-2.865,-2.8375,-2.8115,-2.8026,-2.8036,-2.7905,-2.7905,-2.7975,-2.7885,-2.7875,-2.7986,-2.8036,-2.7986,-2.7935,-2.7844,-2.7875,-2.7632,-2.744,-2.7279,-2.7257,-2.7053,-2.7012,-2.7012,-2.6953,-2.6425,-2.5947,-2.9636,-2.958,-2.958,-2.958,-2.9616,-2.9567,-2.9473,-2.9414,-2.8643,-2.8301,-2.8301,-2.8301,-2.8301,-2.8301,-2.8301,-2.8262,-2.8203,-2.8203,-2.8174,-2.8115,-2.8115,-2.8115,-2.8096,-2.7744,-2.763,-2.7539,-2.7139,-2.7025,-2.7249,-2.719,-2.7122,-2.6991,-2.7158,-2.7268,-2.7256,-2.7262,-2.7278,-2.7206,-2.6812,-2.6553,-2.6428,-2.5989,-2.5575,-2.5117,-2.5024,-2.4664,-2.3908,-2.3867,-2.3826,-2.3784,-2.3784,-2.395,-2.428,-2.4311,-2.4487,-2.4869,-2.4962,-2.5213,-2.5575,-2.603,-2.6486,-2.6967,-2.7143,-2.6884,-2.6213,-2.6609,-2.7003,-2.7229,-2.7293,-2.7555,-2.8043,-2.8236,-2.8318,-2.8218,-2.8615,-2.8891,-2.8686,-2.9157,-2.9413,-2.9413,-2.9693,-2.9766,-2.9715,-2.9746,-2.9715,-2.9766,-2.9653,-2.9756,-2.9601,-2.9114,-2.8559,-2.8308,-2.8503,-2.8472,-2.8208,-2.8227,-2.838,-2.8147,-2.8207,-2.8319,-2.8531,-2.839,-2.8289,-2.8187,-2.7955,-2.7621,-2.7459,-2.7206,-2.7192,-2.7119,-2.7119,-2.709,-2.7109,-2.6924,-2.6709,-3.0283,-3.0283,-3.0283,-3.0293,-3.0273,-3.0019,-2.9775,-2.9597,-2.916,-2.8848,-2.8643,-2.8643,-2.8506,-2.8301,-2.8301,-2.8301,-2.8301,-2.8301,-2.8301,-2.8301,-2.8301,-2.8301,-2.8271,-2.8139,-2.7998,-2.7978,-2.7568,-2.7467,-2.754,-2.7324,-2.7199,-2.7242,-2.7429,-2.7539,-2.7624,-2.7386,-2.732,-2.7299,-2.7102,-2.6874,-2.6615,-2.6407,-2.6041,-2.5606,-2.5585,-2.5409,-2.5028,-2.4954,-2.4964,-2.4964,-2.5008,-2.5101,-2.5254,-2.5264,-2.5471,-2.5916,-2.5958,-2.6154,-2.6599,-2.6874,-2.7081,-2.7289,-2.7489,-2.7531,-2.7324,-2.75,-2.7707,-2.7924,-2.8359,-2.8752,-2.898,-2.9218,-2.9363,-2.9363,-2.957,-2.9673,-2.9694,-2.9849,-2.9994,-2.9994,-2.9994,-2.9994,-2.9994,-2.9994,-2.9994,-2.9994,-2.9994,-2.9994,-2.9994,-2.9653,-2.9301,-2.923,-2.9343,-2.9384,-2.9106,-2.9167,-2.9259,-2.9168,-2.9199,-2.9199,-2.9363,-2.9209,-2.9096,-2.8993,-2.8715,-2.8476,-2.8207,-2.8028,-2.7872,-2.7705,-2.7705,-2.7715,-2.7695,-2.7539,-2.7217,-3.0898,-3.0898,-3.0898,-3.0898,-3.0859,-3.0508,-3.0166,-2.9939,-2.9863,-2.9619,-2.9228,-2.9111,-2.8877,-2.8603,-2.8574,-2.8584,-2.8564,-2.8476,-2.8428,-2.8428,-2.834,-2.8301,-2.8301,-2.8301,-2.8301,-2.8262,-2.7959,-2.7803,-2.7816,-2.7461,-2.7349,-2.7518,-2.7472,-2.7657,-2.7932,-2.7641,-2.7462,-2.7465,-2.7455,-2.7189,-2.6791,-2.677,-2.6553,-2.6117,-2.6041,-2.5989,-2.593,-2.593,-2.5972,-2.602,-2.6076,-2.6117,-2.6185,-2.6231,-2.6397,-2.6729,-2.677,-2.6967,-2.7413,-2.7558,-2.761,-2.762,-2.7872,-2.8079,-2.809,-2.8183,-2.8235,-2.8317,-2.8876,-2.9311,-2.9466,-2.9756,-2.9994,-2.9994,-2.9994,-2.9973,-2.9994,-2.9994,-2.9994,-2.9994,-2.9994,-2.9994,-2.9994,-2.9994,-2.9994,-2.9994,-2.9994,-2.9994,-2.9994,-2.9994,-2.9994,-2.9994,-2.9994,-2.9963,-2.9994,-2.9973,-2.9963,-2.9994,-2.9963,-2.9911,-2.9922,-2.9911,-2.9869,-2.9587,-2.946,-2.9114,-2.8804,-2.8644,-2.8455,-2.8256,-2.8193,-2.8242,-2.8203,-2.8008,-2.7666,-3.0898,-3.0898,-3.0898,-3.0898,-3.0889,-3.083,-3.0781,-3.0742,-3.0762,-3.0508,-3.0039,-2.9678,-2.9492,-2.9453,-2.9424,-2.947,-2.9375,-2.9043,-2.8857,-2.8809,-2.8467,-2.8301,-2.832,-2.831,-2.8301,-2.8291,-2.8232,-2.8203,-2.8203,-2.8164,-2.8065,-2.79,-2.7609,-2.7703,-2.8106,-2.8115,-2.8039,-2.7824,-2.7862,-2.7645,-2.7268,-2.7237,-2.7029,-2.6517,-2.6553,-2.6356,-2.6003,-2.593,-2.6117,-2.6511,-2.6553,-2.6739,-2.7102,-2.7164,-2.7195,-2.7237,-2.7258,-2.7386,-2.7831,-2.8255,-2.8452,-2.8483,-2.8504,-2.8545,-2.8576,-2.8928,-2.9166,-2.9177,-2.9249,-2.9508,-2.987,-2.9984,-3.0046,-3.0067,-3.0077,-2.9994,-3.0067,-2.9994,-2.9994,-2.9994,-3.0108,-3.0005,-3.0098,-3.0118,-3.0067,-3.0139,-3.0108,-3.0077,-3.0067,-3.0015,-2.9994,-2.9994,-2.9994,-2.9994,-2.9994,-2.9994,-2.9994,-2.9994,-2.9994,-2.9994,-2.9994,-2.9827,-2.9659,-2.9669,-2.9311,-2.894,-2.8877,-2.8717,-2.8344,-2.8301,-2.8301,-2.8301,-2.8291,-2.8232,-2.8018,-3.0898,-3.0898,-3.0898,-3.0898,-3.0898,-3.0898,-3.0898,-3.0898,-3.0898,-3.0781,-3.0605,-3.042,-3.0068,-2.958,-2.958,-2.958,-2.956,-2.9385,-2.9297,-2.9287,-2.9121,-2.8906,-2.8682,-2.8662,-2.8545,-2.831,-2.8301,-2.8301,-2.8301,-2.8301,-2.831,-2.8377,-2.7972,-2.795,-2.836,-2.8107,-2.7985,-2.8051,-2.8101,-2.8048,-2.8017,-2.7531,-2.7216,-2.705,-2.7019,-2.6946,-2.677,-2.6739,-2.6822,-2.7009,-2.7029,-2.7112,-2.7299,-2.751,-2.7645,-2.7665,-2.7914,-2.8131,-2.8317,-2.8504,-2.8618,-2.8618,-2.8866,-2.9032,-2.9042,-2.9446,-2.9715,-2.9715,-2.9715,-2.9798,-2.9994,-3.0243,-3.0408,-3.0439,-3.0646,-3.0801,-3.0822,-3.0801,-3.0812,-3.0812,-3.0812,-3.0801,-3.0801,-3.0812,-3.0812,-3.077,-3.0605,-3.0408,-3.0398,-3.017,-3.0005,-2.9994,-2.9994,-2.9994,-2.9994,-2.9994,-2.9994,-2.9994,-2.9994,-2.9994,-2.9994,-2.9942,-2.9774,-2.9564,-2.9142,-2.8824,-2.8611,-2.8504,-2.8301,-2.8301,-2.8301,-2.8301,-2.8301,-2.8301,-2.8193,-3.0898,-3.0898,-3.0898,-3.0898,-3.0898,-3.0898,-3.0898,-3.0898,-3.0898,-3.0898,-3.0898,-3.0898,-3.0547,-2.999,-2.9932,-2.9988,-2.9978,-2.9805,-2.9736,-2.9726,-2.9685,-2.9394,-2.9121,-2.9092,-2.8877,-2.8525,-2.8476,-2.8408,-2.831,-2.8301,-2.8408,-2.8509,-2.8252,-2.8252,-2.8483,-2.8276,-2.8218,-2.8381,-2.8472,-2.8561,-2.8485,-2.7976,-2.7634,-2.7672,-2.7683,-2.7634,-2.7683,-2.7672,-2.7624,-2.7683,-2.7672,-2.7683,-2.7693,-2.7935,-2.8072,-2.8152,-2.8556,-2.8804,-2.8804,-2.8918,-2.899,-2.9021,-2.9321,-2.9497,-2.9549,-2.9808,-3.0046,-3.0191,-3.018,-3.0191,-3.0222,-3.0605,-3.0853,-3.0895,-3.1195,-3.1425,-3.136,-3.1381,-3.135,-3.1381,-3.1288,-3.1381,-3.1371,-3.134,-3.1309,-3.1278,-3.1071,-3.0874,-3.0812,-3.0501,-3.0201,-3.018,-3.0098,-2.9994,-2.9994,-2.9994,-2.9994,-2.9994,-2.9994,-2.9994,-2.9994,-2.9942,-2.9889,-2.9501,-2.9185,-2.893,-2.8664,-2.8461,-2.8301,-2.8301,-2.8301,-2.8301,-2.8301,-2.8301,-2.8301,-3.0898,-3.0898,-3.0898,-3.0898,-3.0898,-3.0898,-3.0898,-3.0898,-3.0898,-3.0898,-3.0898,-3.0898,-3.0869,-3.0781,-3.0742,-3.081,-3.0752,-3.0351,-3.0176,-3.0137,-2.9795,-2.9626,-2.9597,-2.9587,-2.9307,-2.8916,-2.8896,-2.8701,-2.835,-2.831,-2.8291,-2.8291,-2.8295,-2.8412,-2.8658,-2.881,-2.8965,-2.887,-2.9024,-2.9033,-2.8711,-2.8597,-2.8556,-2.8556,-2.8535,-2.8483,-2.8504,-2.8535,-2.8524,-2.8535,-2.8493,-2.8514,-2.8535,-2.8566,-2.8587,-2.8659,-2.9032,-2.927,-2.9321,-2.9632,-2.986,-2.9891,-2.987,-2.9953,-2.9963,-3.0025,-3.0243,-3.0615,-3.0698,-3.0698,-3.0739,-3.1102,-3.1329,-3.135,-3.1391,-3.1454,-3.1422,-3.1526,-3.1402,-3.1443,-3.1505,-3.1536,-3.1454,-3.1381,-3.1474,-3.1474,-3.1391,-3.134,-3.1278,-3.0946,-3.0698,-3.0584,-3.0356,-3.0015,-3.0025,-2.9994,-2.9994,-2.9994,-2.9994,-2.9994,-2.9931,-2.9827,-2.9659,-2.9448,-2.9089,-2.8824,-2.8674,-2.8514,-2.8354,-2.8301,-2.8301,-2.8301,-2.8301,-2.8301,-2.8301,-3.0898,-3.0898,-3.0898,-3.0898,-3.0898,-3.0898,-3.0898,-3.0898,-3.0898,-3.0898,-3.0898,-3.0898,-3.0898,-3.0898,-3.0898,-3.0898,-3.0879,-3.0713,-3.0644,-3.0625,-3.0488,-3.0254,-2.998,-2.9971,-2.9746,-2.9385,-2.9336,-2.9111,-2.874,-2.8691,-2.8555,-2.833,-2.8301,-2.8344,-2.8451,-2.8558,-2.8734,-2.9025,-2.9162,-2.9289,-2.9436,-2.9497,-2.9497,-2.9466,-2.8907,-2.8618,-2.8618,-2.8618,-2.8618,-2.8618,-2.8618,-2.8618,-2.8638,-2.8897,-2.9197,-2.9466,-2.9653,-2.9746,-2.9766,-2.9891,-2.9994,-2.9994,-2.9994,-3.0139,-3.0367,-3.045,-3.0626,-3.105,-3.1412,-3.1536,-3.1567,-3.1712,-3.1805,-3.1836,-3.2054,-3.2209,-3.225,-3.225,-3.224,-3.225,-3.224,-3.224,-3.2188,-3.224,-3.225,-3.2219,-3.1992,-3.1826,-3.1733,-3.1422,-3.1122,-3.1112,-3.0998,-3.0884,-3.0884,-3.0315,-2.9994,-2.9994,-2.9994,-2.9994,-2.9931,-2.9827,-2.9722,-2.929,-2.893,-2.8717,-2.8611,-2.8461,-2.8301,-2.8301,-2.8301,-2.8301,-2.8301,-2.8301,-2.8301,-3.0898,-3.0898,-3.0898,-3.0898,-3.0898,-3.0898,-3.0898,-3.0898,-3.0898,-3.0898,-3.0898,-3.0898,-3.0898,-3.0898,-3.0898,-3.0898,-3.0898,-3.0889,-3.0898,-3.0898,-3.0898,-3.0723,-3.0469,-3.042,-3.0195,-2.9795,-2.9629,-2.9404,-2.9141,-2.8984,-2.8769,-2.8516,-2.8379,-2.8301,-2.8301,-2.8354,-2.8664,-2.9026,-2.9185,-2.9501,-2.9942,-2.9994,-2.9994,-2.9911,-2.9373,-2.9063,-2.9063,-2.9063,-2.9063,-2.9063,-2.9063,-2.9063,-2.9094,-2.9363,-2.9663,-2.9953,-2.9994,-2.9994,-2.9994,-2.9994,-3.0056,-3.0212,-3.0232,-3.0408,-3.0843,-3.0915,-3.1133,-3.1526,-3.1826,-3.2008,-3.2173,-3.2204,-3.2215,-3.2235,-3.2483,-3.2669,-3.2669,-3.2659,-3.2649,-3.2618,-3.2607,-3.2638,-3.2669,-3.2659,-3.2638,-3.2669,-3.238,-3.2225,-3.2153,-3.1888,-3.1588,-3.1567,-3.1422,-3.1319,-3.1247,-3.0833,-3.0429,-3.0377,-2.9909,-2.992,-2.9827,-2.9732,-2.9564,-2.9132,-2.8867,-2.8654,-2.8504,-2.8344,-2.8301,-2.8301,-2.8301,-2.8301,-2.8301,-2.8301,-2.8301,-3.0898,-3.0898,-3.0898,-3.0898,-3.0898,-3.0898,-3.0898,-3.0898,-3.0898,-3.0898,-3.0898,-3.0898,-3.0898,-3.0898,-3.0898,-3.0898,-3.0898,-3.0898,-3.0898,-3.0898,-3.0898,-3.0889,-3.083,-3.082,-3.0615,-3.0205,-2.9805,-2.9665,-2.9616,-2.9228,-2.9014,-2.8867,-2.8574,-2.8457,-2.835,-2.8666,-2.8874,-2.9182,-2.9436,-2.9722,-2.9952,-2.9994,-2.9994,-2.9994,-2.9922,-2.988,-2.9922,-2.9911,-2.988,-2.9901,-2.9911,-2.9973,-2.988,-2.9932,-2.9984,-2.9994,-3.0015,-3.0025,-3.0046,-3.0087,-3.0336,-3.0594,-3.0698,-3.0884,-3.1278,-3.1391,-3.1567,-3.1961,-3.2095,-3.2184,-3.2535,-3.2607,-3.2597,-3.2659,-3.2659,-3.2669,-3.2669,-3.2669,-3.2669,-3.2669,-3.2669,-3.2669,-3.2669,-3.2669,-3.2669,-3.2659,-3.2628,-3.2587,-3.2545,-3.2282,-3.2029,-3.1981,-3.1847,-3.1733,-3.1557,-3.1405,-3.1071,-3.0737,-3.0134,-2.9772,-2.9532,-2.9406,-2.9205,-2.8824,-2.8611,-2.8451,-2.8398,-2.8301,-2.8301,-2.8301,-2.8301,-2.8301,-2.8301,-2.8301,-2.8301,-3.0898,-3.0898,-3.0898,-3.0898,-3.0898,-3.0898,-3.0898,-3.0898,-3.0898,-3.0898,-3.0898,-3.0898,-3.0898,-3.0898,-3.0898,-3.0898,-3.0898,-3.0898,-3.0898,-3.0898,-3.0898,-3.0898,-3.0898,-3.0898,-3.082,-3.0684,-3.0547,-3.0303,-3.0019,-2.9844,-2.9668,-2.9385,-2.9238,-2.918,-2.9166,-2.9179,-2.9345,-2.9554,-2.9601,-2.9722,-2.9994,-2.9994,-2.9994,-2.9994,-2.9994,-2.9994,-2.9994,-2.9994,-2.9994,-2.9994,-2.9994,-2.9994,-3.0005,-2.9994,-2.9994,-3.0025,-3.0315,-3.047,-3.0512,-3.076,-3.0967,-3.1133,-3.1164,-3.1381,-3.1754,-3.1836,-3.2033,-3.237,-3.2463,-3.2545,-3.2638,-3.2669,-3.2669,-3.2669,-3.2669,-3.2669,-3.2669,-3.2669,-3.2669,-3.2669,-3.2669,-3.2669,-3.2669,-3.2669,-3.2669,-3.2669,-3.2669,-3.2669,-3.2638,-3.2545,-3.2473,-3.2432,-3.2323,-3.2178,-3.2085,-3.1888,-3.1533,-3.1062,-3.0383,-2.9619,-2.9338,-2.9126,-2.8903,-2.8674,-2.8461,-2.8354,-2.8301,-2.8301,-2.8301,-2.8301,-2.8301,-2.8301,-2.8301,-2.8301,-2.8301,-3.0898,-3.0898,-3.0898,-3.0898,-3.0898,-3.0898,-3.0898,-3.0898,-3.0898,-3.0898,-3.0898,-3.0898,-3.0898,-3.0898,-3.0898,-3.0898,-3.0898,-3.0898,-3.0898,-3.0898,-3.0898,-3.0898,-3.0898,-3.0898,-3.0898,-3.0898,-3.0889,-3.0742,-3.0459,-3.0273,-3.0068,-2.9834,-2.9648,-2.9616,-2.9616,-2.9492,-2.956,-2.9742,-2.9738,-2.979,-2.992,-2.9994,-2.9994,-2.9994,-2.9994,-2.9994,-2.9994,-2.9994,-2.9994,-3.0025,-3.0139,-3.0253,-3.0253,-3.0408,-3.0512,-3.0563,-3.075,-3.0946,-3.0977,-3.1184,-3.1464,-3.1578,-3.1629,-3.1826,-3.2122,-3.2246,-3.2401,-3.2607,-3.2659,-3.2669,-3.2669,-3.2669,-3.2669,-3.2669,-3.2669,-3.2669,-3.2669,-3.2669,-3.2669,-3.2669,-3.2669,-3.2669,-3.2669,-3.2669,-3.2669,-3.2669,-3.2669,-3.2669,-3.2669,-3.2669,-3.2669,-3.2669,-3.2576,-3.2525,-3.2654,-3.237,-3.1937,-3.1338,-3.0724,-2.9843,-2.9163,-2.9049,-2.8873,-2.8593,-2.8354,-2.8301,-2.8301,-2.8301,-2.8301,-2.8301,-2.8301,-2.8301,-2.8301,-2.8301,-2.8301,-3.0898,-3.0898,-3.0898,-3.0898,-3.0898,-3.0898,-3.0898,-3.0898,-3.0898,-3.0898,-3.0898,-3.0898,-3.0898,-3.0898,-3.0898,-3.0898,-3.0898,-3.0898,-3.0898,-3.0898,-3.0898,-3.0898,-3.0898,-3.0898,-3.0898,-3.0898,-3.0898,-3.0879,-3.0791,-3.0478,-3.0244,-3.0215,-2.9922,-2.9687,-2.9812,-2.9704,-2.9822,-2.9993,-2.99,-2.9896,-3.0035,-3.0005,-3.0036,-3.0067,-3.0087,-3.0129,-3.0212,-3.0222,-3.0118,-3.0077,-3.0387,-3.0615,-3.0739,-3.1112,-3.1332,-3.1257,-3.1425,-3.1412,-3.1412,-3.1547,-3.1712,-3.1988,-3.2039,-3.2194,-3.2525,-3.2587,-3.2597,-3.2669,-3.2669,-3.2669,-3.2669,-3.2669,-3.2669,-3.2669,-3.2669,-3.2669,-3.2669,-3.2669,-3.2669,-3.2669,-3.2669,-3.2669,-3.2669,-3.2669,-3.2669,-3.2669,-3.2669,-3.2669,-3.2669,-3.2669,-3.2669,-3.2669,-3.2669,-3.2669,-3.2659,-3.2493,-3.2107,-3.1569,-3.1,-3.0264,-2.9375,-2.9203,-2.8834,-2.8555,-2.8354,-2.8301,-2.8301,-2.8301,-2.8301,-2.8301,-2.8301,-2.8301,-2.8301,-2.8301,-2.8301,-3.0898,-3.0898,-3.0898,-3.0898,-3.0898,-3.0898,-3.0898,-3.0898,-3.0898,-3.0898,-3.0898,-3.0898,-3.0898,-3.0898,-3.0898,-3.0898,-3.0898,-3.0898,-3.0898,-3.0898,-3.0898,-3.0898,-3.0898,-3.0898,-3.0898,-3.0898,-3.0898,-3.0898,-3.0879,-3.0742,-3.0684,-3.0713,-3.0557,-3.0508,-3.0518,-3.0356,-3.0509,-3.0625,-3.0261,-3.0227,-3.0427,-3.017,-3.017,-3.0491,-3.0501,-3.0667,-3.0957,-3.1063,-3.0646,-3.0077,-3.0439,-3.0688,-3.0781,-3.1184,-3.1464,-3.1495,-3.1712,-3.1868,-3.193,-3.2157,-3.2406,-3.2463,-3.2442,-3.2535,-3.2638,-3.2669,-3.2669,-3.2669,-3.2669,-3.2669,-3.2669,-3.2669,-3.2669,-3.2669,-3.2669,-3.2669,-3.2669,-3.2669,-3.2669,-3.2669,-3.2669,-3.2669,-3.2669,-3.2669,-3.2669,-3.2669,-3.2669,-3.2669,-3.2669,-3.2669,-3.2669,-3.2669,-3.2669,-3.2669,-3.2612,-3.2487,-3.2199,-3.1691,-3.1273,-3.0884,-3.0093,-2.957,-2.9065,-2.8506,-2.8374,-2.8291,-2.8301,-2.8301,-2.8301,-2.8301,-2.8301,-2.8301,-2.8301,-2.8301,-2.8301,-3.0898,-3.0898,-3.0898,-3.0898,-3.0898,-3.0898,-3.0898,-3.0898,-3.0898,-3.0898,-3.0898,-3.0898,-3.0898,-3.0898,-3.0898,-3.0898,-3.0898,-3.0898,-3.0898,-3.0898,-3.0898,-3.0898,-3.0898,-3.0898,-3.0898,-3.0898,-3.0898,-3.0898,-3.0889,-3.0898,-3.0898,-3.0879,-3.0898,-3.0898,-3.084,-3.0828,-3.0839,-3.1017,-3.0747,-3.0666,-3.0688,-3.0636,-3.0584,-3.077,-3.0843,-3.1133,-3.135,-3.1371,-3.1091,-3.0781,-3.0998,-3.1257,-3.1298,-3.1692,-3.194,-3.1961,-3.2199,-3.2277,-3.2308,-3.2592,-3.2659,-3.2669,-3.2669,-3.2669,-3.2669,-3.2669,-3.2669,-3.2669,-3.2669,-3.2669,-3.2669,-3.2669,-3.2669,-3.2669,-3.2669,-3.2669,-3.2669,-3.2669,-3.2669,-3.2669,-3.2669,-3.2669,-3.2669,-3.2669,-3.2669,-3.2669,-3.2669,-3.2669,-3.2669,-3.2669,-3.2669,-3.2669,-3.2669,-3.2669,-3.2612,-3.243,-3.2248,-3.1828,-3.1329,-3.0994,-3.031,-2.9709,-2.9036,-2.8486,-2.8384,-2.8301,-2.8301,-2.8301,-2.8301,-2.8301,-2.8301,-2.8301,-2.8301,-2.8301,-2.8301,-3.0898,-3.0898,-3.0898,-3.0898,-3.0898,-3.0898,-3.0898,-3.0898,-3.0898,-3.0898,-3.0898,-3.0898,-3.0898,-3.0898,-3.0898,-3.0898,-3.0898,-3.0898,-3.0898,-3.0898,-3.0898,-3.0898,-3.0898,-3.0898,-3.0898,-3.0898,-3.0898,-3.0898,-3.0898,-3.0898,-3.0898,-3.0898,-3.0898,-3.0898,-3.0889,-3.0908,-3.1011,-3.1181,-3.1073,-3.1014,-3.1003,-3.1133,-3.1122,-3.1081,-3.1412,-3.1578,-3.1629,-3.1598,-3.1536,-3.1516,-3.1857,-3.1874,-3.1977,-3.239,-3.2597,-3.2633,-3.2566,-3.2607,-3.2649,-3.2638,-3.2669,-3.2669,-3.2669,-3.2669,-3.2669,-3.2669,-3.2669,-3.2669,-3.2669,-3.2669,-3.2669,-3.2669,-3.2669,-3.2669,-3.2669,-3.2669,-3.2669,-3.2669,-3.2669,-3.2669,-3.2669,-3.2669,-3.2669,-3.2669,-3.2669,-3.2669,-3.2669,-3.2669,-3.2669,-3.2669,-3.2669,-3.2669,-3.2669,-3.2669,-3.2545,-3.2363,-3.219,-3.1886,-3.1339,-3.0816,-3.0115,-2.946,-2.8849,-2.8447,-2.8364,-2.8301,-2.8301,-2.8301,-2.8301,-2.8301,-2.8301,-2.8301,-2.8301,-2.8301,-2.8301,-3.0898,-3.0898,-3.0898,-3.0898,-3.0898,-3.0898,-3.0898,-3.0898,-3.0898,-3.0898,-3.0898,-3.0898,-3.0898,-3.0898,-3.0898,-3.0898,-3.0898,-3.0898,-3.0898,-3.0898,-3.0898,-3.0898,-3.0957,-3.0947,-3.0947,-3.0889,-3.0898,-3.0898,-3.0898,-3.0898,-3.0898,-3.0898,-3.0898,-3.0898,-3.0898,-3.0947,-3.1141,-3.1482,-3.1325,-3.1345,-3.1536,-3.1516,-3.1557,-3.1702,-3.2137,-3.2385,-3.2437,-3.2437,-3.2447,-3.2328,-3.2142,-3.205,-3.2122,-3.2432,-3.2649,-3.2669,-3.2669,-3.2669,-3.2669,-3.2669,-3.2669,-3.2669,-3.2669,-3.2669,-3.2669,-3.2669,-3.2669,-3.2669,-3.2669,-3.2669,-3.2669,-3.2669,-3.2669,-3.2669,-3.2669,-3.2669,-3.2669,-3.2669,-3.2669,-3.2669,-3.2669,-3.2669,-3.2669,-3.2669,-3.2669,-3.2669,-3.2669,-3.2669,-3.2669,-3.2669,-3.2669,-3.2669,-3.2612,-3.2555,-3.243,-3.2227,-3.189,-3.1623,-3.113,-3.0545,-2.9792,-2.9292,-2.8736,-2.8476,-2.8301,-2.8301,-2.8301,-2.8301,-2.8301,-2.8301,-2.8301,-2.8301,-2.8301,-2.8301,-2.8301,-3.0898,-3.0898,-3.0898,-3.0898,-3.0898,-3.0898,-3.0898,-3.0898,-3.0898,-3.0898,-3.0898,-3.0898,-3.0898,-3.0898,-3.0898,-3.0898,-3.0898,-3.0898,-3.0898,-3.0898,-3.0898,-3.0898,-3.1122,-3.1402,-3.1508,-3.1064,-3.0898,-3.0898,-3.0898,-3.0898,-3.0898,-3.0898,-3.0898,-3.0898,-3.0898,-3.0898,-3.1218,-3.1642,-3.1566,-3.1629,-3.1911,-3.2064,-3.2085,-3.2266,-3.2535,-3.2669,-3.2649,-3.2649,-3.2659,-3.2607,-3.2499,-3.2354,-3.2318,-3.2535,-3.2649,-3.2669,-3.2669,-3.2669,-3.2669,-3.2669,-3.2669,-3.2669,-3.2669,-3.2669,-3.2669,-3.2669,-3.2669,-3.2669,-3.2669,-3.2669,-3.2669,-3.2669,-3.2669,-3.2669,-3.2669,-3.2669,-3.2669,-3.2669,-3.2669,-3.2669,-3.2669,-3.2669,-3.2669,-3.2669,-3.2669,-3.2669,-3.2669,-3.2669,-3.2669,-3.2669,-3.2669,-3.2669,-3.2555,-3.243,-3.2315,-3.2035,-3.1579,-3.1194,-3.0688,-3.0072,-2.941,-2.9031,-2.8677,-2.8452,-2.8301,-2.8301,-2.8301,-2.8301,-2.8301,-2.8301,-2.8301,-2.8301,-2.8301,-2.8301,-2.8301,-3.0898,-3.0898,-3.0898,-3.0898,-3.0898,-3.0898,-3.0898,-3.0898,-3.0898,-3.0898,-3.0898,-3.0898,-3.0898,-3.0898,-3.0898,-3.0898,-3.0898,-3.0898,-3.0898,-3.0898,-3.0898,-3.0898,-3.1122,-3.1566,-3.1682,-3.0947,-3.1228,-3.1228,-3.1005,-3.0898,-3.0898,-3.0898,-3.0898,-3.0898,-3.0898,-3.0947,-3.117,-3.172,-3.1737,-3.1883,-3.2282,-3.2705,-3.3124,-3.3473,-3.3561,-3.3593,-3.3593,-3.3537,-3.3378,-3.3218,-3.3218,-3.3115,-3.2955,-3.2737,-3.2669,-3.2669,-3.2669,-3.2669,-3.2669,-3.2669,-3.2669,-3.2669,-3.2669,-3.2669,-3.2669,-3.2669,-3.2669,-3.2669,-3.2669,-3.2669,-3.2669,-3.2669,-3.2669,-3.2669,-3.2669,-3.2669,-3.2669,-3.2669,-3.2669,-3.2669,-3.2669,-3.2669,-3.2669,-3.2669,-3.2669,-3.2669,-3.2669,-3.2669,-3.2669,-3.2669,-3.2669,-3.2669,-3.2612,-3.243,-3.2315,-3.1998,-3.1599,-3.1084,-3.0456,-2.9862,-2.9217,-2.88,-2.8535,-2.8413,-2.8301,-2.8301,-2.8301,-2.8301,-2.8301,-2.8301,-2.8301,-2.8301,-2.8301,-2.8301,-2.8301,-3.0898,-3.0898,-3.0898,-3.0898,-3.0898,-3.0898,-3.0898,-3.0898,-3.0898,-3.0898,-3.0898,-3.0898,-3.0898,-3.0898,-3.0898,-3.0898,-3.0898,-3.0898,-3.0898,-3.0898,-3.0898,-3.0898,-3.1005,-3.1402,-3.1228,-3.1286,-3.1787,-3.195,-3.117,-3.0898,-3.1228,-3.1005,-3.1112,-3.1112,-3.117,-3.1005,-3.1508,-3.2123,-3.2227,-3.2374,-3.2943,-3.3744,-3.458,-3.5168,-3.5223,-3.5267,-3.5432,-3.5542,-3.5651,-3.5585,-3.5585,-3.5057,-3.4256,-3.3332,-3.2898,-3.2841,-3.2727,-3.2727,-3.2887,-3.2727,-3.2669,-3.2669,-3.2669,-3.2669,-3.2669,-3.2784,-3.2887,-3.283,-3.2784,-3.2669,-3.2669,-3.2669,-3.2669,-3.2669,-3.2669,-3.2669,-3.2669,-3.2669,-3.2669,-3.2669,-3.2669,-3.2669,-3.2669,-3.2669,-3.2669,-3.2669,-3.2669,-3.2669,-3.2669,-3.2669,-3.2669,-3.2669,-3.2669,-3.2487,-3.2315,-3.1988,-3.1599,-3.1167,-3.0604,-2.9998,-2.9352,-2.8756,-2.8413,-2.831,-2.8301,-2.8301,-2.8301,-2.8301,-2.8301,-2.8301,-2.8301,-2.8301,-2.8301,-2.8301,-2.8301,-3.0898,-3.0898,-3.0898,-3.0898,-3.0898,-3.0898,-3.0898,-3.0898,-3.0898,-3.0898,-3.0898,-3.0898,-3.0898,-3.0898,-3.0898,-3.0898,-3.0898,-3.0898,-3.0898,-3.0898,-3.0898,-3.0898,-3.1064,-3.145,-3.1344,-3.1624,-3.2504,-3.2892,-3.196,-3.1845,-3.2123,-3.2664,-3.2721,-3.2721,-3.2721,-3.2846,-3.2903,-3.3289,-3.3505,-3.3786,-3.4256,-3.5068,-3.5706,-3.6022,-3.624,-3.6185,-3.6185,-3.6185,-3.6185,-3.6131,-3.6185,-3.587,-3.5223,-3.4413,-3.366,-3.3604,-3.3058,-3.3058,-3.3275,-3.3172,-3.2669,-3.2669,-3.2727,-3.2669,-3.2887,-3.3218,-3.3547,-3.3491,-3.2887,-3.2669,-3.2669,-3.2669,-3.2669,-3.2669,-3.2669,-3.2669,-3.2669,-3.2669,-3.2669,-3.2669,-3.2669,-3.2669,-3.2669,-3.2669,-3.2669,-3.2669,-3.2669,-3.2669,-3.2669,-3.2612,-3.2545,-3.243,-3.243,-3.2373,-3.2258,-3.1998,-3.1626,-3.1194,-3.0594,-3.0043,-2.9387,-2.8746,-2.8432,-2.8301,-2.8301,-2.8301,-2.8301,-2.8301,-2.8301,-2.8301,-2.8301,-2.8301,-2.8301,-2.8301,-2.8301,-3.0898,-3.0898,-3.0898,-3.0898,-3.0898,-3.0898,-3.0898,-3.0898,-3.0898,-3.0898,-3.0898,-3.0898,-3.0898,-3.0898,-3.0898,-3.0898,-3.0898,-3.0898,-3.0898,-3.0898,-3.0947,-3.0947,-3.1508,-3.1787,-3.2065,-3.2342,-3.2835,-3.3561,-3.2799,-3.2903,-3.3572,-3.3888,-3.428,-3.4391,-3.4224,-3.4,-3.4614,-3.4936,-3.5146,-3.5542,-3.61,-3.6426,-3.6684,-3.69,-3.69,-3.7007,-3.7168,-3.7233,-3.718,-3.718,-3.7061,-3.6846,-3.6468,-3.5663,-3.5179,-3.4914,-3.3649,-3.3547,-3.3818,-3.3332,-3.2669,-3.2669,-3.2944,-3.3058,-3.3218,-3.3875,-3.4357,-3.4312,-3.3445,-3.2727,-3.2669,-3.2669,-3.2669,-3.2669,-3.2669,-3.2669,-3.2669,-3.2669,-3.2669,-3.2669,-3.2669,-3.2669,-3.2669,-3.2669,-3.2669,-3.2669,-3.2669,-3.2669,-3.2669,-3.2487,-3.2363,-3.219,-3.2133,-3.2133,-3.2076,-3.2018,-3.1623,-3.1194,-3.0538,-2.9933,-2.9277,-2.8692,-2.8491,-2.8354,-2.8301,-2.8301,-2.8301,-2.8301,-2.8301,-2.8301,-2.8301,-2.8301,-2.8301,-2.8301,-2.8301,-3.0898,-3.0898,-3.0898,-3.0898,-3.0898,-3.0898,-3.0898,-3.0898,-3.0898,-3.0898,-3.0898,-3.0898,-3.0898,-3.0947,-3.1005,-3.0947,-3.1005,-3.1064,-3.1122,-3.118,-3.1112,-3.1566,-3.2133,-3.1392,-3.2675,-3.3222,-3.3289,-3.2913,-3.3187,-3.3899,-3.4336,-3.4659,-3.4825,-3.4492,-3.4947,-3.4991,-3.4714,-3.5189,-3.5409,-3.6174,-3.7406,-3.7672,-3.8226,-3.8828,-3.9037,-3.8973,-3.8868,-3.8816,-3.8933,-3.9037,-3.9141,-3.8712,-3.7938,-3.7619,-3.7512,-3.6588,-3.4958,-3.3229,-3.4201,-3.3762,-3.3001,-3.3218,-3.3717,-3.4145,-3.4525,-3.4469,-3.4692,-3.4424,-3.3501,-3.2794,-3.2727,-3.2669,-3.2669,-3.2669,-3.2669,-3.2669,-3.2669,-3.2669,-3.2669,-3.2669,-3.2669,-3.2669,-3.2669,-3.2669,-3.2669,-3.2669,-3.2669,-3.2669,-3.2555,-3.2305,-3.2076,-3.1903,-3.1903,-3.196,-3.196,-3.1903,-3.1647,-3.1198,-3.0492,-2.9796,-2.9396,-2.8903,-2.8569,-2.8461,-2.8354,-2.8301,-2.8301,-2.8301,-2.8301,-2.8301,-2.8301,-2.8301,-2.8301,-2.8301,-2.8301,-3.0898,-3.0898,-3.0898,-3.0898,-3.0898,-3.0898,-3.0898,-3.0898,-3.0898,-3.0898,-3.0898,-3.0898,-3.0898,-3.1005,-3.1566,-3.196,-3.1903,-3.1903,-3.1903,-3.1903,-3.195,-3.2238,-3.2628,-3.2835,-3.3719,-3.4168,-3.4614,-3.4969,-3.4902,-3.5124,-3.5663,-3.6317,-3.6383,-3.6545,-3.622,-3.6534,-3.6804,-3.7126,-3.7447,-3.8043,-3.8712,-3.8933,-3.9154,-3.9697,-3.9697,-3.9697,-3.9697,-3.9697,-3.9697,-3.9697,-3.9697,-3.953,-3.8868,-3.8384,-3.8108,-3.8647,-3.6306,-3.5113,-3.5322,-3.4891,-3.4357,-3.4099,-3.4803,-3.5706,-3.61,-3.5815,-3.5432,-3.5443,-3.4413,-3.3547,-3.2898,-3.2669,-3.2669,-3.2727,-3.2887,-3.2727,-3.2727,-3.2669,-3.2669,-3.2669,-3.2669,-3.2669,-3.2669,-3.2669,-3.2669,-3.2669,-3.2612,-3.2555,-3.2315,-3.1903,-3.173,-3.1556,-3.1672,-3.1845,-3.1845,-3.1845,-3.1672,-3.114,-3.0297,-2.9754,-2.9618,-2.9228,-2.8794,-2.8514,-2.8408,-2.8344,-2.8291,-2.8301,-2.8301,-2.8301,-2.8301,-2.8301,-2.8301,-2.8301,-2.8301,-3.0898,-3.0898,-3.0898,-3.0898,-3.0898,-3.0898,-3.0898,-3.0898,-3.0898,-3.0898,-3.0898,-3.0898,-3.0898,-3.117,-3.2018,-3.2571,-3.2685,-3.296,-3.313,-3.313,-3.3187,-3.3356,-3.373,-3.428,-3.4603,-3.5267,-3.5651,-3.6111,-3.6503,-3.6719,-3.7096,-3.7974,-3.7643,-3.7814,-3.7986,-3.7921,-3.8027,-3.8291,-3.8828,-3.9258,-3.9581,-3.9645,-3.9645,-3.9697,-3.9697,-3.9697,-3.9697,-3.9697,-3.9697,-3.9697,-3.9697,-3.9645,-3.9426,-3.8973,-3.8816,-3.9141,-3.7725,-3.6911,-3.663,-3.6143,-3.5772,-3.5608,-3.5991,-3.7073,-3.7938,-3.7329,-3.6619,-3.663,-3.5124,-3.4089,-3.3434,-3.3218,-3.3001,-3.3161,-3.3378,-3.3105,-3.2944,-3.3105,-3.3001,-3.2669,-3.2669,-3.2669,-3.2669,-3.2669,-3.2669,-3.2669,-3.2612,-3.244,-3.2086,-3.1614,-3.1441,-3.1276,-3.1556,-3.173,-3.1672,-3.1614,-3.1498,-3.1164,-3.0312,-2.9852,-2.9737,-2.9263,-2.8686,-2.8514,-2.8451,-2.8344,-2.8291,-2.8301,-2.8301,-2.8301,-2.8301,-2.8301,-2.8301,-2.8301,-2.8301,-3.0898,-3.0898,-3.0898,-3.0898,-3.0898,-3.0898,-3.0898,-3.0898,-3.0898,-3.0898,-3.0898,-3.0898,-3.0898,-3.1286,-3.218,-3.2846,-3.2799,-3.3843,-3.4179,-3.428,-3.4336,-3.4781,-3.5113,-3.5289,-3.5608,-3.6989,-3.6923,-3.7031,-3.7536,-3.7536,-3.7814,-3.7986,-3.7974,-3.7974,-3.8027,-3.8145,-3.8461,-3.8788,-3.931,-3.9594,-3.9697,-3.9697,-3.9697,-3.9697,-3.9697,-3.9697,-3.9697,-3.9697,-3.9697,-3.9697,-3.9697,-3.9697,-3.9633,-3.9413,-3.9478,-3.9374,-3.931,-3.8489,-3.7885,-3.7168,-3.6402,-3.6468,-3.7126,-3.8214,-3.9037,-3.8384,-3.7885,-3.7501,-3.6045,-3.4958,-3.4469,-3.4312,-3.3976,-3.3976,-3.4246,-3.4302,-3.4089,-3.3931,-3.366,-3.2944,-3.2669,-3.2669,-3.2669,-3.2669,-3.2669,-3.2669,-3.2315,-3.2143,-3.174,-3.1334,-3.1218,-3.116,-3.1498,-3.1614,-3.1383,-3.1383,-3.1441,-3.1114,-3.0438,-3.0112,-2.9996,-2.9377,-2.8641,-2.8568,-2.8514,-2.8408,-2.8301,-2.8301,-2.8301,-2.8301,-2.8301,-2.8301,-2.8301,-2.8301,-2.8301,-3.0898,-3.0898,-3.0898,-3.0898,-3.0898,-3.0898,-3.0898,-3.0898,-3.0898,-3.0898,-3.0898,-3.0898,-3.0898,-3.1402,-3.2892,-3.373,-3.3899,-3.5002,-3.5388,-3.5509,-3.5619,-3.5783,-3.6122,-3.6611,-3.715,-3.7749,-3.7471,-3.7418,-3.7868,-3.7974,-3.7974,-3.7974,-3.8027,-3.7974,-3.8027,-3.8303,-3.8671,-3.905,-3.9478,-3.9697,-3.9697,-3.9697,-3.9697,-3.9697,-3.9697,-3.9697,-3.9697,-3.9697,-3.9697,-3.9697,-3.9697,-3.9697,-3.9697,-3.9697,-3.9697,-3.9697,-3.9697,-3.9426,-3.9089,-3.8489,-3.8372,-3.8372,-3.8816,-3.9206,-3.9697,-3.9206,-3.8554,-3.7897,-3.7126,-3.6208,-3.5597,-3.5542,-3.5377,-3.5278,-3.5333,-3.5553,-3.5168,-3.4902,-3.4525,-3.3864,-3.3105,-3.2612,-3.2612,-3.2612,-3.2669,-3.2669,-3.2258,-3.1845,-3.145,-3.117,-3.1054,-3.1054,-3.1334,-3.1392,-3.116,-3.1276,-3.1441,-3.1045,-3.0554,-3.0294,-2.9967,-2.9292,-2.8694,-2.8631,-2.8514,-2.8354,-2.8301,-2.8301,-2.8301,-2.8301,-2.8301,-2.8301,-2.8301,-2.8301,-2.8301,-3.0898,-3.0898,-3.0898,-3.0898,-3.0898,-3.0898,-3.0898,-3.0898,-3.0898,-3.0898,-3.0898,-3.0898,-3.0898,-3.1566,-3.3289,-3.4336,-3.4781,-3.5838,-3.6557,-3.6731,-3.6731,-3.6731,-3.7054,-3.7376,-3.7749,-3.7974,-3.7974,-3.7974,-3.7986,-3.7974,-3.7974,-3.8027,-3.8092,-3.8133,-3.825,-3.8684,-3.905,-3.931,-3.953,-3.9697,-3.9697,-3.9697,-3.9697,-3.9697,-3.9697,-3.9697,-3.9697,-3.9697,-3.9697,-3.9697,-3.9697,-3.9697,-3.9697,-3.9697,-3.9697,-3.9697,-3.9697,-3.9697,-3.9697,-3.9697,-3.9685,-3.9413,-3.9478,-3.9645,-3.9697,-3.9697,-3.9141,-3.8659,-3.8161,-3.7566,-3.6673,-3.6684,-3.6306,-3.6034,-3.718,-3.7394,-3.6143,-3.5542,-3.5212,-3.477,-3.4022,-3.3275,-3.2991,-3.2934,-3.2373,-3.2373,-3.2076,-3.1672,-3.1228,-3.1054,-3.1005,-3.0995,-3.116,-3.1112,-3.0947,-3.117,-3.1305,-3.0991,-3.0539,-3.0188,-2.9753,-2.911,-2.866,-2.8514,-2.8408,-2.8301,-2.8301,-2.8301,-2.8301,-2.8301,-2.8301,-2.8301,-2.8301,-2.8301,-2.8301,-3.0898,-3.0898,-3.0898,-3.0898,-3.0898,-3.0898,-3.0898,-3.0898,-3.0898,-3.0898,-3.0947,-3.1005,-3.0947,-3.1508,-3.3505,-3.4503,-3.4936,-3.6708,-3.7761,-3.7708,-3.7601,-3.7814,-3.7814,-3.7974,-3.7974,-3.7974,-3.7974,-3.7974,-3.7974,-3.8092,-3.8027,-3.8133,-3.8303,-3.8409,-3.8473,-3.8998,-3.9258,-3.9322,-3.953,-3.9697,-3.9697,-3.9697,-3.9697,-3.9697,-3.9697,-3.9697,-3.9697,-3.9697,-3.9697,-3.9697,-3.9697,-3.9697,-3.9697,-3.9697,-3.9697,-3.9697,-3.9697,-3.9697,-3.9697,-3.9697,-3.9697,-3.9697,-3.9697,-3.9697,-3.9697,-3.9697,-3.9633,-3.9154,-3.8712,-3.8173,-3.7897,-3.7779,-3.7287,-3.7382,-3.8542,-3.8699,-3.7394,-3.6306,-3.6034,-3.5749,-3.5068,-3.4379,-3.3875,-3.3367,-3.242,-3.2076,-3.1903,-3.1556,-3.1112,-3.0947,-3.0898,-3.0947,-3.1054,-3.0995,-3.1005,-3.117,-3.1217,-3.0876,-3.0541,-3.0208,-2.9768,-2.9169,-2.8765,-2.8457,-2.8354,-2.8301,-2.8301,-2.8301,-2.8301,-2.8301,-2.8301,-2.8301,-2.8301,-2.8301,-2.8301,-3.0898,-3.0898,-3.0898,-3.0898,-3.0898,-3.0898,-3.0898,-3.0898,-3.0898,-3.0898,-3.1122,-3.1682,-3.1566,-3.2065,-3.3899,-3.5168,-3.4991,-3.6815,-3.7974,-3.7974,-3.7974,-3.7974,-3.7974,-3.7974,-3.7974,-3.7974,-3.7974,-3.7974,-3.7974,-3.8145,-3.825,-3.8356,-3.8671,-3.8828,-3.8841,-3.9102,-3.9322,-3.9374,-3.953,-3.9697,-3.9697,-3.9697,-3.9697,-3.9697,-3.9697,-3.9697,-3.9697,-3.9697,-3.9697,-3.9697,-3.9697,-3.9697,-3.9697,-3.9697,-3.9697,-3.9697,-3.9697,-3.9697,-3.9697,-3.9697,-3.9697,-3.9697,-3.9697,-3.9697,-3.9697,-3.9697,-3.9697,-3.9697,-3.9258,-3.8933,-3.9102,-3.9089,-3.8816,-3.8816,-3.9413,-3.9426,-3.8607,-3.7566,-3.6965,-3.663,-3.6154,-3.5068,-3.4357,-3.3639,-3.2742,-3.196,-3.172,-3.1392,-3.1005,-3.0947,-3.0898,-3.0898,-3.0947,-3.0947,-3.1005,-3.1112,-3.1149,-3.0933,-3.0643,-3.0332,-2.9789,-2.9095,-2.8731,-2.8364,-2.8301,-2.8301,-2.8301,-2.8301,-2.8301,-2.8301,-2.8301,-2.8301,-2.8301,-2.8301,-2.8301,-3.0898,-3.0898,-3.0898,-3.0898,-3.0898,-3.0898,-3.0898,-3.0898,-3.0898,-3.0898,-3.118,-3.2123,-3.2352,-3.2628,-3.4458,-3.5959,-3.5278,-3.6977,-3.7974,-3.7974,-3.7974,-3.7974,-3.7974,-3.7974,-3.7974,-3.7974,-3.8027,-3.8039,-3.8145,-3.8303,-3.8514,-3.8776,-3.9089,-3.9154,-3.9218,-3.9374,-3.9478,-3.953,-3.9645,-3.9697,-3.9697,-3.9697,-3.9697,-3.9697,-3.9697,-3.9697,-3.9697,-3.9697,-3.9697,-3.9697,-3.9697,-3.9697,-3.9697,-3.9697,-3.9697,-3.9697,-3.9697,-3.9697,-3.9697,-3.9697,-3.9697,-3.9697,-3.9697,-3.9697,-3.9697,-3.9697,-3.9697,-3.9697,-3.9697,-3.9697,-3.9645,-3.9697,-3.9697,-3.9633,-3.953,-3.953,-3.9206,-3.8108,-3.7631,-3.7352,-3.6965,-3.5936,-3.4947,-3.3899,-3.3063,-3.2285,-3.1546,-3.1276,-3.1005,-3.0947,-3.0889,-3.0898,-3.0898,-3.0947,-3.0947,-3.1005,-3.1023,-3.0943,-3.0591,-3.0163,-2.96,-2.8864,-2.8594,-2.8354,-2.8301,-2.8301,-2.8301,-2.8291,-2.8291,-2.8291,-2.8301,-2.8301,-2.8301,-2.8301,-2.8301,-3.0898,-3.0898,-3.0898,-3.0898,-3.0898,-3.0898,-3.0898,-3.0898,-3.0898,-3.0947,-3.1112,-3.2399,-3.2856,-3.33,-3.5289,-3.6177,-3.6286,-3.7429,-3.7868,-3.7974,-3.7974,-3.7974,-3.7974,-3.7974,-3.7974,-3.8027,-3.8092,-3.8198,-3.8409,-3.8579,-3.8841,-3.9154,-3.931,-3.9426,-3.953,-3.9594,-3.9645,-3.9645,-3.9645,-3.9697,-3.9697,-3.9697,-3.9697,-3.9697,-3.9697,-3.9697,-3.9697,-3.9697,-3.9697,-3.9697,-3.9697,-3.9697,-3.9697,-3.9697,-3.9697,-3.9697,-3.9697,-3.9697,-3.9697,-3.9697,-3.9697,-3.9697,-3.9697,-3.9697,-3.9697,-3.9697,-3.9697,-3.9697,-3.9697,-3.9697,-3.9697,-3.9697,-3.9685,-3.9581,-3.9426,-3.9258,-3.9089,-3.8607,-3.8173,-3.7909,-3.7631,-3.6911,-3.6197,-3.5157,-3.3944,-3.3166,-3.2493,-3.1893,-3.1566,-3.0947,-3.0947,-3.0898,-3.0898,-3.0898,-3.0937,-3.0937,-3.075,-3.0622,-3.0098,-2.9648,-2.9064,-2.8716,-2.8491,-2.8301,-2.8301,-2.8301,-2.8301,-2.8291,-2.8291,-2.8344,-2.8408,-2.8344,-2.8344,-2.8291,-2.8301,-3.0898,-3.0898,-3.0898,-3.0898,-3.0898,-3.0898,-3.0898,-3.0898,-3.0957,-3.1296,-3.2227,-3.3402,-3.3843,-3.4179,-3.6383,-3.6719,-3.6947,-3.7269,-3.7814,-3.7974,-3.7974,-3.7974,-3.7974,-3.7974,-3.7974,-3.808,-3.8198,-3.8303,-3.8514,-3.8724,-3.9154,-3.953,-3.953,-3.9633,-3.9697,-3.9697,-3.9697,-3.9697,-3.9697,-3.9697,-3.9697,-3.9697,-3.9697,-3.9697,-3.9697,-3.9697,-3.9697,-3.9697,-3.9697,-3.9697,-3.9697,-3.9697,-3.9697,-3.9697,-3.9697,-3.9697,-3.9697,-3.9697,-3.9697,-3.9697,-3.9697,-3.9697,-3.9697,-3.9697,-3.9697,-3.9697,-3.9697,-3.9697,-3.9697,-3.9697,-3.9697,-3.9697,-3.9633,-3.953,-3.9374,-3.9206,-3.9037,-3.8724,-3.8344,-3.8344,-3.8068,-3.7578,-3.6965,-3.6306,-3.5101,-3.4269,-3.3551,-3.2892,-3.218,-3.1614,-3.1005,-3.0947,-3.0898,-3.0898,-3.0858,-3.0828,-3.0554,-3.029,-2.9777,-2.9315,-2.8922,-2.8603,-2.8389,-2.8301,-2.8301,-2.8301,-2.8301,-2.8344,-2.8398,-2.8514,-2.8568,-2.8451,-2.8398,-2.8344,-2.8301,-3.0898,-3.0898,-3.0898,-3.0898,-3.0898,-3.0898,-3.0898,-3.0898,-3.0898,-3.1566,-3.2799,-3.3843,-3.467,-3.5399,-3.6989,-3.7601,-3.7108,-3.759,-3.7974,-3.7974,-3.7974,-3.7974,-3.7974,-3.8027,-3.8092,-3.8198,-3.8356,-3.8514,-3.8776,-3.9154,-3.9594,-3.9645,-3.9697,-3.9697,-3.9697,-3.9697,-3.9697,-3.9697,-3.9697,-3.9697,-3.9697,-3.9697,-3.9697,-3.9697,-3.9697,-3.9697,-3.9697,-3.9697,-3.9697,-3.9697,-3.9697,-3.9697,-3.9697,-3.9697,-3.9697,-3.9697,-3.9697,-3.9697,-3.9697,-3.9697,-3.9697,-3.9697,-3.9697,-3.9697,-3.9697,-3.9697,-3.9697,-3.9697,-3.9697,-3.9697,-3.9697,-3.9697,-3.9581,-3.9478,-3.9374,-3.9206,-3.8945,-3.8619,-3.8566,-3.8631,-3.8356,-3.7962,-3.7418,-3.6858,-3.6251,-3.5333,-3.4558,-3.3832,-3.3176,-3.2457,-3.1566,-3.1005,-3.0947,-3.0889,-3.0887,-3.0728,-3.0319,-2.9959,-2.946,-2.9049,-2.875,-2.8555,-2.835,-2.8301,-2.8301,-2.8301,-2.8291,-2.8461,-2.8568,-2.8674,-2.8727,-2.8621,-2.8568,-2.8514,-2.8461,-3.0898,-3.0898,-3.0898,-3.0898,-3.0898,-3.0898,-3.0898,-3.0947,-3.1064,-3.174,-3.296,-3.4056,-3.5289,-3.6394,-3.7548,-3.7974,-3.7708,-3.7921,-3.7974,-3.7974,-3.7974,-3.7974,-3.7974,-3.8027,-3.8145,-3.8303,-3.8514,-3.8736,-3.927,-3.9542,-3.9645,-3.9697,-3.9697,-3.9697,-3.9697,-3.9697,-3.9697,-3.9697,-3.9697,-3.9697,-3.9697,-3.9697,-3.9697,-3.9697,-3.9697,-3.9697,-3.9697,-3.9697,-3.9697,-3.9697,-3.9697,-3.9697,-3.9697,-3.9697,-3.9697,-3.9697,-3.9697,-3.9697,-3.9697,-3.9697,-3.9697,-3.9697,-3.9697,-3.9697,-3.9697,-3.9697,-3.9697,-3.9697,-3.9697,-3.9697,-3.9697,-3.9697,-3.9645,-3.9426,-3.927,-3.9114,-3.8893,-3.8579,-3.8409,-3.8409,-3.825,-3.7909,-3.7802,-3.7245,-3.7031,-3.6274,-3.5838,-3.5168,-3.4391,-3.3685,-3.2846,-3.1787,-3.145,-3.1478,-3.1166,-3.0898,-3.0113,-2.9665,-2.9205,-2.8853,-2.8525,-2.8398,-2.831,-2.8301,-2.8301,-2.8301,-2.8301,-2.8461,-2.8621,-2.8771,-2.8834,-2.8781,-2.8727,-2.8674,-2.8514,-3.0898,-3.0898,-3.0898,-3.0898,-3.0898,-3.0898,-3.0898,-3.1005,-3.1903,-3.2903,-3.4067,-3.5234,-3.6394,-3.7429,-3.7761,-3.7974,-3.7974,-3.7974,-3.7974,-3.7974,-3.7974,-3.7974,-3.7974,-3.8027,-3.8145,-3.8409,-3.8684,-3.8998,-3.9478,-3.9645,-3.9697,-3.9697,-3.9697,-3.9697,-3.9697,-3.9697,-3.9697,-3.9697,-3.9697,-3.9697,-3.9697,-3.9697,-3.9697,-3.9697,-3.9697,-3.9697,-3.9697,-3.9697,-3.9697,-3.9697,-3.9697,-3.9697,-3.9697,-3.9697,-3.9697,-3.9697,-3.9697,-3.9697,-3.9697,-3.9697,-3.9697,-3.9697,-3.9697,-3.9697,-3.9697,-3.9697,-3.9697,-3.9697,-3.9697,-3.9697,-3.9697,-3.9645,-3.9594,-3.9374,-3.9166,-3.8958,-3.8801,-3.8526,-3.8303,-3.8145,-3.8027,-3.7974,-3.7921,-3.7814,-3.7655,-3.7548,-3.7495,-3.6989,-3.6111,-3.5344,-3.4836,-3.3843,-3.2618,-3.2291,-3.1785,-3.0873,-2.9993,-2.9375,-2.898,-2.8603,-2.831,-2.8301,-2.8301,-2.8301,-2.8301,-2.8291,-2.8408,-2.8568,-2.8727,-2.893,-2.893,-2.893,-2.8834,-2.8781,-2.8558,-3.0898,-3.0898,-3.0898,-3.0898,-3.0898,-3.0898,-3.0898,-3.1228,-3.2732,-3.3786,-3.4492,-3.5674,-3.6881,-3.7868,-3.7974,-3.7974,-3.7974,-3.7974,-3.7974,-3.7974,-3.7974,-3.7974,-3.7974,-3.8027,-3.8303,-3.8579,-3.8998,-3.9426,-3.9645,-3.9697,-3.9697,-3.9697,-3.9697,-3.9697,-3.9697,-3.9697,-3.9697,-3.9697,-3.9697,-3.9697,-3.9697,-3.9697,-3.9697,-3.9697,-3.9697,-3.9697,-3.9697,-3.9697,-3.9697,-3.9697,-3.9697,-3.9697,-3.9697,-3.9697,-3.9697,-3.9697,-3.9697,-3.9697,-3.9697,-3.9697,-3.9697,-3.9697,-3.9697,-3.9697,-3.9697,-3.9697,-3.9697,-3.9697,-3.9697,-3.9697,-3.953,-3.9478,-3.9322,-3.9102,-3.8945,-3.8853,-3.8579,-3.8356,-3.8198,-3.808,-3.7974,-3.7974,-3.7974,-3.7921,-3.7814,-3.7814,-3.7921,-3.7921,-3.7269,-3.6708,-3.6317,-3.5497,-3.397,-3.2776,-3.1984,-3.0876,-2.9692,-2.9141,-2.873,-2.8506,-2.8301,-2.8301,-2.8301,-2.8301,-2.8344,-2.8398,-2.8514,-2.8674,-2.8983,-2.929,-2.9185,-2.9079,-2.8983,-2.8834,-2.8558,-3.0898,-3.0898,-3.0898,-3.0898,-3.0898,-3.0898,-3.0898,-3.1286,-3.3335,-3.4325,-3.4614,-3.5893,-3.7054,-3.7708,-3.7974,-3.7974,-3.7974,-3.7974,-3.7974,-3.7974,-3.7974,-3.7974,-3.8027,-3.8092,-3.8461,-3.8893,-3.9374,-3.953,-3.9697,-3.9697,-3.9697,-3.9697,-3.9697,-3.9697,-3.9697,-3.9697,-3.9697,-3.9697,-3.9697,-3.9697,-3.9697,-3.9697,-3.9697,-3.9697,-3.9697,-3.9697,-3.9697,-3.9697,-3.9697,-3.9697,-3.9697,-3.9697,-3.9697,-3.9697,-3.9697,-3.9697,-3.9697,-3.9697,-3.9697,-3.9697,-3.9697,-3.9697,-3.9697,-3.9697,-3.9697,-3.9645,-3.9645,-3.9645,-3.9645,-3.953,-3.9374,-3.9206,-3.8998,-3.8841,-3.8788,-3.8631,-3.8356,-3.8145,-3.808,-3.7974,-3.7974,-3.7974,-3.7974,-3.7974,-3.7974,-3.7974,-3.7974,-3.7974,-3.7856,-3.753,-3.7174,-3.6013,-3.4582,-3.3404,-3.2437,-3.0843,-2.9424,-2.9043,-2.8682,-2.8457,-2.8301,-2.8301,-2.8301,-2.8301,-2.8344,-2.8398,-2.8611,-2.8824,-2.9185,-2.9448,-2.929,-2.9079,-2.8877,-2.8664,-2.8451,-3.0898,-3.0898,-3.0898,-3.0898,-3.0898,-3.0898,-3.0898,-3.1286,-3.3335,-3.438,-3.4947,-3.6599,-3.7868,-3.7974,-3.7974,-3.7974,-3.7974,-3.7974,-3.7974,-3.7974,-3.7974,-3.7974,-3.808,-3.8356,-3.8671,-3.9102,-3.9478,-3.9645,-3.9697,-3.9697,-3.9697,-3.9697,-3.9697,-3.9697,-3.9697,-3.9697,-3.9697,-3.9697,-3.9697,-3.9697,-3.9697,-3.9697,-3.9697,-3.9697,-3.9697,-3.9697,-3.9697,-3.9697,-3.9697,-3.9697,-3.9697,-3.9697,-3.9697,-3.9697,-3.9697,-3.9697,-3.9697,-3.9697,-3.9697,-3.9697,-3.9697,-3.9685,-3.9685,-3.9645,-3.9581,-3.9426,-3.9426,-3.9362,-3.931,-3.931,-3.9154,-3.8945,-3.8776,-3.8684,-3.8579,-3.8356,-3.8145,-3.808,-3.8027,-3.7974,-3.7974,-3.7974,-3.7974,-3.7974,-3.7974,-3.7974,-3.7974,-3.7974,-3.7974,-3.7902,-3.7817,-3.6465,-3.5034,-3.4283,-3.3366,-3.0787,-2.9336,-2.8955,-2.8633,-2.8418,-2.8301,-2.8301,-2.8301,-2.8301,-2.8344,-2.8451,-2.8664,-2.893,-2.9079,-2.9237,-2.9185,-2.9026,-2.8824,-2.8611,-2.8398]},{"header":{"parameterUnit":"m.s-1","parameterCategory":1,"la1":31.0,"la2":29.5877,"lo1":-88.7671,"lo2":-86.6584,"dy":0.0162,"dx":0.0185,"nx":115,"ny":88,"refTime":"2024-09-24T06:00:00:Z","depth":0,"parameterNumber":3,"parameterNumberName":"V-component_of_WINDS"},"data":[0.0,0.0,0.0,0.0,0.0,0.0,0.0,0.0,0.0,0.0,0.0,0.0,0.0,0.0,0.0,0.0,0.0,0.0,0.0,0.0,0.0,0.0,0.0,0.0,0.0,0.0,0.0,0.0,0.0,0.0,0.0,0.0,0.0,0.0,0.0,0.0,0.0,0.0,0.0,0.0,0.0,0.0,0.0,0.0,0.0,0.0,0.0,0.0,0.0,0.0,0.0,0.0,0.0,0.0,0.0,0.0,0.0,0.0,0.0,0.0,0.0,0.0,0.0,0.0,0.0,0.0,0.0,0.0,0.0,0.0,0.0,0.0,0.0,0.0,0.0,0.0,0.0,0.0,0.0,0.0,0.0,0.0,0.0,0.0,0.0,0.0,0.0,0.0,0.0,0.0,0.0,0.0,0.0,0.0,0.0,0.0,0.0,0.0,0.0,0.0,0.0,0.0,0.0,0.0,0.0,0.0,0.0,0.0,0.0,0.0,0.0,0.0,0.0,0.0,0.0,0.0,0.0,0.0,0.0,0.0,0.0,0.0,0.0,0.0,0.0,0.0,0.0,0.0,0.0,0.0,0.0,0.0,0.0,0.0,0.0,0.0,0.0,0.0,0.0,0.0,0.0,0.0,0.0,0.0,0.0,0.0,0.0,0.0,0.0,0.0,0.0,0.0,0.0,0.0,0.0,0.0,0.0,0.0,0.0,0.0,0.0,0.0,0.0,0.0,0.0,0.0,0.0,0.0,0.0,0.0,0.0,0.0,0.0,0.0,0.0,0.0,0.0,0.0,0.0,0.0,0.0,0.0,0.0,0.0,0.0,0.0,0.0,0.0,0.0,0.0,0.0,0.0,0.0,0.0,0.0,0.0,0.0,0.0,0.0,0.0,0.0,0.0,0.0,0.0,0.0,0.0,0.0,0.0,0.0,0.0,0.0,0.0,0.0,0.0,0.0,0.0,0.0,0.0,0.0,0.0,0.0,0.0,0.0,0.0,0.0,0.0,0.0,0.0,0.0,0.0,0.0,0.0,0.0,0.0,0.0,0.0,0.0,0.0,0.0,0.0,0.0,0.0,0.0,0.0,0.0,0.0,0.0,0.0,0.0,0.0,0.0,0.0,0.0,0.0,0.0,0.0,0.0,0.0,0.0,0.0,0.0,0.0,0.0,0.0,0.0,0.0,0.0,0.0,0.0,0.0,0.0,0.0,0.0,0.0,0.0,0.0,0.0,0.0,0.0,0.0,0.0,0.0,0.0,0.0,0.0,0.0,0.0,0.0,0.0,0.0,0.0,0.0,0.0,0.0,0.0,0.0,0.0,0.0,0.0,0.0,0.0,0.0,0.0,0.0,0.0,0.0,0.0,0.0,0.0,0.0,0.0,0.0,0.0,0.0,0.0,0.0,0.0,0.0,0.0,0.0,0.0,0.0,0.0,0.0,0.0,0.0,0.0,0.0,0.0,0.0,0.0,0.0,0.0,0.0,0.0,0.0,0.0,0.0,0.0,0.0,0.0,0.0,0.0,0.0,0.0,0.0,0.0,0.0,0.0,0.0,0.0,0.0,0.0,0.0,0.0,0.0,0.0,0.0,0.0,0.0,0.0,0.0,0.0,0.0,0.0,0.0,0.0,0.0,0.0,0.0,0.0,0.0,0.0,0.0,0.0,0.0,0.0,0.0,0.0,0.0,0.0,0.0,0.0,0.0,0.0,0.0,0.0,0.0,0.0,0.0,0.0,0.0,0.0,0.0,0.0,0.0,0.0,0.0,0.0,0.0,0.0,0.0,0.0,0.0,0.0,0.0,0.0,0.0,0.0,0.0,0.0,0.0,0.0,0.0,0.0,0.0,0.0,0.0,0.0,0.0,0.0,0.0,0.0,0.0,0.0,0.0,0.0,0.0,0.0,0.0,0.0,0.0,0.0,0.0,0.0,0.0,0.0,0.0,0.0,0.0,0.0,0.0,0.0,0.0,0.0,0.0,0.0,0.0,0.0,0.0,0.0,0.0,0.0,0.0,0.0,0.0,0.0,0.0,0.0,0.0,0.0,0.0,0.0,0.0,0.0,0.0,0.0,0.0,0.0,0.0,0.0,0.0,0.0,0.0,0.0,0.0,0.0,0.0,0.0,0.0,0.0,0.0,0.0,0.0,0.0,0.0,0.0,0.0,0.0,0.0,0.0,0.0,0.0,0.0,0.0,0.0,0.0,0.0,0.0,0.0,0.0,0.0,0.0,0.0,0.0,0.0,0.0,0.0,0.0,0.0,0.0,0.0,0.0,0.0,0.0,0.0,0.0,0.0,0.0,0.0,0.0,0.0,0.0,0.0,0.0,0.0,0.0,0.0,0.0,0.0,0.0,0.0,0.0,0.0,0.0,0.0,0.0,0.0,0.0,0.0,0.0,0.0,0.0,0.0,0.0,0.0,0.0,0.0,0.0,0.0,0.0,0.0,0.0,0.0,0.0,0.0,0.0,0.0,0.0,0.0,0.0,0.0,0.0,0.0,0.0,0.0,0.0,0.0,0.0,0.0,0.0,0.0,0.0,0.0,0.0,0.0,0.0,0.0,0.0,0.0,0.0,0.0,0.0,0.0,0.0,0.0,0.0,0.0,0.0,0.0,0.0,0.0,0.0,0.0,0.0,0.0,0.0,0.0,0.0,0.0,0.0,0.0,0.0,0.0,0.0,0.0,0.0,0.0,0.0,0.0,0.0,0.0,0.0,0.0,0.0,0.0,0.0,0.0,0.0,0.0,0.0,0.0,0.0,0.0,0.0,0.0,0.0,0.0,0.0,0.0,0.0,0.0,0.0,0.0,0.0,0.0,0.0,0.0,0.0,0.0,0.0,0.0,0.0,0.0,0.0,0.0,0.0,0.0,0.0,0.0,0.0,0.0,0.0,0.0,0.0,0.0,0.0,0.0,0.0,0.0,0.0,0.0,0.0,0.0,0.0,0.0,0.0,0.0,0.0,0.0,0.0,0.0,0.0,0.0,0.0,0.0,0.0,0.0,0.0,0.0,0.0,0.0,0.0,0.0,0.0,0.0,0.0,0.0,0.0,0.0,0.0,0.0,0.0,0.0,0.0,0.0,0.0,0.0,0.0,0.0,0.0,0.0,0.0,0.0,0.0,0.0,0.0,0.0,0.0,0.0,0.0,0.0,0.0,0.0,0.0,0.0,0.0,0.0,0.0,0.0,0.0,0.0,0.0,0.0,0.0,0.0,0.0,0.0,0.0,0.0,0.0,0.0,0.0,0.0,0.0,0.0,0.0,0.0,0.0,0.0,0.0,0.0,0.0,0.0,0.0,0.0,0.0,0.0,0.0,0.0,0.0,0.0,0.0,0.0,0.0,0.0,0.0,0.0,0.0,0.0,0.0,0.0,0.0,0.0,0.0,0.0,0.0,0.0,0.0,0.0,0.0,0.0,0.0,0.0,0.0,0.0,0.0,0.0,0.0,0.0,0.0,0.0,0.0,0.0,0.0,0.0,0.0,0.0,0.0,0.0,0.0,0.0,0.0,0.0,0.0,0.0,0.0,0.0,0.0,0.0,0.0,0.0,0.0,0.0,0.0,0.0,0.0,0.0,0.0,0.0,0.0,0.0,0.0,0.0,0.0,0.0,0.0,0.0,0.0,0.0,0.0,0.0,0.0,0.0,0.0,0.0,0.0,0.0,0.0,0.0,0.0,0.0,0.0,0.0,0.0,0.0,0.0,0.0,0.0,0.0,0.0,0.0,0.0,0.0,0.0,0.0,0.0,0.0,0.0,0.0,0.0,0.0,0.0,0.0,0.0,0.0,0.0,0.0,0.0,0.0,0.0,0.0,0.0,0.0,0.0,0.0,0.0,0.0,0.0,0.0,0.0,0.0,0.0,0.0,0.0,0.0,0.0,0.0,0.0,0.0,0.0,0.0,0.0,0.0,0.0,0.0,0.0,0.0,0.0,0.0,0.0,0.0,0.0,0.0,0.0,0.0,0.0,0.0,0.0,0.0,0.0,0.0,0.0,0.0,0.0,0.0,0.0,0.0,0.0,0.0,0.0,0.0,0.0,0.0,0.0,0.0,0.0,0.0,0.0,0.0,0.0,0.0,0.0,0.0,0.0,0.0,0.0,0.0,0.0,0.0,0.0,0.0,0.0,0.0,0.0,0.0,0.0,0.0,0.0,0.0,0.0,0.0,0.0,0.0,0.0,0.0,0.0,0.0,0.0,0.0,0.0,0.0,0.0,0.0,0.0,0.0,0.0,0.0,0.0,0.0,0.0,0.0,0.0,0.0,0.0,0.0,-1.5213,0.0,0.0,0.0,0.0,0.0,0.0,0.0,0.0,0.0,0.0,0.0,0.0,0.0,0.0,0.0,0.0,0.0,0.0,0.0,0.0,0.0,0.0,0.0,0.0,0.0,0.0,0.0,0.0,0.0,0.0,0.0,0.0,0.0,0.0,0.0,0.0,0.0,0.0,0.0,0.0,0.0,0.0,0.0,0.0,0.0,0.0,0.0,0.0,0.0,0.0,0.0,0.0,0.0,0.0,0.0,0.0,0.0,0.0,0.0,0.0,0.0,0.0,0.0,0.0,0.0,0.0,0.0,0.0,0.0,0.0,0.0,0.0,0.0,0.0,0.0,0.0,0.0,0.0,0.0,0.0,0.0,0.0,0.0,0.0,0.0,0.0,0.0,0.0,0.0,0.0,0.0,0.0,0.0,0.0,0.0,0.0,0.0,0.0,0.0,0.0,0.0,0.0,0.0,0.0,0.0,0.0,0.0,0.0,0.0,0.0,-1.6039,-1.5926,-1.5942,-1.569,-1.5203,0.0,0.0,0.0,0.0,0.0,0.0,0.0,0.0,0.0,0.0,0.0,0.0,0.0,0.0,0.0,0.0,0.0,0.0,0.0,0.0,0.0,0.0,0.0,0.0,0.0,0.0,0.0,0.0,0.0,0.0,0.0,0.0,0.0,0.0,0.0,0.0,0.0,0.0,0.0,0.0,0.0,0.0,0.0,0.0,0.0,0.0,0.0,0.0,0.0,0.0,0.0,0.0,0.0,0.0,0.0,0.0,0.0,0.0,0.0,0.0,0.0,0.0,0.0,0.0,0.0,0.0,0.0,0.0,0.0,0.0,0.0,0.0,0.0,0.0,0.0,0.0,0.0,0.0,0.0,0.0,0.0,0.0,0.0,0.0,0.0,0.0,0.0,0.0,0.0,0.0,0.0,0.0,0.0,0.0,0.0,0.0,0.0,0.0,0.0,0.0,0.0,0.0,0.0,0.0,0.0,0.0,0.0,0.0,0.0,0.0,0.0,0.0,-1.669,-1.6387,-1.5549,0.0,0.0,0.0,0.0,0.0,0.0,0.0,0.0,0.0,0.0,0.0,0.0,0.0,0.0,0.0,0.0,0.0,0.0,0.0,0.0,0.0,0.0,0.0,0.0,0.0,0.0,0.0,0.0,0.0,0.0,0.0,0.0,0.0,0.0,0.0,0.0,0.0,0.0,0.0,0.0,0.0,0.0,0.0,0.0,0.0,0.0,0.0,0.0,0.0,0.0,0.0,0.0,0.0,0.0,0.0,0.0,0.0,0.0,0.0,0.0,0.0,0.0,0.0,0.0,0.0,0.0,0.0,0.0,0.0,0.0,0.0,0.0,0.0,0.0,0.0,0.0,0.0,0.0,0.0,0.0,0.0,0.0,0.0,0.0,0.0,0.0,0.0,0.0,0.0,0.0,0.0,0.0,0.0,0.0,0.0,0.0,0.0,0.0,0.0,0.0,0.0,0.0,0.0,0.0,0.0,0.0,0.0,0.0,0.0,0.0,-1.7748,-1.7587,-1.8201,0.0,-1.7097,0.0,0.0,0.0,0.0,0.0,0.0,0.0,0.0,0.0,0.0,0.0,0.0,0.0,0.0,0.0,0.0,0.0,0.0,0.0,0.0,0.0,0.0,0.0,0.0,0.0,0.0,0.0,0.0,0.0,0.0,0.0,0.0,0.0,0.0,0.0,0.0,0.0,0.0,0.0,0.0,0.0,0.0,0.0,0.0,0.0,0.0,0.0,0.0,0.0,0.0,0.0,0.0,0.0,0.0,0.0,0.0,0.0,0.0,0.0,0.0,0.0,0.0,0.0,0.0,0.0,0.0,0.0,0.0,0.0,0.0,0.0,0.0,0.0,0.0,0.0,0.0,0.0,0.0,0.0,0.0,0.0,0.0,0.0,0.0,0.0,0.0,0.0,0.0,0.0,0.0,0.0,0.0,0.0,0.0,0.0,0.0,0.0,0.0,0.0,0.0,0.0,0.0,0.0,0.0,0.0,0.0,0.0,0.0,0.0,0.0,-1.749,-1.8732,-1.813,-1.7729,0.0,0.0,0.0,0.0,0.0,0.0,0.0,0.0,0.0,0.0,0.0,0.0,0.0,0.0,0.0,0.0,0.0,0.0,0.0,0.0,0.0,0.0,0.0,0.0,0.0,0.0,0.0,0.0,0.0,0.0,0.0,0.0,0.0,0.0,0.0,0.0,0.0,0.0,0.0,0.0,0.0,0.0,0.0,0.0,0.0,0.0,0.0,0.0,0.0,0.0,0.0,0.0,0.0,0.0,0.0,0.0,0.0,0.0,0.0,0.0,0.0,0.0,0.0,0.0,0.0,0.0,0.0,0.0,0.0,0.0,0.0,0.0,0.0,0.0,0.0,0.0,0.0,0.0,0.0,0.0,0.0,0.0,0.0,0.0,0.0,0.0,0.0,0.0,0.0,0.0,0.0,0.0,0.0,0.0,0.0,0.0,0.0,0.0,0.0,0.0,0.0,0.0,0.0,0.0,0.0,0.0,0.0,0.0,0.0,0.0,-1.7693,-1.8058,-1.97,-1.8316,-1.7519,-1.7634,0.0,0.0,0.0,0.0,0.0,0.0,0.0,0.0,0.0,0.0,0.0,0.0,0.0,0.0,0.0,0.0,0.0,0.0,0.0,0.0,0.0,0.0,0.0,0.0,0.0,0.0,0.0,0.0,0.0,0.0,0.0,0.0,0.0,0.0,0.0,0.0,0.0,0.0,0.0,0.0,0.0,0.0,0.0,0.0,0.0,0.0,0.0,0.0,0.0,0.0,0.0,0.0,0.0,0.0,0.0,0.0,0.0,0.0,0.0,0.0,0.0,0.0,0.0,0.0,0.0,0.0,0.0,0.0,0.0,0.0,0.0,0.0,0.0,0.0,0.0,0.0,0.0,0.0,0.0,0.0,0.0,0.0,0.0,0.0,0.0,0.0,0.0,0.0,0.0,0.0,0.0,0.0,0.0,0.0,0.0,0.0,0.0,0.0,0.0,0.0,0.0,0.0,0.0,0.0,0.0,0.0,0.0,0.0,-1.8976,-1.9593,-2.023,-2.0824,-1.9253,-1.8,0.0,0.0,0.0,0.0,0.0,0.0,0.0,0.0,0.0,0.0,0.0,0.0,0.0,0.0,0.0,0.0,0.0,0.0,0.0,0.0,0.0,0.0,0.0,0.0,0.0,0.0,0.0,0.0,0.0,0.0,0.0,0.0,0.0,0.0,0.0,0.0,0.0,0.0,0.0,0.0,0.0,0.0,0.0,0.0,0.0,0.0,0.0,0.0,0.0,0.0,0.0,0.0,0.0,0.0,0.0,0.0,0.0,0.0,0.0,0.0,0.0,0.0,0.0,0.0,0.0,0.0,0.0,0.0,0.0,0.0,0.0,0.0,0.0,0.0,0.0,0.0,0.0,0.0,0.0,0.0,0.0,0.0,0.0,0.0,0.0,0.0,0.0,0.0,0.0,0.0,0.0,0.0,0.0,0.0,0.0,0.0,0.0,0.0,0.0,0.0,0.0,0.0,0.0,0.0,0.0,0.0,0.0,0.0,0.0,-1.9813,-2.1117,-2.1127,-1.9869,-1.9655,-1.8954,0.0,0.0,0.0,0.0,0.0,0.0,0.0,0.0,0.0,0.0,0.0,0.0,0.0,0.0,0.0,0.0,0.0,0.0,0.0,0.0,0.0,0.0,0.0,0.0,0.0,0.0,0.0,0.0,0.0,0.0,0.0,0.0,0.0,0.0,0.0,0.0,0.0,0.0,0.0,0.0,0.0,0.0,0.0,0.0,0.0,0.0,0.0,0.0,0.0,0.0,0.0,0.0,0.0,0.0,0.0,0.0,0.0,0.0,0.0,0.0,0.0,0.0,0.0,0.0,0.0,0.0,0.0,0.0,0.0,0.0,0.0,0.0,0.0,0.0,0.0,0.0,0.0,0.0,0.0,0.0,0.0,0.0,0.0,0.0,0.0,0.0,0.0,0.0,0.0,0.0,0.0,0.0,0.0,0.0,0.0,0.0,0.0,0.0,0.0,0.0,0.0,0.0,0.0,0.0,0.0,0.0,0.0,0.0,0.0,-1.9737,0.0,-2.1552,-1.9769,-1.9636,-1.895,0.0,0.0,0.0,0.0,0.0,0.0,0.0,0.0,0.0,0.0,0.0,0.0,0.0,0.0,0.0,0.0,0.0,0.0,0.0,0.0,0.0,0.0,0.0,0.0,0.0,0.0,0.0,0.0,0.0,0.0,0.0,0.0,0.0,0.0,0.0,0.0,0.0,0.0,0.0,0.0,0.0,0.0,0.0,0.0,0.0,0.0,0.0,0.0,0.0,0.0,0.0,0.0,0.0,0.0,0.0,0.0,0.0,0.0,0.0,0.0,0.0,0.0,0.0,0.0,0.0,0.0,0.0,0.0,0.0,0.0,0.0,0.0,0.0,0.0,0.0,0.0,0.0,0.0,0.0,0.0,0.0,0.0,0.0,0.0,0.0,0.0,0.0,0.0,0.0,0.0,0.0,0.0,0.0,0.0,0.0,0.0,0.0,0.0,0.0,0.0,0.0,0.0,0.0,0.0,0.0,0.0,0.0,0.0,-1.7737,-1.8594,-2.0886,-2.1702,-2.0778,-1.93,-1.8003,0.0,0.0,0.0,0.0,0.0,0.0,0.0,0.0,0.0,0.0,0.0,0.0,0.0,0.0,0.0,0.0,0.0,0.0,0.0,0.0,0.0,0.0,0.0,0.0,0.0,0.0,0.0,0.0,0.0,0.0,0.0,0.0,0.0,0.0,0.0,0.0,0.0,0.0,0.0,0.0,0.0,0.0,0.0,0.0,0.0,0.0,0.0,0.0,0.0,0.0,0.0,0.0,0.0,0.0,0.0,0.0,0.0,0.0,0.0,0.0,0.0,0.0,0.0,0.0,0.0,0.0,0.0,0.0,0.0,0.0,0.0,0.0,0.0,0.0,0.0,0.0,0.0,0.0,0.0,0.0,0.0,0.0,0.0,0.0,0.0,0.0,0.0,0.0,0.0,0.0,0.0,0.0,0.0,0.0,0.0,0.0,0.0,0.0,0.0,0.0,0.0,0.0,0.0,0.0,0.0,0.0,0.0,0.0,0.0,-2.0286,-2.2562,-2.2881,-2.1043,-2.0979,-1.9822,0.0,0.0,0.0,0.0,0.0,0.0,0.0,0.0,0.0,0.0,0.0,0.0,0.0,0.0,0.0,0.0,0.0,0.0,0.0,0.0,0.0,0.0,0.0,0.0,0.0,0.0,0.0,0.0,0.0,0.0,0.0,0.0,0.0,0.0,0.0,0.0,0.0,0.0,0.0,0.0,0.0,0.0,0.0,0.0,0.0,0.0,0.0,0.0,0.0,0.0,0.0,0.0,0.0,0.0,0.0,0.0,0.0,0.0,0.0,0.0,0.0,0.0,0.0,0.0,0.0,0.0,0.0,0.0,0.0,0.0,0.0,0.0,0.0,0.0,0.0,0.0,0.0,0.0,0.0,0.0,0.0,0.0,0.0,0.0,0.0,0.0,0.0,0.0,0.0,0.0,0.0,0.0,0.0,0.0,0.0,0.0,0.0,0.0,0.0,0.0,0.0,0.0,0.0,0.0,0.0,0.0,0.0,0.0,0.0,-2.42,-2.4819,-2.4301,-2.25,-2.2642,-2.1476,-1.8887,0.0,0.0,0.0,0.0,0.0,0.0,0.0,0.0,0.0,0.0,0.0,0.0,0.0,0.0,0.0,0.0,0.0,0.0,0.0,0.0,0.0,0.0,0.0,0.0,0.0,0.0,0.0,0.0,0.0,0.0,0.0,0.0,0.0,0.0,0.0,0.0,0.0,0.0,0.0,0.0,0.0,0.0,0.0,0.0,0.0,0.0,0.0,0.0,0.0,0.0,0.0,0.0,0.0,0.0,0.0,0.0,0.0,0.0,0.0,0.0,0.0,0.0,0.0,0.0,0.0,0.0,0.0,0.0,0.0,0.0,0.0,0.0,0.0,0.0,0.0,0.0,0.0,0.0,0.0,0.0,0.0,0.0,0.0,0.0,0.0,0.0,0.0,0.0,0.0,0.0,0.0,0.0,0.0,0.0,0.0,0.0,0.0,0.0,0.0,0.0,0.0,0.0,0.0,0.0,0.0,0.0,0.0,0.0,-2.9562,-2.7617,-2.6159,-2.5193,-2.4325,-2.3013,0.0,0.0,0.0,0.0,0.0,0.0,0.0,0.0,0.0,0.0,0.0,0.0,0.0,0.0,0.0,0.0,0.0,0.0,0.0,0.0,0.0,0.0,0.0,0.0,0.0,0.0,0.0,0.0,0.0,0.0,0.0,0.0,0.0,0.0,0.0,0.0,0.0,0.0,0.0,0.0,0.0,0.0,0.0,0.0,0.0,0.0,0.0,0.0,0.0,0.0,0.0,0.0,0.0,0.0,0.0,0.0,0.0,0.0,0.0,0.0,0.0,0.0,0.0,0.0,0.0,0.0,0.0,0.0,0.0,0.0,0.0,0.0,0.0,0.0,0.0,0.0,0.0,0.0,0.0,0.0,0.0,0.0,0.0,0.0,0.0,0.0,0.0,0.0,0.0,0.0,0.0,0.0,0.0,0.0,0.0,0.0,0.0,0.0,0.0,0.0,0.0,0.0,0.0,0.0,0.0,0.0,0.0,0.0,0.0,-2.9696,-3.145,-3.1133,-2.8551,-2.7133,-2.5364,0.0,0.0,0.0,0.0,0.0,0.0,0.0,0.0,0.0,0.0,0.0,0.0,0.0,0.0,0.0,0.0,0.0,0.0,0.0,0.0,0.0,0.0,0.0,0.0,0.0,0.0,0.0,0.0,0.0,0.0,0.0,0.0,0.0,0.0,0.0,0.0,0.0,0.0,0.0,0.0,0.0,0.0,0.0,0.0,0.0,0.0,0.0,0.0,0.0,0.0,0.0,0.0,0.0,0.0,0.0,0.0,0.0,0.0,0.0,0.0,0.0,0.0,0.0,0.0,0.0,0.0,0.0,0.0,0.0,0.0,0.0,0.0,0.0,0.0,0.0,0.0,0.0,0.0,0.0,0.0,0.0,0.0,0.0,0.0,0.0,0.0,0.0,0.0,0.0,0.0,0.0,0.0,0.0,0.0,0.0,0.0,0.0,0.0,0.0,0.0,0.0,0.0,0.0,0.0,0.0,0.0,0.0,0.0,-2.9901,-3.1795,-3.3973,-3.4341,-3.2824,-3.0265,-2.761,0.0,0.0,0.0,0.0,0.0,0.0,0.0,0.0,0.0,0.0,0.0,0.0,0.0,0.0,0.0,0.0,0.0,0.0,0.0,0.0,0.0,0.0,0.0,0.0,0.0,0.0,0.0,0.0,0.0,0.0,0.0,0.0,0.0,0.0,0.0,0.0,0.0,0.0,0.0,0.0,0.0,0.0,0.0,0.0,0.0,0.0,0.0,0.0,0.0,0.0,0.0,0.0,0.0,0.0,0.0,0.0,0.0,0.0,0.0,0.0,0.0,0.0,0.0,0.0,0.0,0.0,0.0,0.0,0.0,0.0,0.0,0.0,0.0,0.0,0.0,0.0,0.0,0.0,0.0,0.0,0.0,0.0,0.0,0.0,0.0,0.0,0.0,0.0,0.0,0.0,0.0,0.0,0.0,0.0,0.0,0.0,0.0,0.0,0.0,0.0,0.0,0.0,0.0,0.0,0.0,0.0,0.0,0.0,-3.2303,-3.4645,-3.5569,-3.6363,-3.6868,-3.3281,-2.9794,0.0,0.0,0.0,0.0,0.0,0.0,0.0,0.0,0.0,0.0,0.0,0.0,0.0,0.0,0.0,0.0,0.0,0.0,0.0,0.0,0.0,0.0,0.0,0.0,0.0,0.0,0.0,0.0,0.0,0.0,0.0,0.0,0.0,0.0,0.0,0.0,0.0,0.0,0.0,0.0,0.0,0.0,0.0,0.0,0.0,0.0,0.0,0.0,0.0,0.0,0.0,0.0,0.0,0.0,0.0,0.0,0.0,0.0,0.0,0.0,0.0,0.0,0.0,0.0,0.0,0.0,0.0,0.0,0.0,0.0,0.0,0.0,0.0,0.0,0.0,0.0,0.0,0.0,0.0,0.0,0.0,0.0,0.0,0.0,0.0,0.0,0.0,0.0,0.0,0.0,0.0,0.0,0.0,0.0,0.0,0.0,0.0,0.0,0.0,0.0,0.0,0.0,0.0,0.0,0.0,0.0,0.0,0.0,-3.3183,-3.5478,-3.6961,-3.7484,-3.6995,-3.4317,-3.1673,0.0,0.0,0.0,0.0,0.0,0.0,0.0,0.0,0.0,0.0,0.0,0.0,0.0,0.0,0.0,0.0,0.0,0.0,0.0,0.0,0.0,0.0,0.0,0.0,0.0,0.0,0.0,0.0,0.0,0.0,0.0,0.0,0.0,0.0,0.0,0.0,0.0,0.0,0.0,0.0,0.0,0.0,0.0,0.0,0.0,0.0,0.0,0.0,-1.7879,0.0,0.0,0.0,0.0,0.0,0.0,0.0,0.0,0.0,0.0,0.0,0.0,0.0,0.0,0.0,0.0,0.0,0.0,0.0,0.0,0.0,0.0,0.0,0.0,0.0,0.0,0.0,0.0,0.0,0.0,0.0,0.0,0.0,0.0,0.0,0.0,0.0,0.0,0.0,0.0,0.0,0.0,0.0,0.0,0.0,0.0,0.0,0.0,0.0,0.0,0.0,0.0,0.0,0.0,0.0,0.0,0.0,0.0,0.0,-3.4392,-3.6309,-3.7575,-3.8009,-3.752,-3.5584,-3.3031,0.0,0.0,0.0,0.0,0.0,0.0,0.0,0.0,0.0,0.0,0.0,0.0,0.0,0.0,0.0,0.0,0.0,0.0,0.0,0.0,0.0,0.0,0.0,0.0,0.0,0.0,0.0,0.0,0.0,0.0,0.0,0.0,0.0,0.0,0.0,0.0,0.0,0.0,0.0,0.0,0.0,0.0,0.0,0.0,0.0,0.0,0.0,0.0,0.0,0.0,0.0,0.0,0.0,0.0,0.0,0.0,0.0,0.0,0.0,0.0,0.0,0.0,0.0,0.0,0.0,0.0,0.0,0.0,0.0,0.0,0.0,0.0,0.0,0.0,0.0,0.0,0.0,0.0,0.0,0.0,0.0,0.0,0.0,0.0,0.0,0.0,0.0,0.0,0.0,0.0,0.0,0.0,0.0,0.0,0.0,0.0,0.0,0.0,0.0,0.0,0.0,0.0,0.0,0.0,0.0,0.0,0.0,-3.3043,-3.5372,-3.7122,-3.7865,-3.8209,-3.8172,-3.6526,-3.3849,-3.011,0.0,0.0,0.0,0.0,0.0,0.0,0.0,0.0,0.0,0.0,0.0,0.0,0.0,0.0,0.0,0.0,0.0,0.0,0.0,0.0,0.0,0.0,0.0,0.0,0.0,0.0,0.0,0.0,0.0,0.0,0.0,0.0,0.0,0.0,0.0,0.0,0.0,0.0,-1.9128,-2.0658,0.0,0.0,0.0,0.0,0.0,0.0,0.0,0.0,-2.0285,0.0,0.0,0.0,0.0,0.0,0.0,0.0,0.0,0.0,0.0,0.0,0.0,0.0,0.0,0.0,0.0,0.0,0.0,0.0,0.0,0.0,0.0,0.0,0.0,0.0,0.0,0.0,0.0,0.0,0.0,0.0,0.0,0.0,0.0,0.0,0.0,0.0,0.0,0.0,0.0,0.0,0.0,0.0,0.0,0.0,0.0,0.0,0.0,0.0,0.0,0.0,0.0,0.0,0.0,0.0,0.0,-3.0932,-3.277,-3.5081,-3.7919,-3.8118,-3.8209,-3.8138,-3.5983,-3.3538,-3.0871,0.0,0.0,0.0,0.0,0.0,0.0,0.0,0.0,0.0,0.0,0.0,0.0,0.0,0.0,0.0,0.0,0.0,0.0,0.0,0.0,0.0,0.0,0.0,0.0,0.0,0.0,0.0,0.0,0.0,0.0,0.0,0.0,0.0,0.0,0.0,0.0,0.0,0.0,0.0,-2.2707,-2.3282,0.0,0.0,0.0,0.0,0.0,0.0,0.0,0.0,-2.0978,0.0,0.0,0.0,0.0,0.0,0.0,0.0,0.0,0.0,0.0,0.0,0.0,0.0,0.0,0.0,0.0,0.0,0.0,0.0,0.0,0.0,0.0,0.0,0.0,0.0,0.0,0.0,0.0,0.0,0.0,0.0,0.0,0.0,0.0,0.0,0.0,0.0,0.0,0.0,0.0,0.0,0.0,0.0,0.0,0.0,0.0,0.0,0.0,0.0,0.0,0.0,0.0,0.0,0.0,0.0,-3.1115,-3.3534,-3.5862,-3.8118,-3.8209,-3.8209,-3.8154,-3.5856,-3.3465,0.0,0.0,0.0,0.0,0.0,0.0,0.0,0.0,0.0,0.0,0.0,0.0,0.0,0.0,0.0,0.0,0.0,0.0,0.0,0.0,0.0,0.0,0.0,0.0,0.0,0.0,0.0,0.0,0.0,0.0,0.0,0.0,0.0,0.0,0.0,0.0,0.0,0.0,0.0,0.0,-2.3876,-2.4534,-2.4942,0.0,0.0,0.0,0.0,0.0,0.0,-2.3081,-2.2826,0.0,0.0,0.0,0.0,0.0,0.0,0.0,0.0,0.0,0.0,0.0,0.0,0.0,0.0,0.0,0.0,0.0,0.0,0.0,0.0,0.0,0.0,0.0,0.0,0.0,0.0,0.0,0.0,0.0,0.0,0.0,0.0,0.0,0.0,0.0,0.0,0.0,0.0,0.0,0.0,0.0,0.0,0.0,0.0,0.0,0.0,0.0,0.0,0.0,0.0,0.0,0.0,0.0,0.0,0.0,-3.1394,-3.4211,-3.6479,-3.8118,-3.8209,-3.8209,-3.8172,-3.5711,-3.3302,0.0,0.0,0.0,0.0,0.0,0.0,0.0,0.0,0.0,0.0,0.0,0.0,0.0,0.0,0.0,0.0,0.0,0.0,0.0,0.0,0.0,0.0,0.0,0.0,0.0,0.0,0.0,0.0,0.0,0.0,0.0,0.0,0.0,0.0,0.0,0.0,0.0,0.0,0.0,0.0,0.0,-2.5534,-2.6331,-2.5959,0.0,0.0,0.0,0.0,-2.5135,-2.5356,0.0,0.0,0.0,0.0,0.0,0.0,0.0,0.0,0.0,0.0,0.0,0.0,0.0,0.0,0.0,0.0,0.0,0.0,0.0,0.0,0.0,0.0,0.0,0.0,0.0,0.0,0.0,0.0,0.0,0.0,0.0,0.0,0.0,0.0,0.0,0.0,0.0,0.0,0.0,0.0,0.0,0.0,0.0,0.0,0.0,0.0,0.0,0.0,0.0,0.0,0.0,0.0,0.0,0.0,0.0,0.0,-3.2038,-3.3924,-3.5952,-3.8082,-3.8209,-3.8209,-3.8172,-3.5168,-3.2741,0.0,0.0,0.0,0.0,0.0,0.0,0.0,0.0,0.0,0.0,0.0,0.0,0.0,0.0,0.0,0.0,0.0,0.0,0.0,0.0,0.0,0.0,0.0,0.0,0.0,0.0,0.0,0.0,0.0,0.0,0.0,0.0,0.0,0.0,0.0,0.0,0.0,0.0,0.0,0.0,0.0,-2.6337,-2.7152,-2.7236,-2.7205,0.0,0.0,-2.7072,-2.684,-2.7602,0.0,0.0,0.0,0.0,0.0,0.0,0.0,0.0,0.0,0.0,0.0,0.0,0.0,0.0,0.0,0.0,0.0,0.0,0.0,0.0,0.0,0.0,0.0,0.0,0.0,0.0,0.0,0.0,0.0,0.0,0.0,0.0,0.0,0.0,0.0,0.0,0.0,0.0,0.0,0.0,0.0,0.0,0.0,0.0,0.0,0.0,0.0,0.0,0.0,0.0,0.0,0.0,0.0,0.0,0.0,-2.8038,-3.2201,-3.4286,-3.625,-3.8118,-3.8209,-3.8209,-3.8209,-3.5512,-3.3121,0.0,0.0,0.0,0.0,0.0,0.0,0.0,0.0,0.0,0.0,0.0,0.0,0.0,0.0,0.0,0.0,0.0,0.0,0.0,0.0,0.0,0.0,0.0,0.0,0.0,0.0,0.0,0.0,0.0,0.0,0.0,0.0,0.0,0.0,0.0,0.0,0.0,0.0,0.0,0.0,0.0,0.0,-2.8576,-2.9207,0.0,0.0,0.0,-2.9541,-2.9388,0.0,0.0,0.0,0.0,0.0,0.0,0.0,0.0,0.0,0.0,0.0,0.0,0.0,0.0,0.0,0.0,0.0,0.0,0.0,0.0,0.0,0.0,0.0,0.0,0.0,0.0,0.0,0.0,0.0,0.0,0.0,0.0,0.0,0.0,0.0,0.0,0.0,0.0,0.0,0.0,0.0,0.0,0.0,0.0,0.0,0.0,0.0,0.0,0.0,0.0,0.0,0.0,0.0,0.0,0.0,0.0,0.0,-3.2522,-3.4893,-3.6779,-3.8138,-3.8209,-3.8209,-3.8172,-3.5856,0.0,0.0,0.0,0.0,0.0,0.0,0.0,0.0,0.0,0.0,0.0,0.0,0.0,0.0,0.0,0.0,0.0,0.0,0.0,0.0,0.0,0.0,0.0,0.0,0.0,0.0,0.0,-1.3184,0.0,0.0,0.0,0.0,0.0,0.0,0.0,0.0,0.0,0.0,0.0,0.0,0.0,0.0,-2.8594,-3.0183,-3.1134,-3.1524,0.0,0.0,-3.1905,-3.1706,-3.1224,-3.0319,0.0,0.0,0.0,0.0,0.0,0.0,0.0,0.0,0.0,0.0,0.0,0.0,0.0,0.0,0.0,0.0,0.0,0.0,0.0,0.0,0.0,0.0,0.0,0.0,0.0,0.0,0.0,0.0,0.0,0.0,0.0,0.0,0.0,0.0,0.0,0.0,0.0,0.0,0.0,0.0,0.0,0.0,0.0,0.0,0.0,0.0,0.0,0.0,0.0,0.0,0.0,0.0,0.0,0.0,-2.9352,-3.3245,-3.5709,-3.7339,-3.8172,-3.8209,-3.8209,-3.8156,-3.5856,-3.3484,0.0,0.0,0.0,0.0,0.0,0.0,0.0,0.0,0.0,0.0,0.0,0.0,0.0,0.0,0.0,0.0,0.0,0.0,0.0,0.0,0.0,0.0,0.0,0.0,0.0,0.0,0.0,0.0,0.0,0.0,0.0,0.0,0.0,0.0,0.0,0.0,0.0,0.0,0.0,0.0,0.0,-3.0219,-3.1818,-3.2723,-3.3484,0.0,-3.4335,-3.4117,-3.3339,-3.3574,-3.256,-2.8836,0.0,0.0,0.0,0.0,0.0,0.0,0.0,0.0,0.0,0.0,0.0,0.0,0.0,0.0,0.0,0.0,0.0,0.0,0.0,0.0,0.0,0.0,0.0,0.0,0.0,0.0,0.0,0.0,0.0,0.0,0.0,0.0,0.0,0.0,0.0,0.0,0.0,0.0,0.0,0.0,0.0,0.0,0.0,0.0,0.0,0.0,0.0,0.0,0.0,0.0,0.0,0.0,0.0,-2.9658,-3.4099,-3.6524,-3.8337,-3.9532,-3.917,-3.8952,-3.8952,-3.6598,-3.4208,0.0,0.0,0.0,0.0,0.0,0.0,0.0,0.0,0.0,0.0,0.0,0.0,0.0,0.0,0.0,0.0,0.0,0.0,0.0,0.0,0.0,0.0,0.0,0.0,0.0,0.0,0.0,0.0,-1.9336,-2.0405,-2.048,0.0,0.0,0.0,0.0,0.0,0.0,0.0,0.0,0.0,0.0,-3.2415,-3.3538,-3.4787,0.0,0.0,-3.5439,-3.5768,-3.4891,-3.4441,-3.3474,-3.126,-2.9816,0.0,0.0,0.0,0.0,0.0,0.0,0.0,0.0,0.0,0.0,0.0,0.0,0.0,0.0,0.0,0.0,0.0,0.0,0.0,0.0,0.0,0.0,0.0,0.0,0.0,0.0,0.0,0.0,0.0,0.0,0.0,0.0,0.0,0.0,0.0,0.0,0.0,0.0,0.0,0.0,0.0,0.0,0.0,0.0,0.0,0.0,0.0,0.0,0.0,0.0,0.0,0.0,-3.026,-3.4555,-3.7196,-3.9188,-4.0456,-4.0003,-3.9604,-3.9369,-3.7522,-3.5276,0.0,0.0,0.0,0.0,0.0,0.0,0.0,0.0,0.0,0.0,0.0,0.0,0.0,0.0,0.0,0.0,0.0,0.0,0.0,0.0,0.0,0.0,0.0,0.0,0.0,0.0,0.0,0.0,-2.0808,-2.1225,-2.1028,0.0,0.0,0.0,0.0,0.0,0.0,0.0,0.0,0.0,0.0,-3.486,-3.5844,-3.6946,-3.7255,-3.612,-3.668,-3.6952,-3.6007,-3.5281,-3.4349,-3.3017,0.0,0.0,0.0,0.0,0.0,0.0,0.0,0.0,0.0,0.0,0.0,0.0,0.0,0.0,0.0,0.0,0.0,0.0,0.0,0.0,0.0,0.0,0.0,0.0,0.0,0.0,0.0,-2.2674,0.0,0.0,-2.0426,0.0,0.0,0.0,0.0,0.0,0.0,0.0,0.0,0.0,0.0,0.0,0.0,0.0,0.0,0.0,0.0,0.0,0.0,0.0,0.0,0.0,0.0,-3.1347,-3.4588,-3.7775,-3.9749,-4.051,-4.0492,-4.0166,-3.946,-3.8589,-3.6633,-3.3411,0.0,0.0,0.0,0.0,0.0,0.0,0.0,0.0,0.0,0.0,0.0,0.0,0.0,0.0,0.0,0.0,0.0,0.0,0.0,0.0,0.0,0.0,0.0,0.0,0.0,0.0,-1.9996,-2.0798,-2.1017,0.0,0.0,0.0,0.0,0.0,0.0,0.0,0.0,0.0,-3.2977,-3.5403,-3.7469,-3.885,-3.912,-3.9085,-3.896,-3.8366,-3.7576,-3.67,-3.6221,-3.5361,0.0,0.0,0.0,0.0,0.0,0.0,0.0,0.0,0.0,0.0,0.0,0.0,0.0,0.0,0.0,0.0,0.0,0.0,0.0,0.0,0.0,0.0,0.0,0.0,0.0,0.0,0.0,-2.6183,-2.6106,0.0,0.0,0.0,0.0,0.0,0.0,0.0,0.0,0.0,0.0,0.0,-3.2436,-3.2437,0.0,0.0,0.0,0.0,0.0,0.0,0.0,0.0,0.0,0.0,0.0,0.0,-3.2361,-3.5993,-3.8737,-4.0782,-4.2031,-4.156,-4.118,-4.0908,-3.9082,-3.6065,-3.1881,0.0,0.0,0.0,0.0,0.0,0.0,0.0,0.0,0.0,0.0,0.0,0.0,0.0,0.0,0.0,0.0,0.0,0.0,0.0,0.0,0.0,0.0,0.0,0.0,0.0,-2.1312,0.0,0.0,0.0,0.0,0.0,0.0,0.0,0.0,0.0,0.0,-3.0296,-3.2977,-3.6164,-3.8124,-3.9409,-3.9824,-4.0253,-4.0359,0.0,0.0,0.0,0.0,0.0,0.0,0.0,0.0,0.0,0.0,0.0,0.0,0.0,0.0,-3.32,-3.1197,-3.017,-2.9554,-2.9332,0.0,0.0,0.0,0.0,0.0,0.0,0.0,0.0,0.0,0.0,0.0,0.0,0.0,0.0,-2.9389,-2.9299,-2.8273,0.0,0.0,0.0,0.0,0.0,0.0,0.0,0.0,-3.3612,-3.4901,-3.5577,-3.5555,-3.5536,-3.5466,-3.4172,-3.1707,0.0,0.0,0.0,0.0,0.0,0.0,0.0,0.0,-3.3785,-3.712,-3.9643,-4.1487,-4.2563,-4.2149,-4.1674,-4.1198,-3.8793,-3.5811,-3.2198,-3.0467,-2.8167,0.0,0.0,0.0,0.0,0.0,0.0,0.0,0.0,0.0,0.0,0.0,0.0,0.0,0.0,0.0,0.0,0.0,0.0,0.0,0.0,0.0,0.0,0.0,-2.2782,0.0,0.0,0.0,0.0,0.0,0.0,0.0,0.0,0.0,-3.1093,-3.3345,-3.5989,-3.8645,-4.0077,-4.087,-4.0971,0.0,0.0,0.0,0.0,0.0,0.0,0.0,-3.9083,-3.8499,-3.8239,-3.8203,-3.8482,-3.8976,-3.9306,-3.9258,0.0,0.0,-3.4751,-3.3506,-3.294,-3.296,-3.2977,-3.3114,-3.3591,-3.4086,-3.455,0.0,0.0,0.0,0.0,-3.1637,0.0,0.0,0.0,-3.2701,-3.2458,0.0,-3.0819,0.0,0.0,0.0,0.0,-2.9259,-3.1881,0.0,0.0,-3.7254,-3.8355,-3.7972,-3.7887,-3.7866,-3.7775,-3.6797,-3.5899,-3.4888,-3.0145,0.0,0.0,0.0,0.0,0.0,0.0,-3.5493,-3.7882,-4.0347,-4.1803,-4.2142,-4.2139,-4.1558,-4.0297,-3.7996,-3.6011,-3.442,-3.2798,-3.0525,-2.7618,-2.6069,0.0,0.0,0.0,0.0,0.0,0.0,0.0,0.0,0.0,0.0,0.0,0.0,0.0,0.0,0.0,0.0,0.0,0.0,0.0,0.0,-2.2722,0.0,0.0,0.0,0.0,0.0,0.0,0.0,0.0,0.0,-3.4301,-3.3861,-3.6268,-3.8741,-4.0438,0.0,0.0,0.0,0.0,-4.1321,-4.1709,-4.1047,-4.046,-4.035,-4.0786,-4.0804,-3.9776,0.0,0.0,-4.128,-4.1383,-4.1435,-4.1314,-4.1745,-4.1248,-3.7905,-3.6626,-3.6115,-3.6081,-3.6115,-3.6081,-3.6115,-3.6331,-3.6524,-3.7553,0.0,0.0,0.0,0.0,-3.602,-3.6945,-3.8396,-3.8184,-3.7811,-3.7266,-3.6289,0.0,0.0,0.0,0.0,0.0,0.0,-3.7124,-3.8729,-4.0052,-4.0776,-4.0991,-4.1,-4.1,-4.0924,-3.9625,-3.8598,-3.7806,-3.5351,-3.2747,-3.0107,0.0,0.0,0.0,0.0,-3.6138,-3.8338,-3.9747,-4.0756,-4.1402,-4.1402,-4.0958,-3.9959,-3.9254,-3.8131,-3.6544,-3.4956,-3.319,-3.1299,-2.8781,0.0,0.0,0.0,0.0,0.0,0.0,0.0,0.0,0.0,0.0,0.0,0.0,0.0,0.0,0.0,0.0,0.0,0.0,0.0,-2.3665,-2.4605,-2.514,0.0,0.0,0.0,0.0,0.0,0.0,0.0,0.0,0.0,-3.9449,-4.0034,-4.1245,0.0,0.0,-4.3658,-4.3699,-4.318,-4.2876,-4.3028,-4.263,0.0,-4.2449,-4.24,-4.2257,-4.1859,-4.2371,-4.2848,-4.2777,-4.3278,-4.3491,-4.2878,-4.2946,-4.2584,-4.118,-4.0205,-3.9713,-3.9679,-3.9679,-3.9883,-4.0341,-4.0459,-4.0476,-4.1878,-4.0534,-3.8786,-3.8475,-3.9118,-3.9101,-3.9898,-4.1197,-4.089,-4.0557,-4.018,-3.9661,-3.8265,-3.6228,-3.5549,0.0,0.0,0.0,-3.9583,-4.1231,-4.1639,-4.1978,-4.2286,-4.2303,-4.2303,-4.2252,-4.139,-4.0738,-4.0231,-3.9099,-3.7515,-3.545,0.0,-3.3242,-3.4132,-3.5735,-3.737,-3.8955,-3.9931,-4.0521,-4.0827,-4.0655,-4.0281,-3.9775,-3.9436,-3.8792,-3.7819,-3.6548,-3.5181,-3.3752,-3.1446,-2.8677,0.0,0.0,0.0,0.0,0.0,0.0,0.0,0.0,0.0,0.0,0.0,-1.9957,-2.011,0.0,0.0,0.0,-2.2514,-2.4147,-2.6379,-2.6955,0.0,0.0,0.0,0.0,0.0,0.0,0.0,-3.7972,-4.0139,-4.193,-4.3023,-4.3042,-4.3276,-4.4276,-4.4418,-4.4285,-4.3851,0.0,-4.3464,-4.3717,-4.3578,-4.3468,-4.3578,-4.3632,-4.3619,-4.3469,-4.3664,-4.3859,-4.3893,-4.4282,-4.4412,-4.4012,-4.3876,-4.3741,-4.3284,-4.2828,-4.2303,-4.1762,-4.1644,-4.1796,-4.2219,-4.2303,-4.2303,-4.5162,-4.5512,-4.239,-4.1391,-4.1835,-4.1784,-4.2013,-4.2431,-4.1762,-4.151,-4.1562,-4.1425,-4.0773,-3.9669,-3.9071,0.0,-4.0618,-4.066,-4.1282,-4.2455,-4.2472,-4.2455,-4.2455,-4.2489,-4.2472,-4.2516,-4.2405,-4.2334,-4.2166,-4.1555,-4.1175,-4.0891,-3.7783,-3.6147,-3.6203,-3.7683,-3.8872,-3.9576,-4.0487,-4.0733,-4.0319,-3.9876,-3.9651,-3.9661,-3.8896,-3.8452,-3.8369,-3.7559,-3.6506,-3.5214,-3.3823,-3.1524,-2.8202,0.0,0.0,0.0,0.0,0.0,0.0,0.0,0.0,0.0,0.0,0.0,0.0,0.0,0.0,-2.3755,-2.4413,0.0,-2.9312,-2.9818,0.0,0.0,0.0,-3.4685,-3.7577,-3.8647,-4.0039,-4.2216,0.0,0.0,-4.4946,-4.5169,-4.4841,-4.368,-4.4096,-4.4269,-4.345,-4.3395,-4.3509,-4.4018,-4.4006,-4.396,-4.3987,-4.4357,-4.4612,-4.449,-4.4598,-4.4564,-4.4564,-4.4564,-4.4598,-4.4547,-4.4581,-4.4564,-4.4581,-4.4462,-4.4158,-4.2726,-4.2533,-4.2489,-4.2591,-4.2591,-4.2625,-4.6363,-4.6464,-4.5637,-4.5089,-4.4671,-4.4094,-4.3931,-4.4056,-4.3887,-4.3481,-4.2922,-4.2895,-4.2398,-4.1621,-4.1477,-4.1876,-4.2678,-4.2678,-4.3186,-4.4039,-4.4056,-4.4056,-4.4056,-4.4056,-4.4073,-4.4022,-4.342,-4.3122,-4.3061,-4.2287,-4.1799,-4.1613,-4.0712,-3.9735,-3.8724,-3.853,-3.8732,-3.9376,-3.9595,-3.967,-3.9573,-3.9441,-3.9405,-3.9388,-3.9186,-3.8811,-3.8264,-3.75,-3.6688,-3.5809,-3.4492,-3.2845,-3.0825,-2.826,0.0,0.0,0.0,0.0,0.0,0.0,0.0,0.0,0.0,-2.4818,-2.5186,0.0,-2.8731,0.0,-2.9126,-3.0538,-3.2,-3.3702,0.0,0.0,-3.8095,-3.9432,-4.0182,-4.1538,-4.2822,-4.3929,-4.4771,-4.5301,-4.5376,-4.5761,-4.5486,-4.4033,-4.4479,-4.4872,-4.4655,-4.4504,-4.4473,-4.4545,-4.4487,-4.4427,-4.4438,-4.4563,-4.4654,-4.4598,-4.4598,-4.4598,-4.4598,-4.4598,-4.4598,-4.4598,-4.4598,-4.4598,-4.4598,-4.4598,-4.4496,-4.4141,-4.4056,-4.4073,-4.4056,-4.4039,-4.4039,-4.6989,-4.7259,-4.6938,-4.6752,-4.6604,-4.5889,-4.5596,-4.5596,-4.5596,-4.5314,-4.4925,-4.488,-4.4688,-4.4299,-4.4299,-4.435,-4.4406,-4.4434,-4.4485,-4.4598,-4.4598,-4.4598,-4.4598,-4.4598,-4.4598,-4.4581,-4.4147,-4.3899,-4.3765,-4.3311,-4.2998,-4.2875,-4.2473,-4.1833,-4.1015,-4.0174,-3.99,-4.0216,-3.9945,-3.963,-3.9315,-3.9315,-3.9315,-3.9299,-3.9,-3.8626,-3.8186,-3.7516,-3.6771,-3.6025,-3.5278,-3.4041,-3.2232,-3.0364,-2.841,0.0,0.0,0.0,0.0,0.0,0.0,0.0,0.0,0.0,0.0,0.0,-3.253,-3.283,-3.3327,-3.4408,-3.6381,-3.7497,-3.8683,-4.0091,-4.1159,-4.2129,-4.3087,-4.377,-4.4471,-4.5214,-4.5517,-4.5513,-4.5119,-4.5338,-4.511,-4.3906,-4.4253,-4.4586,-4.4558,-4.4508,-4.4525,-4.4581,-4.4525,-4.4514,-4.457,-4.4598,-4.4598,-4.4598,-4.4598,-4.4598,-4.4598,-4.4598,-4.4598,-4.4598,-4.4598,-4.4598,-4.4598,-4.4598,-4.4598,-4.4598,-4.4598,-4.4598,-4.4598,-4.4598,-4.4598,-4.7462,-4.7986,-4.7344,-4.7445,-4.7973,-4.7344,-4.6972,-4.6786,-4.6786,-4.6786,-4.6786,-4.6786,-4.6786,-4.6786,-4.6786,-4.6447,-4.5855,-4.5855,-4.55,-4.4902,-4.4886,-4.4886,-4.4886,-4.4801,-4.475,-4.475,-4.4666,-4.4514,-4.431,-4.4281,-4.4196,-4.4051,-4.3416,-4.3013,-4.287,-4.2079,-4.1607,-4.138,-4.0729,-4.0094,-3.9448,-3.9348,-3.9315,-3.9282,-3.8676,-3.8245,-3.8037,-3.7433,-3.6721,-3.5909,-3.5876,-3.4982,-3.31,-3.2199,-3.0713,0.0,-2.806,0.0,0.0,0.0,0.0,0.0,0.0,0.0,0.0,-3.4626,-3.6048,-3.7445,-3.7069,-3.7917,-4.084,-4.0906,-4.1534,-4.331,-4.3298,-4.3845,-4.5602,-4.554,-4.559,-4.6297,-4.6004,-4.549,-4.4964,-4.4823,-4.4626,-4.4125,-4.4175,-4.4327,-4.4181,-4.4177,-4.4184,-4.4253,-4.4349,-4.4569,-4.4609,-4.4699,-4.4705,-4.4621,-4.4542,-4.4542,-4.4514,-4.4514,-4.4542,-4.4542,-4.4525,-4.457,-4.4598,-4.4598,-4.4598,-4.4598,-4.4598,-4.4598,-4.4598,-4.4598,-4.4598,-4.868,-4.8781,-4.8646,-4.8663,-4.8798,-4.8646,-4.7902,-4.6786,-4.6786,-4.6786,-4.6786,-4.6786,-4.6786,-4.6786,-4.6786,-4.6718,-4.6583,-4.6583,-4.6515,-4.638,-4.6363,-4.638,-4.6329,-4.5754,-4.5483,-4.5449,-4.4874,-4.4497,-4.431,-4.4196,-4.4068,-4.3939,-4.366,-4.3472,-4.3459,0.0,0.0,0.0,-4.0729,-4.0326,-4.0177,-3.9613,-3.9315,-3.9299,-3.9166,0.0,-3.7384,-3.7185,-3.6489,-3.5197,-3.5098,0.0,0.0,0.0,0.0,0.0,0.0,0.0,0.0,0.0,0.0,0.0,-3.6443,-3.6547,-3.5445,-3.7182,-3.8528,-3.8912,-3.9904,-4.0836,-4.1583,-4.2694,-4.3523,-4.3952,-4.4992,-4.5831,-4.6265,-4.6696,-4.7109,-4.7212,-4.7165,-4.6872,-4.6314,-4.6295,-4.6026,-4.5407,-4.5415,-4.5462,-4.5412,-4.466,-4.4147,-4.4188,-4.4749,-4.5012,-4.4671,-4.5128,-4.5194,-4.4597,-4.4384,-4.436,-4.4296,-4.4279,-4.4258,-4.4377,-4.4367,-4.4446,-4.4604,-4.4598,-4.4654,-4.4615,-4.4632,-4.4598,-4.4598,-4.4598,-4.4598,-5.0101,-5.0101,-5.0101,-5.0101,0.0,-4.9695,-4.9103,-4.8409,-4.8037,-4.7885,-4.7885,-4.7885,-4.7885,-4.7885,-4.7885,-4.7682,-4.7344,-4.7344,-4.7158,-4.6786,-4.6786,-4.6786,-4.6769,-4.6413,-4.6244,-4.621,-4.5483,-4.5099,-4.498,-4.454,-4.427,-4.4114,-4.3993,-4.3877,-4.3734,-4.3658,-4.3035,-4.1972,-4.1607,-4.1094,-4.0426,-4.0028,-3.968,-3.9315,-3.8967,0.0,0.0,0.0,0.0,0.0,0.0,0.0,0.0,0.0,0.0,-3.5396,-3.5129,-3.512,-3.5518,-3.658,-3.7586,-3.837,-3.9754,-4.0014,-3.8707,-3.9898,-4.0959,-4.1643,-4.2722,-4.3555,-4.4044,-4.4864,-4.5494,-4.5772,-4.6216,-4.664,-4.6897,-4.7021,-4.709,-4.7079,-4.6847,-4.657,-4.6317,-4.6257,-4.6135,-4.5844,-4.5798,-4.5814,-4.5763,-4.5338,-4.4977,-4.502,-4.547,-4.574,-4.5543,-4.5723,-4.5879,-4.5404,-4.5274,-4.5244,-4.5202,-4.5172,-4.5202,-4.5274,-4.5274,-4.535,-4.5508,-4.552,-4.5549,-4.5669,-4.5698,-4.5686,-4.5635,-4.5139,-4.4598,-5.1234,-5.1234,-5.1234,-5.1234,-5.1166,-5.0557,-5.0304,-5.0219,-4.9373,0.0,0.0,-4.9018,-4.9018,-4.9018,-4.9018,-4.868,-4.8091,-4.8075,-4.7767,-4.7175,-4.7192,-4.7175,-4.7175,-4.7056,-4.6989,-4.6955,-4.6244,-4.586,-4.5814,-4.5235,-4.4761,-4.4483,-4.4438,-4.4214,-4.3852,-4.3704,-4.33,-4.2704,-4.2555,-4.1939,-4.0823,-4.0658,-4.0243,-3.9514,-3.8907,-3.8477,-3.8212,-3.7606,-3.7317,-3.7301,-3.7275,-3.7367,-3.7483,-3.7483,-3.7549,-3.7698,-3.8261,-3.8642,-3.8791,-3.9454,-4.0194,-4.0912,-4.2054,-4.2394,-4.1713,-4.2156,-4.2919,-4.4116,-4.4776,-4.5415,-4.6223,-4.6428,-4.6701,-4.7164,-4.6908,-4.6904,-4.7312,-4.7157,-4.7029,-4.6885,-4.6603,-4.6179,-4.6277,-4.6293,-4.6195,-4.6195,-4.6311,-4.6179,-4.6146,-4.5962,-4.5742,-4.5879,-4.6185,-4.643,-4.6327,-4.6441,-4.6444,-4.6179,-4.6163,-4.6232,-4.6202,-4.6232,-4.6263,-4.6112,-4.6277,-4.6331,-4.6468,-4.6426,-4.6621,-4.6739,-4.6786,-4.6786,-4.6684,-4.5884,-4.5055,-5.1202,-5.1234,-5.1234,-5.1234,-5.1168,-5.1083,-5.1048,-5.0947,-4.961,-4.9018,-4.9018,-4.9018,-4.9018,-4.9018,-4.9018,-4.8951,-4.8849,-4.8849,-4.8798,-4.8697,-4.8697,-4.8697,-4.8663,-4.8054,-4.7736,-4.7699,-4.7005,-4.6574,-4.6376,-4.6275,-4.5816,-4.5144,-4.4976,-4.4497,-4.3724,-4.3628,-4.3549,-4.3433,-4.2804,-4.239,-4.2191,-4.1591,-4.0928,-4.0293,-4.0144,-3.9471,-3.8261,-3.8103,-3.8037,-3.8063,-3.8063,-3.8328,-3.895,-3.9,-3.9282,-3.9895,-4.0044,-4.0348,-4.0928,-4.1657,-4.2386,-4.3052,-4.3333,-4.3127,-4.2463,-4.2999,-4.3743,-4.4543,-4.4757,-4.5077,-4.5763,-4.5965,-4.6098,-4.616,-4.6581,-4.6915,-4.7041,-4.7463,-4.7764,-4.7764,-4.7751,-4.7636,-4.7554,-4.7603,-4.7554,-4.7636,-4.7454,-4.762,-4.7371,-4.6593,-4.5926,-4.6082,-4.6626,-4.6805,-4.66,-4.6862,-4.6884,-4.6157,-4.6143,-4.6212,-4.6105,-4.6215,-4.6277,-4.611,-4.641,-4.6542,-4.6615,-4.665,-4.6862,-4.6972,-4.6972,-4.6921,-4.6955,-4.6633,-4.6261,-5.2452,-5.2452,-5.2452,-5.2469,-5.2435,-5.1995,-5.1572,-5.1134,-5.0507,-4.9965,-4.961,-4.961,-4.9373,-4.9018,-4.9018,-4.9018,-4.9018,-4.9018,-4.9018,-4.9018,-4.9018,-4.9018,-4.8968,-4.8615,-4.8494,-4.846,-4.775,-4.7335,-4.7224,-4.6853,-4.6406,-4.5904,-4.5313,-4.472,-4.4208,-4.3827,-4.3615,-4.3582,-4.3267,-4.2903,-4.2489,-4.2158,-4.1674,-4.0978,-4.0945,-4.0663,-3.9957,-3.9934,-3.9951,-3.9951,-3.9924,-4.0073,-4.0415,-4.0431,-4.0763,-4.1475,-4.1541,-4.1856,-4.2568,-4.2903,-4.3234,-4.3565,-4.3992,-4.4059,-4.3727,-4.4009,-4.434,-4.4688,-4.5384,-4.6013,-4.6378,-4.6758,-4.699,-4.699,-4.7322,-4.7487,-4.752,-4.7769,-4.8001,-4.8001,-4.8001,-4.8001,-4.8001,-4.8001,-4.8001,-4.8001,-4.8001,-4.8001,-4.8001,-4.7454,-4.7006,-4.7119,-4.7417,-4.7483,-4.7265,-4.7479,-4.7514,-4.7135,-4.707,-4.707,-4.699,-4.7086,-4.7133,-4.7197,-4.7321,-4.751,-4.7648,-4.7821,-4.7912,-4.7986,-4.7986,-4.8003,-4.797,-4.7699,-4.7141,-5.3518,-5.3518,-5.3518,-5.3518,-5.345,-5.2841,-5.2249,-5.1726,-5.1725,-5.1302,-5.0625,-5.0422,-5.0016,-4.9543,-4.9492,-4.9509,-4.9475,-4.9323,-4.9238,-4.9238,-4.9086,-4.9018,-4.9018,-4.9018,-4.9018,-4.8951,-4.8426,-4.8156,-4.8058,-4.7564,-4.7132,-4.6716,-4.5835,-4.5243,-4.5028,-4.445,-4.4056,-4.3847,-4.383,-4.3512,-4.2771,-4.2738,-4.239,-4.1695,-4.1674,-4.1591,-4.1397,-4.1397,-4.1463,-4.164,-4.1629,-4.1695,-4.1905,-4.1877,-4.2142,-4.2671,-4.2738,-4.3052,-4.3764,-4.3995,-4.4078,-4.4095,-4.4605,-4.4937,-4.4953,-4.5102,-4.5185,-4.5317,-4.6212,-4.6908,-4.7156,-4.762,-4.8001,-4.8001,-4.8001,-4.7968,-4.8001,-4.8001,-4.8001,-4.8001,-4.8001,-4.8001,-4.8001,-4.8001,-4.8001,-4.8001,-4.8001,-4.8001,-4.8001,-4.8001,-4.8001,-4.8001,-4.8001,-4.7951,-4.8001,-4.7968,-4.7951,-4.8001,-4.7951,-4.7868,-4.7885,-4.7984,-4.8033,-4.8046,-4.8193,-4.8334,-4.8656,-4.875,-4.8793,-4.8818,-4.8832,-4.8917,-4.8849,-4.8511,-4.7919,-5.3518,-5.3518,-5.3518,-5.3518,-5.3501,-5.3399,-5.3315,-5.3247,-5.3281,-5.2841,-5.2029,-5.1403,-5.1082,-5.1014,-5.0963,-5.0914,-5.0879,-5.0304,-4.9982,-4.9898,-4.9306,-4.9018,-4.9052,-4.9035,-4.9018,-4.9001,-4.89,-4.8849,-4.8849,-4.8781,-4.8365,-4.7602,-4.6754,-4.622,-4.5977,-4.5879,-4.5421,-4.4636,-4.4589,-4.4241,-4.3532,-4.3482,-4.3151,-4.2435,-4.239,-4.2075,-4.1513,-4.1397,-4.1695,-4.2324,-4.239,-4.2688,-4.3267,-4.3367,-4.3416,-4.3482,-4.3515,-4.3827,-4.4539,-4.5218,-4.5533,-4.5582,-4.5616,-4.5682,-4.5732,-4.6295,-4.6676,-4.6692,-4.6808,-4.7222,-4.7802,-4.7984,-4.8084,-4.8117,-4.8133,-4.8001,-4.8117,-4.8001,-4.8001,-4.8001,-4.8183,-4.8017,-4.8166,-4.8199,-4.8117,-4.8233,-4.8183,-4.8133,-4.8117,-4.8034,-4.8001,-4.8001,-4.8001,-4.8001,-4.8001,-4.8001,-4.8001,-4.8001,-4.8001,-4.8001,-4.8001,-4.8082,-4.8163,-4.8179,-4.8421,-4.8644,-4.8658,-4.8753,-4.897,-4.9018,-4.9018,-4.9018,-4.9001,-4.89,-4.8528,-5.3518,-5.3518,-5.3518,-5.3518,-5.3518,-5.3518,-5.3518,-5.3518,-5.3518,-5.3315,-5.301,-5.2689,-5.208,-5.1234,-5.1234,-5.1234,-5.12,-5.0896,-5.0744,-5.0727,-5.0439,-5.0067,-4.9678,-4.9644,-4.9441,-4.9035,-4.9018,-4.9018,-4.9018,-4.9018,-4.8787,-4.8296,-4.7605,-4.7096,-4.6851,-4.6433,-4.6004,-4.5552,-4.5521,-4.5324,-4.4837,-4.4059,-4.3449,-4.3184,-4.3135,-4.3019,-4.2738,-4.2688,-4.282,-4.3118,-4.3151,-4.3284,-4.3582,-4.4026,-4.4241,-4.4274,-4.4671,-4.5019,-4.5317,-4.5616,-4.5798,-4.5798,-4.6195,-4.646,-4.6477,-4.7123,-4.7554,-4.7554,-4.7554,-4.7686,-4.8001,-4.8398,-4.8663,-4.8713,-4.9044,-4.9293,-4.9326,-4.9293,-4.9309,-4.9309,-4.9309,-4.9293,-4.9293,-4.9309,-4.9309,-4.9243,-4.8978,-4.8663,-4.8647,-4.8282,-4.8017,-4.8001,-4.8001,-4.8001,-4.8001,-4.8001,-4.8001,-4.8001,-4.8001,-4.8001,-4.8001,-4.8033,-4.8115,-4.8244,-4.85,-4.869,-4.8815,-4.8877,-4.9018,-4.9018,-4.9018,-4.9018,-4.9018,-4.9018,-4.8832,-5.3518,-5.3518,-5.3518,-5.3518,-5.3518,-5.3518,-5.3518,-5.3518,-5.3518,-5.3518,-5.3518,-5.3518,-5.2909,-5.1944,-5.1843,-5.181,-5.1793,-5.1623,-5.1505,-5.1488,-5.1286,-5.0913,-5.0439,-5.0388,-5.0016,-4.9407,-4.9323,-4.9204,-4.9035,-4.9018,-4.8956,-4.8762,-4.8324,-4.7962,-4.7757,-4.7175,-4.6731,-4.6426,-4.6348,-4.6155,-4.5696,-4.4771,-4.4224,-4.4178,-4.4194,-4.4224,-4.4194,-4.4178,-4.4208,-4.4194,-4.4178,-4.4194,-4.4211,-4.4705,-4.5033,-4.5052,-4.5698,-4.6096,-4.6096,-4.6278,-4.6394,-4.6444,-4.6924,-4.7206,-4.7289,-4.7703,-4.8084,-4.8315,-4.8299,-4.8315,-4.8365,-4.8978,-4.9375,-4.9442,-4.9922,-5.0169,-5.0187,-5.022,-5.0171,-5.022,-5.0071,-5.022,-5.0204,-5.0154,-5.0104,-5.0055,-4.9723,-4.9409,-4.9309,-4.8812,-4.8332,-4.8299,-4.8166,-4.8001,-4.8001,-4.8001,-4.8001,-4.8001,-4.8001,-4.8001,-4.8001,-4.8033,-4.8066,-4.826,-4.8452,-4.8627,-4.8784,-4.8925,-4.9018,-4.9018,-4.9018,-4.9018,-4.9018,-4.9018,-4.9018,-5.3518,-5.3518,-5.3518,-5.3518,-5.3518,-5.3518,-5.3518,-5.3518,-5.3518,-5.3518,-5.3518,-5.3518,-5.3467,-5.3315,-5.3247,-5.3365,-5.3264,-5.257,-5.2266,-5.2198,-5.1606,-5.1185,-5.1134,-5.1117,-5.076,-5.0084,-5.005,-4.9712,-4.9103,-4.9035,-4.9001,-4.9001,-4.8886,-4.8841,-4.8652,-4.8425,-4.7968,-4.7226,-4.7017,-4.6575,-4.5947,-4.5765,-4.5698,-4.5698,-4.5665,-4.5582,-4.5616,-4.5665,-4.5649,-4.5665,-4.5599,-4.5632,-4.5665,-4.5715,-4.5748,-4.5864,-4.646,-4.6841,-4.6924,-4.7421,-4.7785,-4.7835,-4.7802,-4.7934,-4.7951,-4.805,-4.8398,-4.8995,-4.9127,-4.9127,-4.9193,-4.9773,-5.0137,-5.0171,-5.0237,-5.0336,-5.0286,-5.0452,-5.0253,-5.032,-5.0419,-5.0469,-5.0336,-5.022,-5.0369,-5.0369,-5.0237,-5.0154,-5.0055,-4.9525,-4.9127,-4.8945,-4.858,-4.8034,-4.805,-4.8001,-4.8001,-4.8001,-4.8001,-4.8001,-4.8017,-4.8082,-4.8163,-4.8292,-4.8532,-4.869,-4.8801,-4.8894,-4.8987,-4.9018,-4.9018,-4.9018,-4.9018,-4.9018,-4.9018,-5.3518,-5.3518,-5.3518,-5.3518,-5.3518,-5.3518,-5.3518,-5.3518,-5.3518,-5.3518,-5.3518,-5.3518,-5.3518,-5.3518,-5.3518,-5.3518,-5.3484,-5.3196,-5.3078,-5.3044,-5.2807,-5.2401,-5.1928,-5.1911,-5.1522,-5.0896,-5.0811,-5.0422,-4.9779,-4.9695,-4.9458,-4.9069,-4.9018,-4.897,-4.8909,-4.8846,-4.8539,-4.8069,-4.794,-4.7679,-4.7221,-4.7206,-4.7206,-4.7156,-4.6262,-4.5798,-4.5798,-4.5798,-4.5798,-4.5798,-4.5798,-4.5798,-4.5831,-4.6245,-4.6725,-4.7156,-4.7454,-4.7603,-4.7636,-4.7835,-4.8001,-4.8001,-4.8001,-4.8233,-4.8597,-4.873,-4.9011,-4.969,-5.027,-5.0469,-5.0518,-5.075,-5.0899,-5.0949,-5.1297,-5.1545,-5.1612,-5.1612,-5.1595,-5.1612,-5.1595,-5.1595,-5.1512,-5.1595,-5.1612,-5.1562,-5.1197,-5.0932,-5.0783,-5.0286,-4.9806,-4.979,-4.9607,-4.9425,-4.9425,-4.8514,-4.8001,-4.8001,-4.8001,-4.8001,-4.8017,-4.8082,-4.8147,-4.8388,-4.8627,-4.8753,-4.8815,-4.8925,-4.9018,-4.9018,-4.9018,-4.9018,-4.9018,-4.9018,-4.9018,-5.3518,-5.3518,-5.3518,-5.3518,-5.3518,-5.3518,-5.3518,-5.3518,-5.3518,-5.3518,-5.3518,-5.3518,-5.3518,-5.3518,-5.3518,-5.3518,-5.3518,-5.3501,-5.3518,-5.3518,-5.3518,-5.3213,-5.2773,-5.2689,-5.23,-5.1606,-5.1319,-5.093,-5.0473,-5.0202,-4.983,-4.939,-4.9154,-4.9018,-4.9018,-4.8987,-4.8784,-4.8547,-4.8452,-4.826,-4.8033,-4.8001,-4.8001,-4.7868,-4.7007,-4.651,-4.651,-4.651,-4.651,-4.651,-4.651,-4.651,-4.656,-4.699,-4.7471,-4.7934,-4.8001,-4.8001,-4.8001,-4.8001,-4.81,-4.8349,-4.8382,-4.8663,-4.9359,-4.9475,-4.9823,-5.0452,-5.0932,-5.1348,-5.1614,-5.1663,-5.168,-5.1713,-5.2111,-5.2409,-5.2409,-5.2393,-5.2376,-5.2326,-5.231,-5.2359,-5.2409,-5.2393,-5.2359,-5.2409,-5.1945,-5.1696,-5.158,-5.1032,-5.0551,-5.0518,-5.0286,-5.0121,-5.0005,-4.9342,-4.8696,-4.8614,-4.8215,-4.8116,-4.8082,-4.8164,-4.8244,-4.8483,-4.8642,-4.8767,-4.8877,-4.897,-4.9018,-4.9018,-4.9018,-4.9018,-4.9018,-4.9018,-4.9018,-5.3518,-5.3518,-5.3518,-5.3518,-5.3518,-5.3518,-5.3518,-5.3518,-5.3518,-5.3518,-5.3518,-5.3518,-5.3518,-5.3518,-5.3518,-5.3518,-5.3518,-5.3518,-5.3518,-5.3518,-5.3518,-5.3501,-5.3399,-5.3382,-5.3027,-5.2317,-5.1623,-5.1252,-5.1168,-5.0625,-5.0253,-4.9999,-4.9492,-4.9289,-4.9103,-4.9032,-4.8774,-4.8567,-4.8391,-4.8147,-4.805,-4.8001,-4.8001,-4.8001,-4.7885,-4.7819,-4.7885,-4.7868,-4.7819,-4.7852,-4.7868,-4.7968,-4.7819,-4.7901,-4.7984,-4.8001,-4.8034,-4.805,-4.8084,-4.815,-4.8547,-4.8961,-4.9127,-4.9425,-5.0055,-5.0237,-5.0518,-5.1148,-5.1363,-5.163,-5.2194,-5.231,-5.2293,-5.2393,-5.2393,-5.2409,-5.2409,-5.2409,-5.2409,-5.2409,-5.2409,-5.2409,-5.2409,-5.2409,-5.2409,-5.2393,-5.2343,-5.2277,-5.221,-5.1661,-5.1382,-5.1181,-5.0966,-5.0783,-5.0502,-5.0136,-4.9723,-4.931,-4.8696,-4.8346,-4.831,-4.834,-4.8485,-4.869,-4.8815,-4.8909,-4.894,-4.9018,-4.9018,-4.9018,-4.9018,-4.9018,-4.9018,-4.9018,-4.9018,-5.3518,-5.3518,-5.3518,-5.3518,-5.3518,-5.3518,-5.3518,-5.3518,-5.3518,-5.3518,-5.3518,-5.3518,-5.3518,-5.3518,-5.3518,-5.3518,-5.3518,-5.3518,-5.3518,-5.3518,-5.3518,-5.3518,-5.3518,-5.3518,-5.3382,-5.3145,-5.2909,-5.2486,-5.1995,-5.1691,-5.1386,-5.0896,-5.0642,-5.0541,-5.039,-4.9909,-4.9448,-4.9187,-4.8542,-4.8147,-4.8001,-4.8001,-4.8001,-4.8001,-4.8001,-4.8001,-4.8001,-4.8001,-4.8001,-4.8001,-4.8001,-4.8001,-4.8017,-4.8001,-4.8001,-4.805,-4.8514,-4.8763,-4.8829,-4.9226,-4.9558,-4.9823,-4.9872,-5.022,-5.0817,-5.0949,-5.1264,-5.1928,-5.2078,-5.221,-5.2359,-5.2409,-5.2409,-5.2409,-5.2409,-5.2409,-5.2409,-5.2409,-5.2409,-5.2409,-5.2409,-5.2409,-5.2409,-5.2409,-5.2409,-5.2409,-5.2409,-5.2409,-5.2359,-5.221,-5.2094,-5.2028,-5.1728,-5.1496,-5.1347,-5.1032,-5.0586,-5.0074,-4.946,-4.8691,-4.8587,-4.8714,-4.8824,-4.8801,-4.8925,-4.8987,-4.9018,-4.9018,-4.9018,-4.9018,-4.9018,-4.9018,-4.9018,-4.9018,-4.9018,-5.3518,-5.3518,-5.3518,-5.3518,-5.3518,-5.3518,-5.3518,-5.3518,-5.3518,-5.3518,-5.3518,-5.3518,-5.3518,-5.3518,-5.3518,-5.3518,-5.3518,-5.3518,-5.3518,-5.3518,-5.3518,-5.3518,-5.3518,-5.3518,-5.3518,-5.3518,-5.3501,-5.3247,-5.2756,-5.2435,-5.208,-5.1674,-5.1352,-5.1168,-5.1168,-5.0698,-5.0183,-4.9621,-4.9007,-4.8495,-4.8116,-4.8001,-4.8001,-4.8001,-4.8001,-4.8001,-4.8001,-4.8001,-4.8001,-4.805,-4.8233,-4.8415,-4.8415,-4.8663,-4.8829,-4.8912,-4.921,-4.9525,-4.9574,-4.9906,-5.0353,-5.0535,-5.0618,-5.0932,-5.1531,-5.173,-5.1978,-5.231,-5.2393,-5.2409,-5.2409,-5.2409,-5.2409,-5.2409,-5.2409,-5.2409,-5.2409,-5.2409,-5.2409,-5.2409,-5.2409,-5.2409,-5.2409,-5.2409,-5.2409,-5.2409,-5.2409,-5.2409,-5.2409,-5.2409,-5.2409,-5.2409,-5.226,-5.2177,-5.2258,-5.1928,-5.1484,-5.089,-5.0259,-4.9423,-4.8897,-4.9192,-4.9386,-4.9029,-4.8987,-4.9018,-4.9018,-4.9018,-4.9018,-4.9018,-4.9018,-4.9018,-4.9018,-4.9018,-4.9018,-5.3518,-5.3518,-5.3518,-5.3518,-5.3518,-5.3518,-5.3518,-5.3518,-5.3518,-5.3518,-5.3518,-5.3518,-5.3518,-5.3518,-5.3518,-5.3518,-5.3518,-5.3518,-5.3518,-5.3518,-5.3518,-5.3518,-5.3518,-5.3518,-5.3518,-5.3518,-5.3518,-5.3484,-5.3331,-5.279,-5.2384,-5.2334,-5.1826,-5.142,-5.1506,-5.132,-5.0754,-5.004,-4.9639,-4.9025,-4.8183,-4.8017,-4.8067,-4.8117,-4.815,-4.8216,-4.8349,-4.8365,-4.8199,-4.8133,-4.863,-4.8995,-4.9193,-4.979,-5.002,-5.0021,-5.0169,-5.027,-5.027,-5.0485,-5.075,-5.1315,-5.1398,-5.1647,-5.2177,-5.2277,-5.2293,-5.2409,-5.2409,-5.2409,-5.2409,-5.2409,-5.2409,-5.2409,-5.2409,-5.2409,-5.2409,-5.2409,-5.2409,-5.2409,-5.2409,-5.2409,-5.2409,-5.2409,-5.2409,-5.2409,-5.2409,-5.2409,-5.2409,-5.2409,-5.2409,-5.2409,-5.2409,-5.2409,-5.2393,-5.2381,-5.1885,-5.139,-5.096,-5.0492,-4.9498,-4.9577,-4.9567,-4.921,-4.8987,-4.9018,-4.9018,-4.9018,-4.9018,-4.9018,-4.9018,-4.9018,-4.9018,-4.9018,-4.9018,-5.3518,-5.3518,-5.3518,-5.3518,-5.3518,-5.3518,-5.3518,-5.3518,-5.3518,-5.3518,-5.3518,-5.3518,-5.3518,-5.3518,-5.3518,-5.3518,-5.3518,-5.3518,-5.3518,-5.3518,-5.3518,-5.3518,-5.3518,-5.3518,-5.3518,-5.3518,-5.3518,-5.3518,-5.3484,-5.3247,-5.3145,-5.3196,-5.2926,-5.2841,-5.2858,-5.2184,-5.1664,-5.1095,-4.9992,-4.9326,-4.8812,-4.8282,-4.8282,-4.8796,-4.8812,-4.9077,-4.9541,-4.959,-4.9044,-4.8133,-4.8713,-4.911,-4.926,-4.9906,-5.0353,-5.0402,-5.075,-5.0999,-5.1098,-5.1462,-5.186,-5.2078,-5.2045,-5.2194,-5.2359,-5.2409,-5.2409,-5.2409,-5.2409,-5.2409,-5.2409,-5.2409,-5.2409,-5.2409,-5.2409,-5.2409,-5.2409,-5.2409,-5.2409,-5.2409,-5.2409,-5.2409,-5.2409,-5.2409,-5.2409,-5.2409,-5.2409,-5.2409,-5.2409,-5.2409,-5.2409,-5.2409,-5.2409,-5.2409,-5.2445,-5.2499,-5.2287,-5.1842,-5.1663,-5.1782,-5.0708,-4.995,-4.959,-4.9125,-4.9021,-4.9001,-4.9018,-4.9018,-4.9018,-4.9018,-4.9018,-4.9018,-4.9018,-4.9018,-4.9018,-5.3518,-5.3518,-5.3518,-5.3518,-5.3518,-5.3518,-5.3518,-5.3518,-5.3518,-5.3518,-5.3518,-5.3518,-5.3518,-5.3518,-5.3518,-5.3518,-5.3518,-5.3518,-5.3518,-5.3518,-5.3518,-5.3518,-5.3518,-5.3518,-5.3518,-5.3518,-5.3518,-5.3518,-5.3501,-5.3518,-5.3518,-5.3484,-5.3518,-5.3518,-5.3416,-5.2994,-5.2354,-5.1748,-5.0794,-5.0043,-4.911,-4.9028,-4.8945,-4.9243,-4.9359,-4.9823,-5.0171,-5.0204,-4.9756,-4.926,-4.9607,-5.0021,-5.0088,-5.0717,-5.1115,-5.1148,-5.1529,-5.1779,-5.1829,-5.2158,-5.2393,-5.2409,-5.2409,-5.2409,-5.2409,-5.2409,-5.2409,-5.2409,-5.2409,-5.2409,-5.2409,-5.2409,-5.2409,-5.2409,-5.2409,-5.2409,-5.2409,-5.2409,-5.2409,-5.2409,-5.2409,-5.2409,-5.2409,-5.2409,-5.2409,-5.2409,-5.2409,-5.2409,-5.2409,-5.2409,-5.2409,-5.2409,-5.2409,-5.2409,-5.2445,-5.2535,-5.2624,-5.2194,-5.1629,-5.1967,-5.1328,-5.0186,-4.954,-4.9092,-4.9038,-4.9018,-4.9018,-4.9018,-4.9018,-4.9018,-4.9018,-4.9018,-4.9018,-4.9018,-4.9018,-5.3518,-5.3518,-5.3518,-5.3518,-5.3518,-5.3518,-5.3518,-5.3518,-5.3518,-5.3518,-5.3518,-5.3518,-5.3518,-5.3518,-5.3518,-5.3518,-5.3518,-5.3518,-5.3518,-5.3518,-5.3518,-5.3518,-5.3518,-5.3518,-5.3518,-5.3518,-5.3518,-5.3518,-5.3518,-5.3518,-5.3518,-5.3518,-5.3518,-5.3518,-5.3501,-5.3399,-5.291,-5.2151,-5.1715,-5.086,-4.9857,-4.9823,-4.9806,-4.974,-5.027,-5.0535,-5.0618,-5.0568,-5.0469,-5.0436,-5.0982,-5.1133,-5.1299,-5.1962,-5.2293,-5.2224,-5.2243,-5.231,-5.2376,-5.2359,-5.2409,-5.2409,-5.2409,-5.2409,-5.2409,-5.2409,-5.2409,-5.2409,-5.2409,-5.2409,-5.2409,-5.2409,-5.2409,-5.2409,-5.2409,-5.2409,-5.2409,-5.2409,-5.2409,-5.2409,-5.2409,-5.2409,-5.2409,-5.2409,-5.2409,-5.2409,-5.2409,-5.2409,-5.2409,-5.2409,-5.2409,-5.2409,-5.2409,-5.2409,-5.2464,-5.2553,-5.2659,-5.2547,-5.1645,-5.1413,-5.1125,-5.0264,-4.9468,-4.9024,-4.9004,-4.9018,-4.9018,-4.9018,-4.9018,-4.9018,-4.9018,-4.9018,-4.9018,-4.9018,-4.9018,-5.3518,-5.3518,-5.3518,-5.3518,-5.3518,-5.3518,-5.3518,-5.3518,-5.3518,-5.3518,-5.3518,-5.3518,-5.3518,-5.3518,-5.3518,-5.3518,-5.3518,-5.3518,-5.3518,-5.3518,-5.3518,-5.3518,-5.3484,-5.3467,-5.3467,-5.3501,-5.3518,-5.3518,-5.3518,-5.3518,-5.3518,-5.3518,-5.3518,-5.3518,-5.3518,-5.3467,-5.3264,-5.2654,-5.2133,-5.1528,-5.0837,-5.0436,-5.0502,-5.0734,-5.1429,-5.1827,-5.191,-5.191,-5.1926,-5.1862,-5.1564,-5.1415,-5.1531,-5.2028,-5.2376,-5.2409,-5.2409,-5.2409,-5.2409,-5.2409,-5.2409,-5.2409,-5.2409,-5.2409,-5.2409,-5.2409,-5.2409,-5.2409,-5.2409,-5.2409,-5.2409,-5.2409,-5.2409,-5.2409,-5.2409,-5.2409,-5.2409,-5.2409,-5.2409,-5.2409,-5.2409,-5.2409,-5.2409,-5.2409,-5.2409,-5.2409,-5.2409,-5.2409,-5.2409,-5.2409,-5.2409,-5.2409,-5.2445,-5.248,-5.2535,-5.259,-5.2682,-5.25,-5.1681,-5.0961,-5.0704,-5.0227,-4.9398,-4.9075,-4.9018,-4.9018,-4.9018,-4.9018,-4.9018,-4.9018,-4.9018,-4.9018,-4.9018,-4.9018,-4.9018,-5.3518,-5.3518,-5.3518,-5.3518,-5.3518,-5.3518,-5.3518,-5.3518,-5.3518,-5.3518,-5.3518,-5.3518,-5.3518,-5.3518,-5.3518,-5.3518,-5.3518,-5.3518,-5.3518,-5.3518,-5.3518,-5.3518,-5.3365,-5.3178,-5.3093,-5.3399,-5.3518,-5.3518,-5.3518,-5.3518,-5.3518,-5.3518,-5.3518,-5.3518,-5.3518,-5.3518,-5.3264,-5.2922,-5.2535,-5.1995,-5.1317,-5.1313,-5.1347,-5.1763,-5.2194,-5.2409,-5.2376,-5.2376,-5.2393,-5.231,-5.2009,-5.1777,-5.1846,-5.2194,-5.2376,-5.2409,-5.2409,-5.2409,-5.2409,-5.2409,-5.2409,-5.2409,-5.2409,-5.2409,-5.2409,-5.2409,-5.2409,-5.2409,-5.2409,-5.2409,-5.2409,-5.2409,-5.2409,-5.2409,-5.2409,-5.2409,-5.2409,-5.2409,-5.2409,-5.2409,-5.2409,-5.2409,-5.2409,-5.2409,-5.2409,-5.2409,-5.2409,-5.2409,-5.2409,-5.2409,-5.2409,-5.2409,-5.248,-5.2535,-5.2605,-5.2662,-5.2687,-5.2302,-5.1581,-5.0924,-5.043,-4.9905,-4.9297,-4.9156,-4.9018,-4.9018,-4.9018,-4.9018,-4.9018,-4.9018,-4.9018,-4.9018,-4.9018,-4.9018,-4.9018,-5.3518,-5.3518,-5.3518,-5.3518,-5.3518,-5.3518,-5.3518,-5.3518,-5.3518,-5.3518,-5.3518,-5.3518,-5.3518,-5.3518,-5.3518,-5.3518,-5.3518,-5.3518,-5.3518,-5.3518,-5.3518,-5.3518,-5.3365,-5.3058,-5.2989,-5.3467,-5.328,-5.328,-5.3433,-5.3518,-5.3518,-5.3518,-5.3518,-5.3518,-5.3518,-5.3467,-5.3314,-5.2921,-5.2819,-5.2412,-5.1661,-5.1834,-5.1869,-5.1667,-5.168,-5.1729,-5.1729,-5.1765,-5.1891,-5.2017,-5.2017,-5.2106,-5.223,-5.239,-5.2409,-5.2409,-5.2409,-5.2409,-5.2409,-5.2409,-5.2409,-5.2409,-5.2409,-5.2409,-5.2409,-5.2409,-5.2409,-5.2409,-5.2409,-5.2409,-5.2409,-5.2409,-5.2409,-5.2409,-5.2409,-5.2409,-5.2409,-5.2409,-5.2409,-5.2409,-5.2409,-5.2409,-5.2409,-5.2409,-5.2409,-5.2409,-5.2409,-5.2409,-5.2409,-5.2409,-5.2409,-5.2409,-5.2445,-5.2535,-5.2605,-5.2731,-5.272,-5.2118,-5.1446,-5.0821,-5.0225,-4.9632,-4.9176,-4.9089,-4.9018,-4.9018,-4.9018,-4.9018,-4.9018,-4.9018,-4.9018,-4.9018,-4.9018,-4.9018,-4.9018,-5.3518,-5.3518,-5.3518,-5.3518,-5.3518,-5.3518,-5.3518,-5.3518,-5.3518,-5.3518,-5.3518,-5.3518,-5.3518,-5.3518,-5.3518,-5.3518,-5.3518,-5.3518,-5.3518,-5.3518,-5.3518,-5.3518,-5.3433,-5.3178,-5.328,-5.3246,-5.2903,-5.2782,-5.3314,-5.3518,-5.328,-5.3433,-5.3348,-5.3348,-5.3314,-5.3433,-5.3093,-5.2677,-5.259,-5.2316,-5.196,-5.1467,-5.1027,-5.0576,-5.0538,-5.0483,-5.0368,-5.029,-5.0213,-5.0236,-5.0236,-5.0653,-5.1268,-5.1944,-5.2266,-5.2302,-5.2373,-5.2373,-5.225,-5.2373,-5.2409,-5.2409,-5.2409,-5.2409,-5.2409,-5.2338,-5.225,-5.2285,-5.2338,-5.2409,-5.2409,-5.2409,-5.2409,-5.2409,-5.2409,-5.2409,-5.2409,-5.2409,-5.2409,-5.2409,-5.2409,-5.2409,-5.2409,-5.2409,-5.2409,-5.2409,-5.2409,-5.2409,-5.2409,-5.2409,-5.2409,-5.2409,-5.2409,-5.2499,-5.2605,-5.2714,-5.272,-5.2,-5.1313,-5.0673,-5.0079,-4.9432,-4.9089,-4.9035,-4.9018,-4.9018,-4.9018,-4.9018,-4.9018,-4.9018,-4.9018,-4.9018,-4.9018,-4.9018,-4.9018,-5.3518,-5.3518,-5.3518,-5.3518,-5.3518,-5.3518,-5.3518,-5.3518,-5.3518,-5.3518,-5.3518,-5.3518,-5.3518,-5.3518,-5.3518,-5.3518,-5.3518,-5.3518,-5.3518,-5.3518,-5.3518,-5.3518,-5.3399,-5.3127,-5.3212,-5.3024,-5.2397,-5.2131,-5.2799,-5.2868,-5.2677,-5.2274,-5.2238,-5.2238,-5.2238,-5.2183,-5.2148,-5.1878,-5.1716,-5.1533,-5.1268,-5.0669,-5.0174,-4.9923,-4.9765,-4.9805,-4.9805,-4.9805,-4.9805,-4.9844,-4.9805,-5.0057,-5.0538,-5.114,-5.1709,-5.1745,-5.2142,-5.2142,-5.198,-5.2069,-5.2409,-5.2409,-5.2373,-5.2409,-5.225,-5.2017,-5.1782,-5.1818,-5.225,-5.2409,-5.2409,-5.2409,-5.2409,-5.2409,-5.2409,-5.2409,-5.2409,-5.2409,-5.2409,-5.2409,-5.2409,-5.2409,-5.2409,-5.2409,-5.2409,-5.2409,-5.2409,-5.2409,-5.2409,-5.2445,-5.2464,-5.2535,-5.2535,-5.257,-5.264,-5.2731,-5.2635,-5.1915,-5.1296,-5.0624,-5.0013,-4.9415,-4.9123,-4.9018,-4.9018,-4.9018,-4.9018,-4.9018,-4.9018,-4.9018,-4.9018,-4.9018,-4.9018,-4.9018,-4.9018,-5.3518,-5.3518,-5.3518,-5.3518,-5.3518,-5.3518,-5.3518,-5.3518,-5.3518,-5.3518,-5.3518,-5.3518,-5.3518,-5.3518,-5.3518,-5.3518,-5.3518,-5.3518,-5.3518,-5.3518,-5.3467,-5.3467,-5.3093,-5.2903,-5.2712,-5.252,-5.2167,-5.168,-5.2236,-5.2148,-5.1696,-5.1443,-5.1182,-5.1107,-5.122,-5.1369,-5.0957,-5.0713,-5.0544,-5.029,-4.9915,-4.9678,-4.9463,-4.9303,-4.9303,-4.9222,-4.9101,-4.9075,-4.9116,-4.9116,-4.9181,-4.9343,-4.9623,-5.0229,-5.0592,-5.08,-5.1692,-5.1782,-5.1582,-5.1944,-5.2409,-5.2409,-5.2214,-5.2142,-5.2017,-5.1545,-5.1177,-5.1231,-5.1871,-5.2373,-5.2409,-5.2409,-5.2409,-5.2409,-5.2409,-5.2409,-5.2409,-5.2409,-5.2409,-5.2409,-5.2409,-5.2409,-5.2409,-5.2409,-5.2409,-5.2409,-5.2409,-5.2409,-5.2409,-5.2499,-5.2553,-5.2659,-5.2694,-5.2694,-5.2729,-5.2764,-5.25,-5.1915,-5.1329,-5.0689,-5.0077,-4.9446,-4.9224,-4.8987,-4.9018,-4.9018,-4.9018,-4.9018,-4.9018,-4.9018,-4.9018,-4.9018,-4.9018,-4.9018,-4.9018,-5.3518,-5.3518,-5.3518,-5.3518,-5.3518,-5.3518,-5.3518,-5.3518,-5.3518,-5.3518,-5.3518,-5.3518,-5.3518,-5.3467,-5.3433,-5.3467,-5.3433,-5.3399,-5.3365,-5.3331,-5.3348,-5.3058,-5.2694,-5.3161,-5.2291,-5.1898,-5.1878,-5.2164,-5.1967,-5.1459,-5.1145,-5.0903,-5.0789,-5.1016,-5.0729,-5.0675,-5.0865,-5.049,-5.0336,-4.9789,-4.8969,-4.8764,-4.8381,-4.7949,-4.7779,-4.7807,-4.7892,-4.7934,-4.7864,-4.7779,-4.7694,-4.8019,-4.8558,-4.8805,-4.8887,-4.9559,-5.0745,-5.2033,-5.1306,-5.1619,-5.2178,-5.2017,-5.1672,-5.1343,-5.1065,-5.1102,-5.0951,-5.1156,-5.1835,-5.2354,-5.2373,-5.2409,-5.2409,-5.2409,-5.2409,-5.2409,-5.2409,-5.2409,-5.2409,-5.2409,-5.2409,-5.2409,-5.2409,-5.2409,-5.2409,-5.2409,-5.2409,-5.2409,-5.248,-5.2589,-5.2729,-5.2834,-5.2834,-5.2799,-5.2799,-5.2834,-5.2669,-5.205,-5.1379,-5.0837,-5.028,-4.9685,-4.9111,-4.8925,-4.8987,-4.9018,-4.9018,-4.9018,-4.9018,-4.9018,-4.9018,-4.9018,-4.9018,-4.9018,-4.9018,-5.3518,-5.3518,-5.3518,-5.3518,-5.3518,-5.3518,-5.3518,-5.3518,-5.3518,-5.3518,-5.3518,-5.3518,-5.3518,-5.3433,-5.3058,-5.2799,-5.2834,-5.2834,-5.2834,-5.2834,-5.2782,-5.2607,-5.2343,-5.2167,-5.1553,-5.1257,-5.0957,-5.0761,-5.0783,-5.0631,-5.0229,-4.9757,-4.9734,-4.9614,-4.9852,-4.9599,-4.9399,-4.9157,-4.8913,-4.8475,-4.8019,-4.7864,-4.7709,-4.7309,-4.7309,-4.7309,-4.7309,-4.7309,-4.7309,-4.7309,-4.7309,-4.7424,-4.7892,-4.8256,-4.8449,-4.8046,-4.9742,-5.0615,-5.0445,-5.0767,-5.1177,-5.1397,-5.0876,-5.0174,-4.9915,-5.0096,-5.0368,-5.0384,-5.114,-5.1782,-5.2266,-5.2409,-5.2409,-5.2373,-5.225,-5.2373,-5.2373,-5.2409,-5.2409,-5.2409,-5.2409,-5.2409,-5.2409,-5.2409,-5.2409,-5.2409,-5.2445,-5.248,-5.2605,-5.2834,-5.2938,-5.3041,-5.2972,-5.2868,-5.2868,-5.2868,-5.2972,-5.2471,-5.1562,-5.102,-5.0534,-4.9993,-4.9251,-4.8894,-4.8956,-4.897,-4.9001,-4.9018,-4.9018,-4.9018,-4.9018,-4.9018,-4.9018,-4.9018,-4.9018,-5.3518,-5.3518,-5.3518,-5.3518,-5.3518,-5.3518,-5.3518,-5.3518,-5.3518,-5.3518,-5.3518,-5.3518,-5.3518,-5.3314,-5.2764,-5.2378,-5.2307,-5.2112,-5.2004,-5.2004,-5.1967,-5.1858,-5.157,-5.1182,-5.0941,-5.0483,-5.0213,-4.9931,-4.967,-4.951,-4.9228,-4.8604,-4.8836,-4.8728,-4.862,-4.8646,-4.8563,-4.8355,-4.7949,-4.7624,-4.7381,-4.7352,-4.7352,-4.7309,-4.7309,-4.7309,-4.7309,-4.7309,-4.7309,-4.7309,-4.7309,-4.7352,-4.751,-4.7807,-4.7934,-4.7694,-4.8723,-4.9318,-4.9503,-4.986,-5.0151,-5.0267,-4.9994,-4.9197,-4.8558,-4.8979,-4.9487,-4.9503,-5.0631,-5.138,-5.1855,-5.2017,-5.2178,-5.2053,-5.1891,-5.2089,-5.2214,-5.2089,-5.2178,-5.2409,-5.2409,-5.2409,-5.2409,-5.2409,-5.2409,-5.2409,-5.2445,-5.2551,-5.2746,-5.3007,-5.311,-5.323,-5.3041,-5.2938,-5.2972,-5.3007,-5.3076,-5.2774,-5.1848,-5.1189,-5.0736,-4.9927,-4.9066,-4.8894,-4.8909,-4.897,-4.9001,-4.9018,-4.9018,-4.9018,-4.9018,-4.9018,-4.9018,-4.9018,-4.9018,-5.3518,-5.3518,-5.3518,-5.3518,-5.3518,-5.3518,-5.3518,-5.3518,-5.3518,-5.3518,-5.3518,-5.3518,-5.3518,-5.3246,-5.2642,-5.2183,-5.2236,-5.1496,-5.1273,-5.1182,-5.1145,-5.0843,-5.0615,-5.0515,-5.0267,-4.9309,-4.9334,-4.9253,-4.8918,-4.8918,-4.8728,-4.862,-4.8604,-4.8604,-4.8563,-4.8495,-4.8244,-4.8007,-4.7581,-4.7396,-4.7309,-4.7309,-4.7309,-4.7309,-4.7309,-4.7309,-4.7309,-4.7309,-4.7309,-4.7309,-4.7309,-4.7309,-4.7337,-4.7495,-4.7467,-4.7553,-4.7581,-4.8172,-4.8599,-4.9101,-4.9647,-4.9623,-4.9157,-4.8366,-4.7779,-4.8256,-4.8599,-4.8872,-4.9955,-5.0745,-5.1102,-5.1231,-5.1455,-5.1455,-5.1252,-5.1215,-5.138,-5.1508,-5.1709,-5.2214,-5.2409,-5.2409,-5.2409,-5.2409,-5.2409,-5.2409,-5.2605,-5.2711,-5.2955,-5.3195,-5.3264,-5.3298,-5.3076,-5.3007,-5.3144,-5.3144,-5.311,-5.269,-5.1932,-5.1376,-5.0924,-4.9996,-4.8866,-4.8863,-4.8894,-4.8956,-4.9018,-4.9018,-4.9018,-4.9018,-4.9018,-4.9018,-4.9018,-4.9018,-4.9018,-5.3518,-5.3518,-5.3518,-5.3518,-5.3518,-5.3518,-5.3518,-5.3518,-5.3518,-5.3518,-5.3518,-5.3518,-5.3518,-5.3178,-5.2131,-5.157,-5.1459,-5.0691,-5.0422,-5.0361,-5.0283,-5.0167,-4.9947,-4.959,-4.9188,-4.8754,-4.8944,-4.8984,-4.8687,-4.8604,-4.8604,-4.8604,-4.8563,-4.8604,-4.8563,-4.837,-4.8076,-4.7794,-4.7467,-4.7309,-4.7309,-4.7309,-4.7309,-4.7309,-4.7309,-4.7309,-4.7309,-4.7309,-4.7309,-4.7309,-4.7309,-4.7309,-4.7309,-4.7309,-4.7309,-4.7309,-4.7309,-4.751,-4.7737,-4.8172,-4.824,-4.824,-4.7934,-4.7666,-4.7309,-4.7666,-4.8145,-4.8615,-4.9157,-4.9837,-5.0252,-5.029,-5.0406,-5.0499,-5.0461,-5.0306,-5.0576,-5.0783,-5.1065,-5.1529,-5.2089,-5.2445,-5.2445,-5.2445,-5.2409,-5.2409,-5.264,-5.2868,-5.3127,-5.3314,-5.3382,-5.3382,-5.3195,-5.3161,-5.3298,-5.323,-5.311,-5.2573,-5.2,-5.1428,-5.0873,-4.9729,-4.8834,-4.8849,-4.8894,-4.8987,-4.9018,-4.9018,-4.9018,-4.9018,-4.9018,-4.9018,-4.9018,-4.9018,-4.9018,-5.3518,-5.3518,-5.3518,-5.3518,-5.3518,-5.3518,-5.3518,-5.3518,-5.3518,-5.3518,-5.3518,-5.3518,-5.3518,-5.3058,-5.1878,-5.1145,-5.0843,-5.0128,-4.963,-4.9526,-4.9526,-4.9526,-4.9284,-4.9041,-4.8754,-4.8604,-4.8604,-4.8604,-4.862,-4.8604,-4.8604,-4.8563,-4.8537,-4.848,-4.8412,-4.8091,-4.7794,-4.7581,-4.7424,-4.7309,-4.7309,-4.7309,-4.7309,-4.7309,-4.7309,-4.7309,-4.7309,-4.7309,-4.7309,-4.7309,-4.7309,-4.7309,-4.7309,-4.7309,-4.7309,-4.7309,-4.7309,-4.7309,-4.7309,-4.7309,-4.7294,-4.7495,-4.7467,-4.7352,-4.7309,-4.7309,-4.7694,-4.8061,-4.8407,-4.8846,-4.9447,-4.9463,-4.9742,-4.9939,-4.9116,-4.8953,-4.986,-5.029,-5.0522,-5.0827,-5.1401,-5.198,-5.2161,-5.2197,-5.257,-5.257,-5.2729,-5.2972,-5.328,-5.3382,-5.3433,-5.3416,-5.3298,-5.3348,-5.3467,-5.3314,-5.3145,-5.2876,-5.2235,-5.1377,-5.0636,-4.9542,-4.8899,-4.8894,-4.8956,-4.9018,-4.9018,-4.9018,-4.9018,-4.9018,-4.9018,-4.9018,-4.9018,-4.9018,-4.9018,-5.3518,-5.3518,-5.3518,-5.3518,-5.3518,-5.3518,-5.3518,-5.3518,-5.3518,-5.3518,-5.3467,-5.3433,-5.3467,-5.3093,-5.1716,-5.1032,-5.0713,-4.9494,-4.8769,-4.8811,-4.8893,-4.8728,-4.8728,-4.8604,-4.8604,-4.8604,-4.8604,-4.8604,-4.8604,-4.8537,-4.8563,-4.848,-4.837,-4.8286,-4.826,-4.7837,-4.7624,-4.7596,-4.7424,-4.7309,-4.7309,-4.7309,-4.7309,-4.7309,-4.7309,-4.7309,-4.7309,-4.7309,-4.7309,-4.7309,-4.7309,-4.7309,-4.7309,-4.7309,-4.7309,-4.7309,-4.7309,-4.7309,-4.7309,-4.7309,-4.7309,-4.7309,-4.7309,-4.7309,-4.7309,-4.7309,-4.7337,-4.7709,-4.8019,-4.8423,-4.8615,-4.8682,-4.9035,-4.8938,-4.813,-4.8003,-4.8953,-4.9742,-4.9939,-5.0119,-5.0669,-5.121,-5.1545,-5.1875,-5.2518,-5.2729,-5.2834,-5.3041,-5.3348,-5.3467,-5.3518,-5.3467,-5.3382,-5.3416,-5.3433,-5.3314,-5.3128,-5.2944,-5.237,-5.1411,-5.0536,-4.9643,-4.92,-4.9041,-4.8987,-4.9018,-4.9018,-4.9018,-4.9018,-4.9018,-4.9018,-4.9018,-4.9018,-4.9018,-4.9018,-5.3518,-5.3518,-5.3518,-5.3518,-5.3518,-5.3518,-5.3518,-5.3518,-5.3518,-5.3518,-5.3365,-5.2989,-5.3058,-5.2712,-5.1459,-5.0576,-5.0675,-4.9414,-4.8604,-4.8604,-4.8604,-4.8604,-4.8604,-4.8604,-4.8604,-4.8604,-4.8604,-4.8604,-4.8604,-4.8495,-4.8412,-4.8328,-4.8076,-4.7949,-4.7964,-4.7752,-4.7596,-4.7553,-4.7424,-4.7309,-4.7309,-4.7309,-4.7309,-4.7309,-4.7309,-4.7309,-4.7309,-4.7309,-4.7309,-4.7309,-4.7309,-4.7309,-4.7309,-4.7309,-4.7309,-4.7309,-4.7309,-4.7309,-4.7309,-4.7309,-4.7309,-4.7309,-4.7309,-4.7309,-4.7309,-4.7309,-4.7309,-4.7309,-4.7624,-4.7864,-4.7752,-4.7737,-4.7934,-4.7934,-4.7495,-4.751,-4.8103,-4.8846,-4.9278,-4.9503,-4.9876,-5.0669,-5.1177,-5.1676,-5.2272,-5.2799,-5.2921,-5.3161,-5.3433,-5.3467,-5.3518,-5.3518,-5.3467,-5.3467,-5.3433,-5.3348,-5.3146,-5.291,-5.2152,-5.1111,-5.032,-4.9641,-4.9266,-4.9004,-4.9018,-4.9018,-4.9018,-4.9018,-4.9018,-4.9018,-4.9018,-4.9018,-4.9018,-4.9018,-4.9018,-5.3518,-5.3518,-5.3518,-5.3518,-5.3518,-5.3518,-5.3518,-5.3518,-5.3518,-5.3518,-5.3331,-5.2677,-5.2537,-5.2343,-5.1086,-5.0065,-5.0499,-4.9293,-4.8604,-4.8604,-4.8604,-4.8604,-4.8604,-4.8604,-4.8604,-4.8604,-4.8563,-4.8578,-4.8495,-4.837,-4.8202,-4.7992,-4.7737,-4.7709,-4.7681,-4.7553,-4.7467,-4.7424,-4.7352,-4.7309,-4.7309,-4.7309,-4.7309,-4.7309,-4.7309,-4.7309,-4.7309,-4.7309,-4.7309,-4.7309,-4.7309,-4.7309,-4.7309,-4.7309,-4.7309,-4.7309,-4.7309,-4.7309,-4.7309,-4.7309,-4.7309,-4.7309,-4.7309,-4.7309,-4.7309,-4.7309,-4.7309,-4.7309,-4.7309,-4.7309,-4.7352,-4.7309,-4.7309,-4.7337,-4.7424,-4.7424,-4.7666,-4.8449,-4.8821,-4.901,-4.9278,-5.0033,-5.0729,-5.1459,-5.2023,-5.2555,-5.3025,-5.323,-5.3433,-5.3467,-5.3501,-5.3518,-5.3518,-5.3467,-5.3467,-5.3433,-5.3197,-5.2927,-5.1933,-5.0825,-5.025,-4.9618,-4.9277,-4.8987,-4.9018,-4.9018,-4.9018,-4.9001,-4.9001,-4.9001,-4.9018,-4.9018,-4.9018,-4.9018,-4.9018,-5.3518,-5.3518,-5.3518,-5.3518,-5.3518,-5.3518,-5.3518,-5.3518,-5.3518,-5.3467,-5.3348,-5.2485,-5.22,-5.1895,-5.0515,-4.9908,-4.9829,-4.9,-4.8687,-4.8604,-4.8604,-4.8604,-4.8604,-4.8604,-4.8604,-4.8563,-4.8537,-4.8453,-4.8286,-4.8175,-4.7964,-4.7709,-4.7581,-4.751,-4.7424,-4.7396,-4.7352,-4.7352,-4.7352,-4.7309,-4.7309,-4.7309,-4.7309,-4.7309,-4.7309,-4.7309,-4.7309,-4.7309,-4.7309,-4.7309,-4.7309,-4.7309,-4.7309,-4.7309,-4.7309,-4.7309,-4.7309,-4.7309,-4.7309,-4.7309,-4.7309,-4.7309,-4.7309,-4.7309,-4.7309,-4.7309,-4.7309,-4.7309,-4.7309,-4.7309,-4.7309,-4.7309,-4.7294,-4.7381,-4.751,-4.7624,-4.7737,-4.8103,-4.8423,-4.863,-4.8821,-4.9318,-4.9821,-5.056,-5.1406,-5.1934,-5.2381,-5.2817,-5.3058,-5.3467,-5.3467,-5.3518,-5.3518,-5.3518,-5.345,-5.3315,-5.2994,-5.264,-5.1611,-5.0584,-5.0088,-4.9613,-4.9224,-4.9018,-4.9018,-4.9018,-4.9018,-4.9001,-4.9001,-4.897,-4.8956,-4.897,-4.897,-4.9001,-4.9018,-5.3518,-5.3518,-5.3518,-5.3518,-5.3518,-5.3518,-5.3518,-5.3518,-5.3484,-5.3263,-5.259,-5.1806,-5.1496,-5.1273,-4.9734,-4.951,-4.9365,-4.9122,-4.8728,-4.8604,-4.8604,-4.8604,-4.8604,-4.8604,-4.8604,-4.8521,-4.8453,-4.837,-4.8202,-4.8034,-4.7709,-4.7424,-4.7424,-4.7337,-4.7309,-4.7309,-4.7309,-4.7309,-4.7309,-4.7309,-4.7309,-4.7309,-4.7309,-4.7309,-4.7309,-4.7309,-4.7309,-4.7309,-4.7309,-4.7309,-4.7309,-4.7309,-4.7309,-4.7309,-4.7309,-4.7309,-4.7309,-4.7309,-4.7309,-4.7309,-4.7309,-4.7309,-4.7309,-4.7309,-4.7309,-4.7309,-4.7309,-4.7309,-4.7309,-4.7309,-4.7309,-4.7309,-4.7337,-4.7424,-4.7553,-4.7666,-4.7779,-4.8034,-4.8313,-4.8313,-4.8506,-4.8862,-4.9278,-4.9742,-5.0599,-5.1166,-5.1663,-5.2131,-5.2642,-5.3007,-5.3433,-5.3467,-5.3518,-5.3518,-5.318,-5.2994,-5.2656,-5.22,-5.1188,-5.0394,-4.9968,-4.9543,-4.9171,-4.9018,-4.9018,-4.9018,-4.9018,-4.897,-4.894,-4.8894,-4.8863,-4.8909,-4.894,-4.897,-4.9018,-5.3518,-5.3518,-5.3518,-5.3518,-5.3518,-5.3518,-5.3518,-5.3518,-5.3518,-5.3058,-5.2236,-5.1496,-5.0919,-5.0438,-4.9309,-4.8893,-4.9244,-4.8877,-4.8604,-4.8604,-4.8604,-4.8604,-4.8604,-4.8563,-4.8537,-4.8453,-4.8328,-4.8202,-4.7992,-4.7709,-4.7396,-4.7352,-4.7309,-4.7309,-4.7309,-4.7309,-4.7309,-4.7309,-4.7309,-4.7309,-4.7309,-4.7309,-4.7309,-4.7309,-4.7309,-4.7309,-4.7309,-4.7309,-4.7309,-4.7309,-4.7309,-4.7309,-4.7309,-4.7309,-4.7309,-4.7309,-4.7309,-4.7309,-4.7309,-4.7309,-4.7309,-4.7309,-4.7309,-4.7309,-4.7309,-4.7309,-4.7309,-4.7309,-4.7309,-4.7309,-4.7309,-4.7309,-4.7381,-4.7467,-4.7553,-4.7666,-4.788,-4.8118,-4.816,-4.8133,-4.8328,-4.8589,-4.8984,-4.9358,-4.9781,-5.0461,-5.0995,-5.148,-5.1951,-5.2449,-5.3058,-5.3433,-5.3467,-5.3501,-5.3095,-5.269,-5.2251,-5.176,-5.0898,-5.0188,-4.9796,-4.9458,-4.9103,-4.9018,-4.9018,-4.9018,-4.9001,-4.8925,-4.8863,-4.8801,-4.8769,-4.8832,-4.8863,-4.8894,-4.8925,-5.3518,-5.3518,-5.3518,-5.3518,-5.3518,-5.3518,-5.3518,-5.3467,-5.3399,-5.2955,-5.2112,-5.1331,-5.0515,-4.9749,-4.8934,-4.8604,-4.8811,-4.8646,-4.8604,-4.8604,-4.8604,-4.8604,-4.8604,-4.8563,-4.8495,-4.837,-4.8202,-4.8049,-4.7639,-4.7439,-4.7352,-4.7309,-4.7309,-4.7309,-4.7309,-4.7309,-4.7309,-4.7309,-4.7309,-4.7309,-4.7309,-4.7309,-4.7309,-4.7309,-4.7309,-4.7309,-4.7309,-4.7309,-4.7309,-4.7309,-4.7309,-4.7309,-4.7309,-4.7309,-4.7309,-4.7309,-4.7309,-4.7309,-4.7309,-4.7309,-4.7309,-4.7309,-4.7309,-4.7309,-4.7309,-4.7309,-4.7309,-4.7309,-4.7309,-4.7309,-4.7309,-4.7309,-4.7352,-4.751,-4.7639,-4.7767,-4.7922,-4.8175,-4.8286,-4.8286,-4.8412,-4.863,-4.8713,-4.9091,-4.9253,-4.9813,-5.0128,-5.0576,-5.1107,-5.1623,-5.2183,-5.2903,-5.3127,-5.3042,-5.2909,-5.2455,-5.1896,-5.1252,-5.0458,-4.9849,-4.9407,-4.9187,-4.9035,-4.9018,-4.9018,-4.9018,-4.9018,-4.8925,-4.8832,-4.8721,-4.8707,-4.8738,-4.8769,-4.8801,-4.8894,-5.3518,-5.3518,-5.3518,-5.3518,-5.3518,-5.3518,-5.3518,-5.3433,-5.2834,-5.2148,-5.1348,-5.0554,-4.9749,-4.9,-4.8769,-4.8604,-4.8604,-4.8604,-4.8604,-4.8604,-4.8604,-4.8604,-4.8604,-4.8563,-4.8495,-4.8286,-4.8091,-4.7837,-4.7467,-4.7352,-4.7309,-4.7309,-4.7309,-4.7309,-4.7309,-4.7309,-4.7309,-4.7309,-4.7309,-4.7309,-4.7309,-4.7309,-4.7309,-4.7309,-4.7309,-4.7309,-4.7309,-4.7309,-4.7309,-4.7309,-4.7309,-4.7309,-4.7309,-4.7309,-4.7309,-4.7309,-4.7309,-4.7309,-4.7309,-4.7309,-4.7309,-4.7309,-4.7309,-4.7309,-4.7309,-4.7309,-4.7309,-4.7309,-4.7309,-4.7309,-4.7309,-4.7352,-4.7396,-4.7553,-4.7724,-4.7895,-4.8022,-4.8218,-4.837,-4.8495,-4.8563,-4.8604,-4.8646,-4.8728,-4.8852,-4.8934,-4.8975,-4.9309,-4.9931,-5.0477,-5.0805,-5.1496,-5.2326,-5.2437,-5.238,-5.2152,-5.1559,-5.0879,-5.0069,-4.9543,-4.9035,-4.9018,-4.9018,-4.9018,-4.9018,-4.9001,-4.8956,-4.8863,-4.8769,-4.8627,-4.8627,-4.8627,-4.8707,-4.8738,-4.8846,-5.3518,-5.3518,-5.3518,-5.3518,-5.3518,-5.3518,-5.3518,-5.328,-5.2255,-5.1533,-5.1016,-5.0245,-4.939,-4.8687,-4.8604,-4.8604,-4.8604,-4.8604,-4.8604,-4.8604,-4.8604,-4.8604,-4.8604,-4.8563,-4.837,-4.8175,-4.7837,-4.751,-4.7352,-4.7309,-4.7309,-4.7309,-4.7309,-4.7309,-4.7309,-4.7309,-4.7309,-4.7309,-4.7309,-4.7309,-4.7309,-4.7309,-4.7309,-4.7309,-4.7309,-4.7309,-4.7309,-4.7309,-4.7309,-4.7309,-4.7309,-4.7309,-4.7309,-4.7309,-4.7309,-4.7309,-4.7309,-4.7309,-4.7309,-4.7309,-4.7309,-4.7309,-4.7309,-4.7309,-4.7309,-4.7309,-4.7309,-4.7309,-4.7309,-4.7309,-4.7424,-4.7467,-4.7596,-4.7752,-4.788,-4.798,-4.8175,-4.8328,-4.8453,-4.8521,-4.8604,-4.8604,-4.8604,-4.8646,-4.8728,-4.8728,-4.8646,-4.8646,-4.9122,-4.9494,-4.9757,-5.0227,-5.1201,-5.1696,-5.1685,-5.1514,-5.1169,-5.0473,-4.9763,-4.9373,-4.9018,-4.9018,-4.9018,-4.9018,-4.897,-4.894,-4.8894,-4.8801,-4.8595,-4.8388,-4.8452,-4.8515,-4.8595,-4.8707,-4.8846,-5.3518,-5.3518,-5.3518,-5.3518,-5.3518,-5.3518,-5.3518,-5.3246,-5.1826,-5.1129,-5.0957,-5.0088,-4.9284,-4.8811,-4.8604,-4.8604,-4.8604,-4.8604,-4.8604,-4.8604,-4.8604,-4.8604,-4.8563,-4.8537,-4.8244,-4.7922,-4.7553,-4.7424,-4.7309,-4.7309,-4.7309,-4.7309,-4.7309,-4.7309,-4.7309,-4.7309,-4.7309,-4.7309,-4.7309,-4.7309,-4.7309,-4.7309,-4.7309,-4.7309,-4.7309,-4.7309,-4.7309,-4.7309,-4.7309,-4.7309,-4.7309,-4.7309,-4.7309,-4.7309,-4.7309,-4.7309,-4.7309,-4.7309,-4.7309,-4.7309,-4.7309,-4.7309,-4.7309,-4.7309,-4.7309,-4.7352,-4.7352,-4.7352,-4.7352,-4.7424,-4.7553,-4.7666,-4.7837,-4.7964,-4.8007,-4.8133,-4.8328,-4.8495,-4.8521,-4.8604,-4.8604,-4.8604,-4.8604,-4.8604,-4.8604,-4.8604,-4.8604,-4.8604,-4.8671,-4.88,-4.8998,-4.9568,-5.0317,-5.0709,-5.0916,-5.1078,-5.0963,-5.0304,-4.9678,-4.9289,-4.9018,-4.9018,-4.9018,-4.9018,-4.897,-4.894,-4.8815,-4.869,-4.8452,-4.8292,-4.8388,-4.8515,-4.8658,-4.8784,-4.8909,-5.3518,-5.3518,-5.3518,-5.3518,-5.3518,-5.3518,-5.3518,-5.3246,-5.1826,-5.1091,-5.0729,-4.9574,-4.8687,-4.8604,-4.8604,-4.8604,-4.8604,-4.8604,-4.8604,-4.8604,-4.8604,-4.8604,-4.8521,-4.8328,-4.8076,-4.7752,-4.7467,-4.7352,-4.7309,-4.7309,-4.7309,-4.7309,-4.7309,-4.7309,-4.7309,-4.7309,-4.7309,-4.7309,-4.7309,-4.7309,-4.7309,-4.7309,-4.7309,-4.7309,-4.7309,-4.7309,-4.7309,-4.7309,-4.7309,-4.7309,-4.7309,-4.7309,-4.7309,-4.7309,-4.7309,-4.7309,-4.7309,-4.7309,-4.7309,-4.7309,-4.7309,-4.7294,-4.7294,-4.7352,-4.7381,-4.751,-4.751,-4.7538,-4.7581,-4.7581,-4.7709,-4.788,-4.7992,-4.8091,-4.8175,-4.8328,-4.8495,-4.8521,-4.8563,-4.8604,-4.8604,-4.8604,-4.8604,-4.8604,-4.8604,-4.8604,-4.8604,-4.8604,-4.8604,-4.8512,-4.8404,-4.8944,-4.9573,-4.9882,-5.0172,-5.0861,-5.0811,-5.0152,-4.9593,-4.9221,-4.9018,-4.9018,-4.9018,-4.9018,-4.897,-4.8909,-4.8784,-4.8627,-4.8515,-4.842,-4.8452,-4.8547,-4.869,-4.8815,-4.894]}]]